Wetterdaten: Mittwoch, 02.10.2019
Datum Zeit Temp. A. Feuchte A. Luftdruck Regen Wind Richtung Richtung Sonnenschein ET UV Solar Taupunkt Windchill Windböen
02.10.2019 00:00 14,1 °C 80 % 1005,2 hPa 0,0 mm 21,2 km/h (4 Bft) W 260 ° 0 min 0,000 mm 0,0 UV-I 0 W/m² 10,7 °C 14,1 °C 32,2 km/h (5 Bft)
02.10.2019 00:01 14,1 °C 80 % 1005,1 hPa 0,0 mm 12,8 km/h (3 Bft) W-NW 284 ° 0 min 0,000 mm 0,0 UV-I 0 W/m² 10,7 °C 14,1 °C 17,7 km/h (3 Bft)
02.10.2019 00:02 14,1 °C 80 % 1005,1 hPa 0,0 mm 15,6 km/h (3 Bft) W-SW 255 ° 0 min 0,000 mm 0,0 UV-I 0 W/m² 10,7 °C 14,1 °C 22,5 km/h (4 Bft)
02.10.2019 00:03 14,1 °C 80 % 1005,2 hPa 0,0 mm 14,6 km/h (3 Bft) W-SW 252 ° 0 min 0,000 mm 0,0 UV-I 0 W/m² 10,7 °C 14,1 °C 19,3 km/h (3 Bft)
02.10.2019 00:04 14,1 °C 80 % 1005,2 hPa 0,0 mm 13,7 km/h (3 Bft) W 272 ° 0 min 0,000 mm 0,0 UV-I 0 W/m² 10,7 °C 14,1 °C 19,3 km/h (3 Bft)
02.10.2019 00:05 14,1 °C 80 % 1005,4 hPa 0,0 mm 10,3 km/h (2 Bft) W-NW 292 ° 0 min 0,000 mm 0,0 UV-I 0 W/m² 10,7 °C 14,1 °C 16,1 km/h (3 Bft)
02.10.2019 00:06 14,1 °C 80 % 1005,3 hPa 0,0 mm 14,1 km/h (3 Bft) W-SW 239 ° 0 min 0,000 mm 0,0 UV-I 0 W/m² 10,7 °C 14,1 °C 20,9 km/h (4 Bft)
02.10.2019 00:07 14,0 °C 81 % 1005,3 hPa 0,0 mm 10,7 km/h (2 Bft) NW 308 ° 0 min 0,000 mm 0,0 UV-I 0 W/m² 10,8 °C 14,0 °C 12,9 km/h (3 Bft)
02.10.2019 00:08 13,9 °C 81 % 1005,3 hPa 0,0 mm 9,5 km/h (2 Bft) W-SW 257 ° 0 min 0,000 mm 0,0 UV-I 0 W/m² 10,7 °C 13,9 °C 17,7 km/h (3 Bft)
02.10.2019 00:09 13,9 °C 81 % 1005,2 hPa 0,0 mm 11,3 km/h (2 Bft) W 269 ° 0 min 0,000 mm 0,0 UV-I 0 W/m² 10,7 °C 13,9 °C 17,7 km/h (3 Bft)
02.10.2019 00:10 13,8 °C 82 % 1005,2 hPa 0,0 mm 3,2 km/h (1 Bft) W-SW 252 ° 0 min 0,000 mm 0,0 UV-I 0 W/m² 10,8 °C 13,8 °C 4,8 km/h (1 Bft)
02.10.2019 00:11 13,7 °C 83 % 1005,2 hPa 0,0 mm 6,4 km/h (2 Bft) W-SW 249 ° 0 min 0,000 mm 0,0 UV-I 0 W/m² 10,9 °C 13,7 °C 12,9 km/h (3 Bft)
02.10.2019 00:12 13,6 °C 84 % 1005,2 hPa 0,0 mm 7,4 km/h (2 Bft) W-SW 249 ° 0 min 0,000 mm 0,0 UV-I 0 W/m² 10,9 °C 13,6 °C 14,5 km/h (3 Bft)
02.10.2019 00:13 13,4 °C 84 % 1005,2 hPa 0,0 mm 8,2 km/h (2 Bft) W 261 ° 0 min 0,000 mm 0,0 UV-I 0 W/m² 10,8 °C 13,4 °C 12,9 km/h (3 Bft)
02.10.2019 00:14 13,3 °C 85 % 1005,2 hPa 0,0 mm 11,3 km/h (2 Bft) W 268 ° 0 min 0,000 mm 0,0 UV-I 0 W/m² 10,8 °C 13,3 °C 16,1 km/h (3 Bft)
02.10.2019 00:15 13,2 °C 85 % 1005,2 hPa 0,0 mm 9,2 km/h (2 Bft) W 275 ° 0 min 0,000 mm 0,0 UV-I 0 W/m² 10,7 °C 13,2 °C 16,1 km/h (3 Bft)
02.10.2019 00:16 13,1 °C 86 % 1005,1 hPa 0,0 mm 9,3 km/h (2 Bft) W 261 ° 0 min 0,000 mm 0,0 UV-I 0 W/m² 10,8 °C 13,1 °C 14,5 km/h (3 Bft)
02.10.2019 00:17 12,9 °C 87 % 1005,2 hPa 0,0 mm 7,2 km/h (2 Bft) W 271 ° 0 min 0,000 mm 0,0 UV-I 0 W/m² 10,8 °C 12,9 °C 14,5 km/h (3 Bft)
02.10.2019 00:18 12,9 °C 87 % 1005,2 hPa 0,0 mm 6,9 km/h (2 Bft) W 281 ° 0 min 0,000 mm 0,0 UV-I 0 W/m² 10,8 °C 12,9 °C 17,7 km/h (3 Bft)
02.10.2019 00:19 12,8 °C 87 % 1005,1 hPa 0,0 mm 13,7 km/h (3 Bft) SW 219 ° 0 min 0,000 mm 0,0 UV-I 0 W/m² 10,7 °C 12,8 °C 19,3 km/h (3 Bft)
02.10.2019 00:20 12,8 °C 88 % 1005,1 hPa 0,0 mm 8,4 km/h (2 Bft) W 269 ° 0 min 0,000 mm 0,0 UV-I 0 W/m² 10,9 °C 12,8 °C 16,1 km/h (3 Bft)
02.10.2019 00:21 12,7 °C 88 % 1005,2 hPa 0,0 mm 11,6 km/h (2 Bft) W 280 ° 0 min 0,000 mm 0,0 UV-I 0 W/m² 10,8 °C 12,7 °C 17,7 km/h (3 Bft)
02.10.2019 00:22 12,7 °C 88 % 1005,1 hPa 0,0 mm 9,8 km/h (2 Bft) W 276 ° 0 min 0,000 mm 0,0 UV-I 0 W/m² 10,8 °C 12,7 °C 16,1 km/h (3 Bft)
02.10.2019 00:23 12,6 °C 88 % 1005,1 hPa 0,0 mm 13,9 km/h (3 Bft) W-SW 246 ° 0 min 0,000 mm 0,0 UV-I 0 W/m² 10,7 °C 12,6 °C 17,7 km/h (3 Bft)
02.10.2019 00:24 12,6 °C 89 % 1005,1 hPa 0,0 mm 9,3 km/h (2 Bft) W-SW 252 ° 0 min 0,000 mm 0,0 UV-I 0 W/m² 10,8 °C 12,6 °C 14,5 km/h (3 Bft)
02.10.2019 00:25 12,6 °C 89 % 1005,1 hPa 0,0 mm 5,5 km/h (1 Bft) W-NW 294 ° 0 min 0,000 mm 0,0 UV-I 0 W/m² 10,8 °C 12,6 °C 9,7 km/h (2 Bft)
02.10.2019 00:26 12,6 °C 89 % 1005,1 hPa 0,0 mm 6,5 km/h (2 Bft) W 263 ° 0 min 0,000 mm 0,0 UV-I 0 W/m² 10,8 °C 12,6 °C 11,3 km/h (2 Bft)
02.10.2019 00:27 12,6 °C 89 % 1005,2 hPa 0,0 mm 11,4 km/h (2 Bft) W 271 ° 0 min 0,000 mm 0,0 UV-I 0 W/m² 10,8 °C 12,6 °C 16,1 km/h (3 Bft)
02.10.2019 00:28 12,6 °C 89 % 1005,1 hPa 0,0 mm 12,1 km/h (2 Bft) SW 236 ° 0 min 0,000 mm 0,0 UV-I 0 W/m² 10,8 °C 12,6 °C 19,3 km/h (3 Bft)
02.10.2019 00:29 12,5 °C 89 % 1005,1 hPa 0,0 mm 4,9 km/h (1 Bft) SW 219 ° 0 min 0,000 mm 0,0 UV-I 0 W/m² 10,7 °C 12,5 °C 8,0 km/h (2 Bft)
02.10.2019 00:30 12,5 °C 89 % 1005,0 hPa 0,0 mm 4,9 km/h (1 Bft) W-SW 240 ° 0 min 0,000 mm 0,0 UV-I 0 W/m² 10,7 °C 12,5 °C 11,3 km/h (2 Bft)
02.10.2019 00:31 12,5 °C 89 % 1005,0 hPa 0,0 mm 3,4 km/h (1 Bft) W-SW 250 ° 0 min 0,000 mm 0,0 UV-I 0 W/m² 10,7 °C 12,5 °C 8,0 km/h (2 Bft)
02.10.2019 00:32 12,5 °C 89 % 1005,0 hPa 0,0 mm 5,5 km/h (1 Bft) SW 231 ° 0 min 0,000 mm 0,0 UV-I 0 W/m² 10,7 °C 12,5 °C 16,1 km/h (3 Bft)
02.10.2019 00:33 12,4 °C 90 % 1005,0 hPa 0,0 mm 5,7 km/h (1 Bft) W-SW 246 ° 0 min 0,000 mm 0,0 UV-I 0 W/m² 10,8 °C 12,4 °C 11,3 km/h (2 Bft)
02.10.2019 00:34 12,4 °C 90 % 1004,9 hPa 0,0 mm 4,8 km/h (1 Bft) W-SW 240 ° 0 min 0,000 mm 0,0 UV-I 0 W/m² 10,8 °C 12,4 °C 6,4 km/h (2 Bft)
02.10.2019 00:35 12,4 °C 90 % 1004,9 hPa 0,0 mm 3,1 km/h (1 Bft) S-SO 165 ° 0 min 0,000 mm 0,0 UV-I 0 W/m² 10,8 °C 12,4 °C 8,0 km/h (2 Bft)
02.10.2019 00:36 12,4 °C 90 % 1005,0 hPa 0,0 mm 3,9 km/h (1 Bft) SW 232 ° 0 min 0,000 mm 0,0 UV-I 0 W/m² 10,8 °C 12,4 °C 6,4 km/h (2 Bft)
02.10.2019 00:37 12,3 °C 90 % 1005,0 hPa 0,0 mm 3,6 km/h (1 Bft) SW 230 ° 0 min 0,000 mm 0,0 UV-I 0 W/m² 10,7 °C 12,3 °C 4,8 km/h (1 Bft)
02.10.2019 00:38 12,3 °C 90 % 1005,0 hPa 0,0 mm 1,3 km/h (1 Bft) SW 231 ° 0 min 0,000 mm 0,0 UV-I 0 W/m² 10,7 °C 12,3 °C 3,2 km/h (1 Bft)
02.10.2019 00:39 12,3 °C 90 % 1005,0 hPa 0,0 mm 3,5 km/h (1 Bft) W-SW 238 ° 0 min 0,000 mm 0,0 UV-I 0 W/m² 10,7 °C 12,3 °C 9,7 km/h (2 Bft)
02.10.2019 00:40 12,3 °C 90 % 1005,0 hPa 0,0 mm 2,7 km/h (1 Bft) W-SW 242 ° 0 min 0,000 mm 0,0 UV-I 0 W/m² 10,7 °C 12,3 °C 4,8 km/h (1 Bft)
02.10.2019 00:41 12,3 °C 91 % 1005,0 hPa 0,0 mm 3,9 km/h (1 Bft) W-SW 254 ° 0 min 0,000 mm 0,0 UV-I 0 W/m² 10,9 °C 12,3 °C 12,9 km/h (3 Bft)
02.10.2019 00:42 12,3 °C 91 % 1005,0 hPa 0,0 mm 6,1 km/h (2 Bft) W-SW 257 ° 0 min 0,000 mm 0,0 UV-I 0 W/m² 10,9 °C 12,3 °C 11,3 km/h (2 Bft)
02.10.2019 00:43 12,2 °C 91 % 1005,0 hPa 0,0 mm 3,8 km/h (1 Bft) W-SW 245 ° 0 min 0,000 mm 0,0 UV-I 0 W/m² 10,8 °C 12,2 °C 4,8 km/h (1 Bft)
02.10.2019 00:44 12,2 °C 91 % 1005,0 hPa 0,0 mm 3,8 km/h (1 Bft) W-SW 257 ° 0 min 0,000 mm 0,0 UV-I 0 W/m² 10,8 °C 12,2 °C 4,8 km/h (1 Bft)
02.10.2019 00:45 12,2 °C 91 % 1004,9 hPa 0,0 mm 4,9 km/h (1 Bft) W-SW 246 ° 0 min 0,000 mm 0,0 UV-I 0 W/m² 10,8 °C 12,2 °C 11,3 km/h (2 Bft)
02.10.2019 00:46 12,2 °C 91 % 1004,9 hPa 0,0 mm 5,1 km/h (1 Bft) W-SW 245 ° 0 min 0,000 mm 0,0 UV-I 0 W/m² 10,8 °C 12,2 °C 11,3 km/h (2 Bft)
02.10.2019 00:47 12,2 °C 91 % 1005,0 hPa 0,0 mm 3,8 km/h (1 Bft) SW 232 ° 0 min 0,000 mm 0,0 UV-I 0 W/m² 10,8 °C 12,2 °C 6,4 km/h (2 Bft)
02.10.2019 00:48 12,2 °C 91 % 1004,9 hPa 0,0 mm 0,9 km/h (0 Bft) W-SW 243 ° 0 min 0,000 mm 0,0 UV-I 0 W/m² 10,8 °C 12,2 °C 4,8 km/h (1 Bft)
02.10.2019 00:49 12,2 °C 91 % 1004,9 hPa 0,0 mm 1,3 km/h (1 Bft) W-SW 248 ° 0 min 0,000 mm 0,0 UV-I 0 W/m² 10,8 °C 12,2 °C 4,8 km/h (1 Bft)
02.10.2019 00:50 12,2 °C 91 % 1004,7 hPa 0,0 mm 3,6 km/h (1 Bft) W 259 ° 0 min 0,000 mm 0,0 UV-I 0 W/m² 10,8 °C 12,2 °C 6,4 km/h (2 Bft)
02.10.2019 00:51 12,2 °C 91 % 1004,8 hPa 0,0 mm 3,3 km/h (1 Bft) W-NW 286 ° 0 min 0,000 mm 0,0 UV-I 0 W/m² 10,8 °C 12,2 °C 6,4 km/h (2 Bft)
02.10.2019 00:52 12,2 °C 91 % 1004,8 hPa 0,0 mm 1,6 km/h (1 Bft) W-NW 282 ° 0 min 0,000 mm 0,0 UV-I 0 W/m² 10,8 °C 12,2 °C 4,8 km/h (1 Bft)
02.10.2019 00:53 12,2 °C 91 % 1004,7 hPa 0,0 mm 6,4 km/h (2 Bft) SW 227 ° 0 min 0,000 mm 0,0 UV-I 0 W/m² 10,8 °C 12,2 °C 11,3 km/h (2 Bft)
02.10.2019 00:54 12,1 °C 91 % 1004,7 hPa 0,0 mm 8,9 km/h (2 Bft) W 273 ° 0 min 0,000 mm 0,0 UV-I 0 W/m² 10,7 °C 12,1 °C 14,5 km/h (3 Bft)
02.10.2019 00:55 12,1 °C 91 % 1004,7 hPa 0,0 mm 6,2 km/h (2 Bft) W-NW 285 ° 0 min 0,000 mm 0,0 UV-I 0 W/m² 10,7 °C 12,1 °C 11,3 km/h (2 Bft)
02.10.2019 00:56 12,1 °C 91 % 1004,7 hPa 0,0 mm 3,2 km/h (1 Bft) S 184 ° 0 min 0,000 mm 0,0 UV-I 0 W/m² 10,7 °C 12,1 °C 12,9 km/h (3 Bft)
02.10.2019 00:57 12,1 °C 91 % 1004,7 hPa 0,0 mm 5,9 km/h (2 Bft) W-NW 283 ° 0 min 0,000 mm 0,0 UV-I 0 W/m² 10,7 °C 12,1 °C 11,3 km/h (2 Bft)
02.10.2019 00:58 12,1 °C 91 % 1004,7 hPa 0,0 mm 7,1 km/h (2 Bft) SW 215 ° 0 min 0,000 mm 0,0 UV-I 0 W/m² 10,7 °C 12,1 °C 12,9 km/h (3 Bft)
02.10.2019 00:59 12,1 °C 91 % 1004,8 hPa 0,0 mm 11,7 km/h (2 Bft) W-SW 248 ° 0 min 0,000 mm 0,0 UV-I 0 W/m² 10,7 °C 12,1 °C 20,9 km/h (4 Bft)
02.10.2019 01:00 12,1 °C 91 % 1004,8 hPa 0,0 mm 13,1 km/h (3 Bft) SW 225 ° 0 min 0,000 mm 0,0 UV-I 0 W/m² 10,7 °C 12,1 °C 20,9 km/h (4 Bft)
02.10.2019 01:01 12,1 °C 91 % 1004,8 hPa 0,0 mm 8,5 km/h (2 Bft) W-NW 283 ° 0 min 0,025 mm 0,0 UV-I 0 W/m² 10,7 °C 12,1 °C 12,9 km/h (3 Bft)
02.10.2019 01:02 12,1 °C 91 % 1004,8 hPa 0,0 mm 13,0 km/h (3 Bft) W-SW 240 ° 0 min 0,000 mm 0,0 UV-I 0 W/m² 10,7 °C 12,1 °C 20,9 km/h (4 Bft)
02.10.2019 01:03 12,2 °C 91 % 1004,8 hPa 0,0 mm 16,2 km/h (3 Bft) W 275 ° 0 min 0,000 mm 0,0 UV-I 0 W/m² 10,8 °C 12,2 °C 20,9 km/h (4 Bft)
02.10.2019 01:04 12,2 °C 91 % 1004,8 hPa 0,0 mm 11,4 km/h (2 Bft) W 277 ° 0 min 0,000 mm 0,0 UV-I 0 W/m² 10,8 °C 12,2 °C 16,1 km/h (3 Bft)
02.10.2019 01:05 12,2 °C 91 % 1004,8 hPa 0,0 mm 10,5 km/h (2 Bft) W-SW 246 ° 0 min 0,000 mm 0,0 UV-I 0 W/m² 10,8 °C 12,2 °C 19,3 km/h (3 Bft)
02.10.2019 01:06 12,2 °C 91 % 1004,8 hPa 0,0 mm 16,0 km/h (3 Bft) W-NW 295 ° 0 min 0,000 mm 0,0 UV-I 0 W/m² 10,8 °C 12,2 °C 24,1 km/h (4 Bft)
02.10.2019 01:07 12,2 °C 91 % 1004,8 hPa 0,0 mm 13,0 km/h (3 Bft) W 280 ° 0 min 0,000 mm 0,0 UV-I 0 W/m² 10,8 °C 12,2 °C 17,7 km/h (3 Bft)
02.10.2019 01:08 12,3 °C 90 % 1004,8 hPa 0,0 mm 7,4 km/h (2 Bft) W-SW 238 ° 0 min 0,000 mm 0,0 UV-I 0 W/m² 10,7 °C 12,3 °C 16,1 km/h (3 Bft)
02.10.2019 01:09 12,3 °C 90 % 1004,9 hPa 0,0 mm 13,5 km/h (3 Bft) SW 236 ° 0 min 0,000 mm 0,0 UV-I 0 W/m² 10,7 °C 12,3 °C 17,7 km/h (3 Bft)
02.10.2019 01:10 12,3 °C 90 % 1004,8 hPa 0,0 mm 4,7 km/h (1 Bft) S 175 ° 0 min 0,000 mm 0,0 UV-I 0 W/m² 10,7 °C 12,3 °C 9,7 km/h (2 Bft)
02.10.2019 01:11 12,3 °C 90 % 1004,9 hPa 0,0 mm 2,0 km/h (1 Bft) W-SW 256 ° 0 min 0,000 mm 0,0 UV-I 0 W/m² 10,7 °C 12,3 °C 4,8 km/h (1 Bft)
02.10.2019 01:12 12,3 °C 90 % 1004,8 hPa 0,0 mm 1,6 km/h (1 Bft) W-SW 244 ° 0 min 0,000 mm 0,0 UV-I 0 W/m² 10,7 °C 12,3 °C 6,4 km/h (2 Bft)
02.10.2019 01:13 12,3 °C 90 % 1004,8 hPa 0,0 mm 8,7 km/h (2 Bft) S-SW 208 ° 0 min 0,000 mm 0,0 UV-I 0 W/m² 10,7 °C 12,3 °C 12,9 km/h (3 Bft)
02.10.2019 01:14 12,2 °C 90 % 1004,9 hPa 0,0 mm 4,6 km/h (1 Bft) SW 234 ° 0 min 0,000 mm 0,0 UV-I 0 W/m² 10,6 °C 12,2 °C 9,7 km/h (2 Bft)
02.10.2019 01:15 12,3 °C 90 % 1004,9 hPa 0,0 mm 5,9 km/h (2 Bft) W-SW 240 ° 0 min 0,000 mm 0,0 UV-I 0 W/m² 10,7 °C 12,3 °C 9,7 km/h (2 Bft)
02.10.2019 01:16 12,3 °C 90 % 1004,8 hPa 0,0 mm 2,8 km/h (1 Bft) W-SW 243 ° 0 min 0,000 mm 0,0 UV-I 0 W/m² 10,7 °C 12,3 °C 6,4 km/h (2 Bft)
02.10.2019 01:17 12,3 °C 90 % 1004,7 hPa 0,0 mm 5,1 km/h (1 Bft) W 263 ° 0 min 0,000 mm 0,0 UV-I 0 W/m² 10,7 °C 12,3 °C 9,7 km/h (2 Bft)
02.10.2019 01:18 12,3 °C 90 % 1004,7 hPa 0,0 mm 10,3 km/h (2 Bft) W-NW 288 ° 0 min 0,000 mm 0,0 UV-I 0 W/m² 10,7 °C 12,3 °C 17,7 km/h (3 Bft)
02.10.2019 01:19 12,2 °C 90 % 1004,7 hPa 0,0 mm 8,3 km/h (2 Bft) W-SW 244 ° 0 min 0,000 mm 0,0 UV-I 0 W/m² 10,6 °C 12,2 °C 12,9 km/h (3 Bft)
02.10.2019 01:20 12,2 °C 90 % 1004,7 hPa 0,0 mm 4,8 km/h (1 Bft) W-NW 284 ° 0 min 0,000 mm 0,0 UV-I 0 W/m² 10,6 °C 12,2 °C 11,3 km/h (2 Bft)
02.10.2019 01:21 12,2 °C 90 % 1004,7 hPa 0,0 mm 4,8 km/h (1 Bft) W-SW 245 ° 0 min 0,000 mm 0,0 UV-I 0 W/m² 10,6 °C 12,2 °C 6,4 km/h (2 Bft)
02.10.2019 01:22 12,2 °C 90 % 1004,7 hPa 0,0 mm 5,7 km/h (1 Bft) W-SW 251 ° 0 min 0,000 mm 0,0 UV-I 0 W/m² 10,6 °C 12,2 °C 12,9 km/h (3 Bft)
02.10.2019 01:23 12,2 °C 90 % 1004,7 hPa 0,0 mm 3,8 km/h (1 Bft) SW 228 ° 0 min 0,000 mm 0,0 UV-I 0 W/m² 10,6 °C 12,2 °C 11,3 km/h (2 Bft)
02.10.2019 01:24 12,2 °C 90 % 1004,7 hPa 0,0 mm 2,4 km/h (1 Bft) S-SW 199 ° 0 min 0,000 mm 0,0 UV-I 0 W/m² 10,6 °C 12,2 °C 3,2 km/h (1 Bft)
02.10.2019 01:25 12,2 °C 90 % 1004,6 hPa 0,0 mm 1,5 km/h (1 Bft) W 272 ° 0 min 0,000 mm 0,0 UV-I 0 W/m² 10,6 °C 12,2 °C 4,8 km/h (1 Bft)
02.10.2019 01:26 12,1 °C 90 % 1004,6 hPa 0,0 mm 4,5 km/h (1 Bft) S 175 ° 0 min 0,000 mm 0,0 UV-I 0 W/m² 10,5 °C 12,1 °C 11,3 km/h (2 Bft)
02.10.2019 01:27 12,1 °C 90 % 1004,6 hPa 0,0 mm 2,5 km/h (1 Bft) SW 223 ° 0 min 0,000 mm 0,0 UV-I 0 W/m² 10,5 °C 12,1 °C 4,8 km/h (1 Bft)
02.10.2019 01:28 12,1 °C 90 % 1004,6 hPa 0,0 mm 1,2 km/h (1 Bft) W-SW 258 ° 0 min 0,000 mm 0,0 UV-I 0 W/m² 10,5 °C 12,1 °C 9,7 km/h (2 Bft)
02.10.2019 01:29 12,1 °C 90 % 1004,5 hPa 0,0 mm 4,2 km/h (1 Bft) W 266 ° 0 min 0,000 mm 0,0 UV-I 0 W/m² 10,5 °C 12,1 °C 9,7 km/h (2 Bft)
02.10.2019 01:30 12,1 °C 90 % 1004,5 hPa 0,0 mm 2,7 km/h (1 Bft) SW 220 ° 0 min 0,000 mm 0,0 UV-I 0 W/m² 10,5 °C 12,1 °C 4,8 km/h (1 Bft)
02.10.2019 01:31 12,1 °C 90 % 1004,5 hPa 0,0 mm 2,2 km/h (1 Bft) W-SW 247 ° 0 min 0,000 mm 0,0 UV-I 0 W/m² 10,5 °C 12,1 °C 4,8 km/h (1 Bft)
02.10.2019 01:32 12,0 °C 90 % 1004,4 hPa 0,0 mm 2,1 km/h (1 Bft) W-SW 247 ° 0 min 0,000 mm 0,0 UV-I 0 W/m² 10,4 °C 12,0 °C 3,2 km/h (1 Bft)
02.10.2019 01:33 12,0 °C 90 % 1004,4 hPa 0,0 mm 3,6 km/h (1 Bft) SW 216 ° 0 min 0,000 mm 0,0 UV-I 0 W/m² 10,4 °C 12,0 °C 6,4 km/h (2 Bft)
02.10.2019 01:34 12,0 °C 90 % 1004,4 hPa 0,0 mm 1,6 km/h (1 Bft) S-SW 207 ° 0 min 0,000 mm 0,0 UV-I 0 W/m² 10,4 °C 12,0 °C 4,8 km/h (1 Bft)
02.10.2019 01:35 12,0 °C 90 % 1004,3 hPa 0,0 mm 3,6 km/h (1 Bft) W 264 ° 0 min 0,000 mm 0,0 UV-I 0 W/m² 10,4 °C 12,0 °C 4,8 km/h (1 Bft)
02.10.2019 01:36 12,0 °C 90 % 1004,3 hPa 0,0 mm 3,4 km/h (1 Bft) SW 227 ° 0 min 0,000 mm 0,0 UV-I 0 W/m² 10,4 °C 12,0 °C 8,0 km/h (2 Bft)
02.10.2019 01:37 12,0 °C 90 % 1004,3 hPa 0,0 mm 5,7 km/h (1 Bft) S-SW 194 ° 0 min 0,000 mm 0,0 UV-I 0 W/m² 10,4 °C 12,0 °C 9,7 km/h (2 Bft)
02.10.2019 01:38 12,0 °C 90 % 1004,3 hPa 0,0 mm 1,2 km/h (1 Bft) S-SW 194 ° 0 min 0,000 mm 0,0 UV-I 0 W/m² 10,4 °C 12,0 °C 3,2 km/h (1 Bft)
02.10.2019 01:39 12,0 °C 90 % 1004,3 hPa 0,0 mm 4,0 km/h (1 Bft) W-SW 238 ° 0 min 0,000 mm 0,0 UV-I 0 W/m² 10,4 °C 12,0 °C 6,4 km/h (2 Bft)
02.10.2019 01:40 12,0 °C 90 % 1004,3 hPa 0,0 mm 4,3 km/h (1 Bft) W-SW 258 ° 0 min 0,000 mm 0,0 UV-I 0 W/m² 10,4 °C 12,0 °C 6,4 km/h (2 Bft)
02.10.2019 01:41 12,0 °C 90 % 1004,3 hPa 0,0 mm 5,1 km/h (1 Bft) W-SW 243 ° 0 min 0,000 mm 0,0 UV-I 0 W/m² 10,4 °C 12,0 °C 9,7 km/h (2 Bft)
02.10.2019 01:42 12,0 °C 90 % 1004,3 hPa 0,0 mm 6,0 km/h (2 Bft) W-SW 248 ° 0 min 0,000 mm 0,0 UV-I 0 W/m² 10,4 °C 12,0 °C 9,7 km/h (2 Bft)
02.10.2019 01:43 11,9 °C 90 % 1004,3 hPa 0,0 mm 3,0 km/h (1 Bft) SW 219 ° 0 min 0,000 mm 0,0 UV-I 0 W/m² 10,3 °C 11,9 °C 6,4 km/h (2 Bft)
02.10.2019 01:44 11,9 °C 90 % 1004,3 hPa 0,0 mm 4,2 km/h (1 Bft) SW 235 ° 0 min 0,000 mm 0,0 UV-I 0 W/m² 10,3 °C 11,9 °C 11,3 km/h (2 Bft)
02.10.2019 01:45 11,9 °C 90 % 1004,3 hPa 0,0 mm 5,3 km/h (1 Bft) W 268 ° 0 min 0,000 mm 0,0 UV-I 0 W/m² 10,3 °C 11,9 °C 6,4 km/h (2 Bft)
02.10.2019 01:46 11,9 °C 90 % 1004,3 hPa 0,0 mm 4,6 km/h (1 Bft) W 278 ° 0 min 0,000 mm 0,0 UV-I 0 W/m² 10,3 °C 11,9 °C 9,7 km/h (2 Bft)
02.10.2019 01:47 11,9 °C 90 % 1004,3 hPa 0,0 mm 3,2 km/h (1 Bft) SW 236 ° 0 min 0,000 mm 0,0 UV-I 0 W/m² 10,3 °C 11,9 °C 6,4 km/h (2 Bft)
02.10.2019 01:48 11,9 °C 90 % 1004,3 hPa 0,0 mm 3,0 km/h (1 Bft) S-SW 205 ° 0 min 0,000 mm 0,0 UV-I 0 W/m² 10,3 °C 11,9 °C 6,4 km/h (2 Bft)
02.10.2019 01:49 11,9 °C 90 % 1004,3 hPa 0,0 mm 1,5 km/h (1 Bft) W-SW 240 ° 0 min 0,000 mm 0,0 UV-I 0 W/m² 10,3 °C 11,9 °C 4,8 km/h (1 Bft)
02.10.2019 01:50 11,9 °C 90 % 1004,3 hPa 0,0 mm 3,4 km/h (1 Bft) SW 236 ° 0 min 0,000 mm 0,0 UV-I 0 W/m² 10,3 °C 11,9 °C 4,8 km/h (1 Bft)
02.10.2019 01:51 11,9 °C 90 % 1004,3 hPa 0,0 mm 7,2 km/h (2 Bft) W-SW 252 ° 0 min 0,000 mm 0,0 UV-I 0 W/m² 10,3 °C 11,9 °C 14,5 km/h (3 Bft)
02.10.2019 01:52 11,9 °C 90 % 1004,3 hPa 0,0 mm 4,5 km/h (1 Bft) W 264 ° 0 min 0,000 mm 0,0 UV-I 0 W/m² 10,3 °C 11,9 °C 11,3 km/h (2 Bft)
02.10.2019 01:53 11,8 °C 90 % 1004,3 hPa 0,0 mm 3,0 km/h (1 Bft) SW 215 ° 0 min 0,000 mm 0,0 UV-I 0 W/m² 10,2 °C 11,8 °C 4,8 km/h (1 Bft)
02.10.2019 01:54 11,8 °C 90 % 1004,3 hPa 0,0 mm 4,3 km/h (1 Bft) W-SW 238 ° 0 min 0,000 mm 0,0 UV-I 0 W/m² 10,2 °C 11,8 °C 8,0 km/h (2 Bft)
02.10.2019 01:55 11,8 °C 90 % 1004,3 hPa 0,0 mm 2,5 km/h (1 Bft) S-SO 168 ° 0 min 0,000 mm 0,0 UV-I 0 W/m² 10,2 °C 11,8 °C 8,0 km/h (2 Bft)
02.10.2019 01:56 11,8 °C 90 % 1004,3 hPa 0,0 mm 2,4 km/h (1 Bft) S 173 ° 0 min 0,000 mm 0,0 UV-I 0 W/m² 10,2 °C 11,8 °C 6,4 km/h (2 Bft)
02.10.2019 01:57 11,8 °C 91 % 1004,3 hPa 0,0 mm 3,8 km/h (1 Bft) S 180 ° 0 min 0,000 mm 0,0 UV-I 0 W/m² 10,4 °C 11,8 °C 8,0 km/h (2 Bft)
02.10.2019 01:58 11,8 °C 91 % 1004,2 hPa 0,0 mm 3,7 km/h (1 Bft) S 180 ° 0 min 0,000 mm 0,0 UV-I 0 W/m² 10,4 °C 11,8 °C 4,8 km/h (1 Bft)
02.10.2019 01:59 11,8 °C 91 % 1004,3 hPa 0,0 mm 4,7 km/h (1 Bft) S-SW 208 ° 0 min 0,000 mm 0,0 UV-I 0 W/m² 10,4 °C 11,8 °C 6,4 km/h (2 Bft)
02.10.2019 02:00 11,8 °C 90 % 1004,3 hPa 0,0 mm 5,2 km/h (1 Bft) S-SW 200 ° 0 min 0,000 mm 0,0 UV-I 0 W/m² 10,2 °C 11,8 °C 9,7 km/h (2 Bft)
02.10.2019 02:01 11,8 °C 90 % 1004,2 hPa 0,0 mm 5,4 km/h (1 Bft) S-SW 207 ° 0 min 0,000 mm 0,0 UV-I 0 W/m² 10,2 °C 11,8 °C 9,7 km/h (2 Bft)
02.10.2019 02:02 11,8 °C 90 % 1004,2 hPa 0,0 mm 4,8 km/h (1 Bft) S-SO 167 ° 0 min 0,000 mm 0,0 UV-I 0 W/m² 10,2 °C 11,8 °C 6,4 km/h (2 Bft)
02.10.2019 02:03 11,9 °C 90 % 1004,1 hPa 0,0 mm 4,8 km/h (1 Bft) W 265 ° 0 min 0,000 mm 0,0 UV-I 0 W/m² 10,3 °C 11,9 °C 8,0 km/h (2 Bft)
02.10.2019 02:04 11,9 °C 90 % 1004,1 hPa 0,0 mm 3,9 km/h (1 Bft) S-SW 192 ° 0 min 0,000 mm 0,0 UV-I 0 W/m² 10,3 °C 11,9 °C 8,0 km/h (2 Bft)
02.10.2019 02:05 11,9 °C 90 % 1004,1 hPa 0,2 mm 2,7 km/h (1 Bft) S-SW 209 ° 0 min 0,000 mm 0,0 UV-I 0 W/m² 10,3 °C 11,9 °C 4,8 km/h (1 Bft)
02.10.2019 02:06 11,9 °C 90 % 1004,1 hPa 0,0 mm 2,2 km/h (1 Bft) S 184 ° 0 min 0,000 mm 0,0 UV-I 0 W/m² 10,3 °C 11,9 °C 8,0 km/h (2 Bft)
02.10.2019 02:07 11,9 °C 90 % 1004,1 hPa 0,0 mm 3,6 km/h (1 Bft) S 182 ° 0 min 0,000 mm 0,0 UV-I 0 W/m² 10,3 °C 11,9 °C 9,7 km/h (2 Bft)
02.10.2019 02:08 11,9 °C 90 % 1004,0 hPa 0,0 mm 4,4 km/h (1 Bft) S 187 ° 0 min 0,000 mm 0,0 UV-I 0 W/m² 10,3 °C 11,9 °C 9,7 km/h (2 Bft)
02.10.2019 02:09 11,9 °C 90 % 1004,0 hPa 0,0 mm 3,2 km/h (1 Bft) S 188 ° 0 min 0,000 mm 0,0 UV-I 0 W/m² 10,3 °C 11,9 °C 6,4 km/h (2 Bft)
02.10.2019 02:10 11,9 °C 90 % 1004,0 hPa 0,0 mm 3,2 km/h (1 Bft) S 169 ° 0 min 0,000 mm 0,0 UV-I 0 W/m² 10,3 °C 11,9 °C 4,8 km/h (1 Bft)
02.10.2019 02:11 11,9 °C 90 % 1004,1 hPa 0,0 mm 1,2 km/h (1 Bft) S 170 ° 0 min 0,000 mm 0,0 UV-I 0 W/m² 10,3 °C 11,9 °C 3,2 km/h (1 Bft)
02.10.2019 02:12 11,8 °C 90 % 1004,0 hPa 0,0 mm 1,8 km/h (1 Bft) S 170 ° 0 min 0,000 mm 0,0 UV-I 0 W/m² 10,2 °C 11,8 °C 3,2 km/h (1 Bft)
02.10.2019 02:13 11,7 °C 91 % 1004,1 hPa 0,0 mm 2,3 km/h (1 Bft) S-SW 204 ° 0 min 0,000 mm 0,0 UV-I 0 W/m² 10,3 °C 11,7 °C 4,8 km/h (1 Bft)
02.10.2019 02:14 11,7 °C 91 % 1004,1 hPa 0,0 mm 4,2 km/h (1 Bft) SW 234 ° 0 min 0,000 mm 0,0 UV-I 0 W/m² 10,3 °C 11,7 °C 8,0 km/h (2 Bft)
02.10.2019 02:15 11,7 °C 91 % 1004,1 hPa 0,0 mm 7,0 km/h (2 Bft) W-SW 254 ° 0 min 0,000 mm 0,0 UV-I 0 W/m² 10,3 °C 11,7 °C 14,5 km/h (3 Bft)
02.10.2019 02:16 11,7 °C 91 % 1004,1 hPa 0,0 mm 4,4 km/h (1 Bft) W-SW 251 ° 0 min 0,000 mm 0,0 UV-I 0 W/m² 10,3 °C 11,7 °C 6,4 km/h (2 Bft)
02.10.2019 02:17 11,7 °C 91 % 1004,1 hPa 0,0 mm 2,5 km/h (1 Bft) W-SW 250 ° 0 min 0,000 mm 0,0 UV-I 0 W/m² 10,3 °C 11,7 °C 4,8 km/h (1 Bft)
02.10.2019 02:18 11,8 °C 91 % 1004,1 hPa 0,0 mm 2,1 km/h (1 Bft) W-SW 238 ° 0 min 0,000 mm 0,0 UV-I 0 W/m² 10,4 °C 11,8 °C 3,2 km/h (1 Bft)
02.10.2019 02:19 11,8 °C 91 % 1004,1 hPa 0,0 mm 4,6 km/h (1 Bft) S-SW 194 ° 0 min 0,000 mm 0,0 UV-I 0 W/m² 10,4 °C 11,8 °C 9,7 km/h (2 Bft)
02.10.2019 02:20 11,8 °C 91 % 1004,1 hPa 0,0 mm 3,6 km/h (1 Bft) S 186 ° 0 min 0,000 mm 0,0 UV-I 0 W/m² 10,4 °C 11,8 °C 8,0 km/h (2 Bft)
02.10.2019 02:21 11,8 °C 91 % 1004,2 hPa 0,0 mm 8,4 km/h (2 Bft) W-SW 243 ° 0 min 0,000 mm 0,0 UV-I 0 W/m² 10,4 °C 11,8 °C 16,1 km/h (3 Bft)
02.10.2019 02:22 11,8 °C 91 % 1004,2 hPa 0,0 mm 4,0 km/h (1 Bft) W-SW 255 ° 0 min 0,000 mm 0,0 UV-I 0 W/m² 10,4 °C 11,8 °C 9,7 km/h (2 Bft)
02.10.2019 02:23 11,8 °C 91 % 1004,1 hPa 0,0 mm 5,1 km/h (1 Bft) W-SW 258 ° 0 min 0,000 mm 0,0 UV-I 0 W/m² 10,4 °C 11,8 °C 8,0 km/h (2 Bft)
02.10.2019 02:24 11,9 °C 90 % 1004,2 hPa 0,0 mm 4,0 km/h (1 Bft) W-SW 250 ° 0 min 0,000 mm 0,0 UV-I 0 W/m² 10,3 °C 11,9 °C 8,0 km/h (2 Bft)
02.10.2019 02:25 11,8 °C 90 % 1004,2 hPa 0,0 mm 4,6 km/h (1 Bft) W 272 ° 0 min 0,000 mm 0,0 UV-I 0 W/m² 10,2 °C 11,8 °C 9,7 km/h (2 Bft)
02.10.2019 02:26 11,9 °C 90 % 1004,2 hPa 0,0 mm 3,6 km/h (1 Bft) W-SW 252 ° 0 min 0,000 mm 0,0 UV-I 0 W/m² 10,3 °C 11,9 °C 6,4 km/h (2 Bft)
02.10.2019 02:27 11,9 °C 90 % 1004,2 hPa 0,0 mm 3,6 km/h (1 Bft) S-SW 198 ° 0 min 0,000 mm 0,0 UV-I 0 W/m² 10,3 °C 11,9 °C 8,0 km/h (2 Bft)
02.10.2019 02:28 11,9 °C 90 % 1004,2 hPa 0,0 mm 4,6 km/h (1 Bft) SW 227 ° 0 min 0,000 mm 0,0 UV-I 0 W/m² 10,3 °C 11,9 °C 11,3 km/h (2 Bft)
02.10.2019 02:29 11,9 °C 90 % 1004,2 hPa 0,0 mm 8,3 km/h (2 Bft) SW 227 ° 0 min 0,000 mm 0,0 UV-I 0 W/m² 10,3 °C 11,9 °C 17,7 km/h (3 Bft)
02.10.2019 02:30 11,9 °C 90 % 1004,2 hPa 0,0 mm 3,8 km/h (1 Bft) W 262 ° 0 min 0,000 mm 0,0 UV-I 0 W/m² 10,3 °C 11,9 °C 6,4 km/h (2 Bft)
02.10.2019 02:31 11,9 °C 90 % 1004,2 hPa 0,0 mm 3,0 km/h (1 Bft) W 259 ° 0 min 0,000 mm 0,0 UV-I 0 W/m² 10,3 °C 11,9 °C 6,4 km/h (2 Bft)
02.10.2019 02:32 11,9 °C 90 % 1004,2 hPa 0,0 mm 7,6 km/h (2 Bft) S 180 ° 0 min 0,000 mm 0,0 UV-I 0 W/m² 10,3 °C 11,9 °C 14,5 km/h (3 Bft)
02.10.2019 02:33 11,9 °C 90 % 1004,2 hPa 0,0 mm 4,6 km/h (1 Bft) W-SW 250 ° 0 min 0,000 mm 0,0 UV-I 0 W/m² 10,3 °C 11,9 °C 6,4 km/h (2 Bft)
02.10.2019 02:34 11,9 °C 90 % 1004,2 hPa 0,0 mm 4,1 km/h (1 Bft) W-SW 247 ° 0 min 0,000 mm 0,0 UV-I 0 W/m² 10,3 °C 11,9 °C 6,4 km/h (2 Bft)
02.10.2019 02:35 11,9 °C 90 % 1004,2 hPa 0,0 mm 3,5 km/h (1 Bft) SW 223 ° 0 min 0,000 mm 0,0 UV-I 0 W/m² 10,3 °C 11,9 °C 8,0 km/h (2 Bft)
02.10.2019 02:36 11,9 °C 90 % 1004,1 hPa 0,0 mm 2,9 km/h (1 Bft) SW 235 ° 0 min 0,000 mm 0,0 UV-I 0 W/m² 10,3 °C 11,9 °C 3,2 km/h (1 Bft)
02.10.2019 02:37 11,9 °C 90 % 1004,1 hPa 0,0 mm 2,4 km/h (1 Bft) SW 235 ° 0 min 0,000 mm 0,0 UV-I 0 W/m² 10,3 °C 11,9 °C 4,8 km/h (1 Bft)
02.10.2019 02:38 11,9 °C 90 % 1004,1 hPa 0,0 mm 2,5 km/h (1 Bft) SW 235 ° 0 min 0,000 mm 0,0 UV-I 0 W/m² 10,3 °C 11,9 °C 3,2 km/h (1 Bft)
02.10.2019 02:39 11,8 °C 90 % 1004,1 hPa 0,0 mm 2,4 km/h (1 Bft) W-SW 248 ° 0 min 0,000 mm 0,0 UV-I 0 W/m² 10,2 °C 11,8 °C 4,8 km/h (1 Bft)
02.10.2019 02:40 11,8 °C 90 % 1004,1 hPa 0,0 mm 1,2 km/h (1 Bft) W-SW 244 ° 0 min 0,000 mm 0,0 UV-I 0 W/m² 10,2 °C 11,8 °C 3,2 km/h (1 Bft)
02.10.2019 02:41 11,8 °C 91 % 1004,1 hPa 0,0 mm 4,6 km/h (1 Bft) W-SW 255 ° 0 min 0,000 mm 0,0 UV-I 0 W/m² 10,4 °C 11,8 °C 11,3 km/h (2 Bft)
02.10.2019 02:42 11,8 °C 91 % 1004,1 hPa 0,0 mm 2,0 km/h (1 Bft) SW 229 ° 0 min 0,000 mm 0,0 UV-I 0 W/m² 10,4 °C 11,8 °C 6,4 km/h (2 Bft)
02.10.2019 02:43 11,8 °C 91 % 1004,1 hPa 0,0 mm 1,5 km/h (1 Bft) W 264 ° 0 min 0,000 mm 0,0 UV-I 0 W/m² 10,4 °C 11,8 °C 3,2 km/h (1 Bft)
02.10.2019 02:44 11,8 °C 91 % 1004,1 hPa 0,0 mm 3,9 km/h (1 Bft) SW 231 ° 0 min 0,000 mm 0,0 UV-I 0 W/m² 10,4 °C 11,8 °C 9,7 km/h (2 Bft)
02.10.2019 02:45 11,8 °C 91 % 1004,1 hPa 0,0 mm 2,4 km/h (1 Bft) W-SW 243 ° 0 min 0,000 mm 0,0 UV-I 0 W/m² 10,4 °C 11,8 °C 4,8 km/h (1 Bft)
02.10.2019 02:46 11,7 °C 91 % 1004,1 hPa 0,0 mm 3,1 km/h (1 Bft) W-SW 239 ° 0 min 0,000 mm 0,0 UV-I 0 W/m² 10,3 °C 11,7 °C 4,8 km/h (1 Bft)
02.10.2019 02:47 11,7 °C 91 % 1004,1 hPa 0,0 mm 4,8 km/h (1 Bft) SW 217 ° 0 min 0,000 mm 0,0 UV-I 0 W/m² 10,3 °C 11,7 °C 9,7 km/h (2 Bft)
02.10.2019 02:48 11,7 °C 91 % 1004,1 hPa 0,0 mm 3,1 km/h (1 Bft) W 270 ° 0 min 0,000 mm 0,0 UV-I 0 W/m² 10,3 °C 11,7 °C 4,8 km/h (1 Bft)
02.10.2019 02:49 11,8 °C 91 % 1004,0 hPa 0,0 mm 5,0 km/h (1 Bft) W 265 ° 0 min 0,000 mm 0,0 UV-I 0 W/m² 10,4 °C 11,8 °C 11,3 km/h (2 Bft)
02.10.2019 02:50 11,7 °C 91 % 1004,0 hPa 0,0 mm 3,7 km/h (1 Bft) S 178 ° 0 min 0,000 mm 0,0 UV-I 0 W/m² 10,3 °C 11,7 °C 8,0 km/h (2 Bft)
02.10.2019 02:51 11,8 °C 91 % 1004,0 hPa 0,0 mm 2,6 km/h (1 Bft) S-SW 204 ° 0 min 0,000 mm 0,0 UV-I 0 W/m² 10,4 °C 11,8 °C 8,0 km/h (2 Bft)
02.10.2019 02:52 11,7 °C 91 % 1004,0 hPa 0,0 mm 7,1 km/h (2 Bft) S 190 ° 0 min 0,000 mm 0,0 UV-I 0 W/m² 10,3 °C 11,7 °C 9,7 km/h (2 Bft)
02.10.2019 02:53 11,7 °C 91 % 1004,0 hPa 0,0 mm 0,8 km/h (0 Bft) S-SW 192 ° 0 min 0,000 mm 0,0 UV-I 0 W/m² 10,3 °C 11,7 °C 3,2 km/h (1 Bft)
02.10.2019 02:54 11,7 °C 91 % 1003,9 hPa 0,0 mm 4,0 km/h (1 Bft) S 175 ° 0 min 0,000 mm 0,0 UV-I 0 W/m² 10,3 °C 11,7 °C 9,7 km/h (2 Bft)
02.10.2019 02:55 11,7 °C 91 % 1003,9 hPa 0,0 mm 4,3 km/h (1 Bft) S-SW 196 ° 0 min 0,000 mm 0,0 UV-I 0 W/m² 10,3 °C 11,7 °C 6,4 km/h (2 Bft)
02.10.2019 02:56 11,7 °C 91 % 1003,9 hPa 0,0 mm 5,6 km/h (1 Bft) S-SO 166 ° 0 min 0,000 mm 0,0 UV-I 0 W/m² 10,3 °C 11,7 °C 14,5 km/h (3 Bft)
02.10.2019 02:57 11,7 °C 91 % 1003,9 hPa 0,0 mm 2,6 km/h (1 Bft) S 184 ° 0 min 0,000 mm 0,0 UV-I 0 W/m² 10,3 °C 11,7 °C 11,3 km/h (2 Bft)
02.10.2019 02:58 11,7 °C 91 % 1003,9 hPa 0,0 mm 0,8 km/h (0 Bft) S 184 ° 0 min 0,000 mm 0,0 UV-I 0 W/m² 10,3 °C 11,7 °C 1,6 km/h (1 Bft)
02.10.2019 02:59 11,7 °C 91 % 1003,8 hPa 0,0 mm 0,9 km/h (0 Bft) S-SW 200 ° 0 min 0,000 mm 0,0 UV-I 0 W/m² 10,3 °C 11,7 °C 4,8 km/h (1 Bft)
02.10.2019 03:00 11,6 °C 91 % 1003,8 hPa 0,0 mm 3,1 km/h (1 Bft) S-SW 204 ° 0 min 0,000 mm 0,0 UV-I 0 W/m² 10,2 °C 11,6 °C 4,8 km/h (1 Bft)
02.10.2019 03:01 11,6 °C 91 % 1003,7 hPa 0,0 mm 4,2 km/h (1 Bft) W 270 ° 0 min 0,000 mm 0,0 UV-I 0 W/m² 10,2 °C 11,6 °C 9,7 km/h (2 Bft)
02.10.2019 03:02 11,6 °C 91 % 1003,8 hPa 0,0 mm 2,5 km/h (1 Bft) W 268 ° 0 min 0,000 mm 0,0 UV-I 0 W/m² 10,2 °C 11,6 °C 4,8 km/h (1 Bft)
02.10.2019 03:03 11,6 °C 91 % 1003,8 hPa 0,0 mm 2,9 km/h (1 Bft) S-SW 212 ° 0 min 0,000 mm 0,0 UV-I 0 W/m² 10,2 °C 11,6 °C 6,4 km/h (2 Bft)
02.10.2019 03:04 11,6 °C 91 % 1003,9 hPa 0,0 mm 1,9 km/h (1 Bft) S-SW 211 ° 0 min 0,000 mm 0,0 UV-I 0 W/m² 10,2 °C 11,6 °C 4,8 km/h (1 Bft)
02.10.2019 03:05 11,6 °C 91 % 1003,9 hPa 0,0 mm 0,5 km/h (0 Bft) S-SW 211 ° 0 min 0,000 mm 0,0 UV-I 0 W/m² 10,2 °C 11,6 °C 3,2 km/h (1 Bft)
02.10.2019 03:06 11,6 °C 91 % 1003,8 hPa 0,0 mm 1,9 km/h (1 Bft) W-SW 245 ° 0 min 0,000 mm 0,0 UV-I 0 W/m² 10,2 °C 11,6 °C 4,8 km/h (1 Bft)
02.10.2019 03:07 11,6 °C 91 % 1003,8 hPa 0,0 mm 4,8 km/h (1 Bft) S-SW 205 ° 0 min 0,000 mm 0,0 UV-I 0 W/m² 10,2 °C 11,6 °C 8,0 km/h (2 Bft)
02.10.2019 03:08 11,6 °C 91 % 1003,8 hPa 0,0 mm 3,5 km/h (1 Bft) S-SW 207 ° 0 min 0,000 mm 0,0 UV-I 0 W/m² 10,2 °C 11,6 °C 8,0 km/h (2 Bft)
02.10.2019 03:09 11,6 °C 91 % 1003,8 hPa 0,0 mm 3,0 km/h (1 Bft) SW 223 ° 0 min 0,000 mm 0,0 UV-I 0 W/m² 10,2 °C 11,6 °C 4,8 km/h (1 Bft)
02.10.2019 03:10 11,6 °C 91 % 1003,8 hPa 0,0 mm 2,5 km/h (1 Bft) S-SW 202 ° 0 min 0,000 mm 0,0 UV-I 0 W/m² 10,2 °C 11,6 °C 6,4 km/h (2 Bft)
02.10.2019 03:11 11,5 °C 91 % 1003,7 hPa 0,0 mm 4,2 km/h (1 Bft) S 190 ° 0 min 0,000 mm 0,0 UV-I 0 W/m² 10,1 °C 11,5 °C 8,0 km/h (2 Bft)
02.10.2019 03:12 11,6 °C 91 % 1003,7 hPa 0,0 mm 2,6 km/h (1 Bft) S 190 ° 0 min 0,000 mm 0,0 UV-I 0 W/m² 10,2 °C 11,6 °C 4,8 km/h (1 Bft)
02.10.2019 03:13 11,5 °C 91 % 1003,7 hPa 0,0 mm 4,6 km/h (1 Bft) S-SW 210 ° 0 min 0,000 mm 0,0 UV-I 0 W/m² 10,1 °C 11,5 °C 8,0 km/h (2 Bft)
02.10.2019 03:14 11,5 °C 91 % 1003,8 hPa 0,0 mm 3,1 km/h (1 Bft) SW 215 ° 0 min 0,000 mm 0,0 UV-I 0 W/m² 10,1 °C 11,5 °C 8,0 km/h (2 Bft)
02.10.2019 03:15 11,4 °C 91 % 1003,7 hPa 0,0 mm 1,3 km/h (1 Bft) S-SW 213 ° 0 min 0,000 mm 0,0 UV-I 0 W/m² 10,0 °C 11,4 °C 4,8 km/h (1 Bft)
02.10.2019 03:16 11,4 °C 91 % 1003,7 hPa 0,0 mm 0,5 km/h (0 Bft) S-SW 213 ° 0 min 0,000 mm 0,0 UV-I 0 W/m² 10,0 °C 11,4 °C 1,6 km/h (1 Bft)
02.10.2019 03:17 11,4 °C 91 % 1003,7 hPa 0,0 mm 0,3 km/h (0 Bft) S-SW 213 ° 0 min 0,000 mm 0,0 UV-I 0 W/m² 10,0 °C 11,4 °C 1,6 km/h (1 Bft)
02.10.2019 03:18 11,3 °C 92 % 1003,7 hPa 0,0 mm 0,4 km/h (0 Bft) S-SW 213 ° 0 min 0,000 mm 0,0 UV-I 0 W/m² 10,0 °C 11,3 °C 3,2 km/h (1 Bft)
02.10.2019 03:19 11,3 °C 92 % 1003,7 hPa 0,0 mm 0,2 km/h (0 Bft) S-SW 213 ° 0 min 0,000 mm 0,0 UV-I 0 W/m² 10,0 °C 11,3 °C 1,6 km/h (1 Bft)
02.10.2019 03:20 11,3 °C 92 % 1003,7 hPa 0,0 mm 1,9 km/h (1 Bft) S-SW 211 ° 0 min 0,000 mm 0,0 UV-I 0 W/m² 10,0 °C 11,3 °C 4,8 km/h (1 Bft)
02.10.2019 03:21 11,2 °C 92 % 1003,7 hPa 0,0 mm 0,2 km/h (0 Bft) S-SW 211 ° 0 min 0,000 mm 0,0 UV-I 0 W/m² 9,9 °C 11,2 °C 1,6 km/h (1 Bft)
02.10.2019 03:22 11,2 °C 92 % 1003,8 hPa 0,0 mm 0,4 km/h (0 Bft) S-SW 211 ° 0 min 0,000 mm 0,0 UV-I 0 W/m² 9,9 °C 11,2 °C 1,6 km/h (1 Bft)
02.10.2019 03:23 11,2 °C 92 % 1003,8 hPa 0,0 mm 0,8 km/h (0 Bft) S-SW 196 ° 0 min 0,000 mm 0,0 UV-I 0 W/m² 9,9 °C 11,2 °C 1,6 km/h (1 Bft)
02.10.2019 03:24 11,2 °C 92 % 1003,7 hPa 0,0 mm 1,9 km/h (1 Bft) S-SO 157 ° 0 min 0,000 mm 0,0 UV-I 0 W/m² 9,9 °C 11,2 °C 4,8 km/h (1 Bft)
02.10.2019 03:25 11,1 °C 93 % 1003,7 hPa 0,0 mm 0,6 km/h (0 Bft) S-SO 157 ° 0 min 0,000 mm 0,0 UV-I 0 W/m² 10,0 °C 11,1 °C 3,2 km/h (1 Bft)
02.10.2019 03:26 11,1 °C 93 % 1003,8 hPa 0,0 mm 0,5 km/h (0 Bft) S-SO 157 ° 0 min 0,000 mm 0,0 UV-I 0 W/m² 10,0 °C 11,1 °C 3,2 km/h (1 Bft)
02.10.2019 03:27 11,1 °C 93 % 1003,7 hPa 0,0 mm 2,4 km/h (1 Bft) S 180 ° 0 min 0,000 mm 0,0 UV-I 0 W/m² 10,0 °C 11,1 °C 4,8 km/h (1 Bft)
02.10.2019 03:28 11,1 °C 93 % 1003,7 hPa 0,0 mm 1,5 km/h (1 Bft) S 181 ° 0 min 0,000 mm 0,0 UV-I 0 W/m² 10,0 °C 11,1 °C 3,2 km/h (1 Bft)
02.10.2019 03:29 11,0 °C 93 % 1003,7 hPa 0,0 mm 0,3 km/h (0 Bft) S 181 ° 0 min 0,000 mm 0,0 UV-I 0 W/m² 9,9 °C 11,0 °C 1,6 km/h (1 Bft)
02.10.2019 03:30 11,1 °C 93 % 1003,7 hPa 0,0 mm 1,9 km/h (1 Bft) S 188 ° 0 min 0,000 mm 0,0 UV-I 0 W/m² 10,0 °C 11,1 °C 4,8 km/h (1 Bft)
02.10.2019 03:31 11,0 °C 93 % 1003,7 hPa 0,0 mm 0,9 km/h (0 Bft) S 188 ° 0 min 0,000 mm 0,0 UV-I 0 W/m² 9,9 °C 11,0 °C 3,2 km/h (1 Bft)
02.10.2019 03:32 11,0 °C 93 % 1003,7 hPa 0,0 mm 0,8 km/h (0 Bft) S 186 ° 0 min 0,000 mm 0,0 UV-I 0 W/m² 9,9 °C 11,0 °C 3,2 km/h (1 Bft)
02.10.2019 03:33 11,0 °C 93 % 1003,7 hPa 0,0 mm 1,2 km/h (1 Bft) S 186 ° 0 min 0,000 mm 0,0 UV-I 0 W/m² 9,9 °C 11,0 °C 3,2 km/h (1 Bft)
02.10.2019 03:34 11,0 °C 93 % 1003,7 hPa 0,0 mm 0,1 km/h (0 Bft) S 186 ° 0 min 0,000 mm 0,0 UV-I 0 W/m² 9,9 °C 11,0 °C 1,6 km/h (1 Bft)
02.10.2019 03:35 11,0 °C 93 % 1003,7 hPa 0,0 mm 0,1 km/h (0 Bft) S 186 ° 0 min 0,000 mm 0,0 UV-I 0 W/m² 9,9 °C 11,0 °C 1,6 km/h (1 Bft)
02.10.2019 03:36 11,0 °C 93 % 1003,7 hPa 0,0 mm 0,2 km/h (0 Bft) S 186 ° 0 min 0,000 mm 0,0 UV-I 0 W/m² 9,9 °C 11,0 °C 1,6 km/h (1 Bft)
02.10.2019 03:37 11,0 °C 93 % 1003,7 hPa 0,0 mm 2,0 km/h (1 Bft) SW 219 ° 0 min 0,000 mm 0,0 UV-I 0 W/m² 9,9 °C 11,0 °C 4,8 km/h (1 Bft)
02.10.2019 03:38 11,0 °C 93 % 1003,7 hPa 0,0 mm 1,5 km/h (1 Bft) SW 219 ° 0 min 0,000 mm 0,0 UV-I 0 W/m² 9,9 °C 11,0 °C 3,2 km/h (1 Bft)
02.10.2019 03:39 10,9 °C 93 % 1003,7 hPa 0,0 mm 0,0 km/h (0 Bft) SW 219 ° 0 min 0,000 mm 0,0 UV-I 0 W/m² 9,8 °C 10,9 °C 0,0 km/h (0 Bft)
02.10.2019 03:40 10,9 °C 93 % 1003,7 hPa 0,0 mm 0,0 km/h (0 Bft) SW 219 ° 0 min 0,000 mm 0,0 UV-I 0 W/m² 9,8 °C 10,9 °C 0,0 km/h (0 Bft)
02.10.2019 03:41 10,9 °C 93 % 1003,7 hPa 0,0 mm 0,0 km/h (0 Bft) SW 219 ° 0 min 0,000 mm 0,0 UV-I 0 W/m² 9,8 °C 10,9 °C 0,0 km/h (0 Bft)
02.10.2019 03:42 10,9 °C 93 % 1003,7 hPa 0,0 mm 0,0 km/h (0 Bft) SW 219 ° 0 min 0,000 mm 0,0 UV-I 0 W/m² 9,8 °C 10,9 °C 0,0 km/h (0 Bft)
02.10.2019 03:43 10,9 °C 93 % 1003,7 hPa 0,0 mm 0,0 km/h (0 Bft) SW 219 ° 0 min 0,000 mm 0,0 UV-I 0 W/m² 9,8 °C 10,9 °C 0,0 km/h (0 Bft)
02.10.2019 03:44 10,9 °C 93 % 1003,7 hPa 0,0 mm 0,0 km/h (0 Bft) SW 219 ° 0 min 0,000 mm 0,0 UV-I 0 W/m² 9,8 °C 10,9 °C 0,0 km/h (0 Bft)
02.10.2019 03:45 10,9 °C 93 % 1003,6 hPa 0,0 mm 0,1 km/h (0 Bft) SW 219 ° 0 min 0,000 mm 0,0 UV-I 0 W/m² 9,8 °C 10,9 °C 1,6 km/h (1 Bft)
02.10.2019 03:46 10,9 °C 93 % 1003,6 hPa 0,0 mm 0,0 km/h (0 Bft) SW 219 ° 0 min 0,000 mm 0,0 UV-I 0 W/m² 9,8 °C 10,9 °C 0,0 km/h (0 Bft)
02.10.2019 03:47 10,9 °C 93 % 1003,6 hPa 0,0 mm 0,0 km/h (0 Bft) SW 219 ° 0 min 0,000 mm 0,0 UV-I 0 W/m² 9,8 °C 10,9 °C 0,0 km/h (0 Bft)
02.10.2019 03:48 10,9 °C 94 % 1003,6 hPa 0,0 mm 0,0 km/h (0 Bft) SW 219 ° 0 min 0,000 mm 0,0 UV-I 0 W/m² 10,0 °C 10,9 °C 0,0 km/h (0 Bft)
02.10.2019 03:49 10,8 °C 94 % 1003,5 hPa 0,0 mm 0,0 km/h (0 Bft) SW 219 ° 0 min 0,000 mm 0,0 UV-I 0 W/m² 9,9 °C 10,8 °C 0,0 km/h (0 Bft)
02.10.2019 03:50 10,8 °C 94 % 1003,6 hPa 0,0 mm 0,0 km/h (0 Bft) SW 219 ° 0 min 0,000 mm 0,0 UV-I 0 W/m² 9,9 °C 10,8 °C 0,0 km/h (0 Bft)
02.10.2019 03:51 10,8 °C 94 % 1003,6 hPa 0,0 mm 0,7 km/h (0 Bft) SW 232 ° 0 min 0,000 mm 0,0 UV-I 0 W/m² 9,9 °C 10,8 °C 3,2 km/h (1 Bft)
02.10.2019 03:52 10,8 °C 94 % 1003,6 hPa 0,0 mm 0,0 km/h (0 Bft) SW 232 ° 0 min 0,000 mm 0,0 UV-I 0 W/m² 9,9 °C 10,8 °C 0,0 km/h (0 Bft)
02.10.2019 03:53 10,8 °C 93 % 1003,6 hPa 0,0 mm 0,0 km/h (0 Bft) SW 232 ° 0 min 0,000 mm 0,0 UV-I 0 W/m² 9,7 °C 10,8 °C 0,0 km/h (0 Bft)
02.10.2019 03:54 10,8 °C 94 % 1003,6 hPa 0,0 mm 0,0 km/h (0 Bft) SW 232 ° 0 min 0,000 mm 0,0 UV-I 0 W/m² 9,9 °C 10,8 °C 0,0 km/h (0 Bft)
02.10.2019 03:55 10,8 °C 94 % 1003,6 hPa 0,0 mm 0,0 km/h (0 Bft) SW 232 ° 0 min 0,000 mm 0,0 UV-I 0 W/m² 9,9 °C 10,8 °C 0,0 km/h (0 Bft)
02.10.2019 03:56 10,8 °C 94 % 1003,6 hPa 0,0 mm 0,1 km/h (0 Bft) SO 146 ° 0 min 0,000 mm 0,0 UV-I 0 W/m² 9,9 °C 10,8 °C 1,6 km/h (1 Bft)
02.10.2019 03:57 10,7 °C 94 % 1003,6 hPa 0,0 mm 1,5 km/h (1 Bft) SO 146 ° 0 min 0,000 mm 0,0 UV-I 0 W/m² 9,8 °C 10,7 °C 3,2 km/h (1 Bft)
02.10.2019 03:58 10,8 °C 94 % 1003,6 hPa 0,0 mm 0,0 km/h (0 Bft) SO 146 ° 0 min 0,000 mm 0,0 UV-I 0 W/m² 9,9 °C 10,8 °C 0,0 km/h (0 Bft)
02.10.2019 03:59 10,7 °C 94 % 1003,7 hPa 0,0 mm 1,1 km/h (1 Bft) SW 214 ° 0 min 0,000 mm 0,0 UV-I 0 W/m² 9,8 °C 10,7 °C 3,2 km/h (1 Bft)
02.10.2019 04:00 10,8 °C 94 % 1003,6 hPa 0,0 mm 0,0 km/h (0 Bft) SW 214 ° 0 min 0,000 mm 0,0 UV-I 0 W/m² 9,9 °C 10,8 °C 0,0 km/h (0 Bft)
02.10.2019 04:01 10,7 °C 94 % 1003,6 hPa 0,0 mm 0,0 km/h (0 Bft) SW 214 ° 0 min 0,000 mm 0,0 UV-I 0 W/m² 9,8 °C 10,7 °C 0,0 km/h (0 Bft)
02.10.2019 04:02 10,7 °C 94 % 1003,5 hPa 0,0 mm 0,0 km/h (0 Bft) SW 214 ° 0 min 0,000 mm 0,0 UV-I 0 W/m² 9,8 °C 10,7 °C 0,0 km/h (0 Bft)
02.10.2019 04:03 10,7 °C 94 % 1003,6 hPa 0,0 mm 0,0 km/h (0 Bft) SW 214 ° 0 min 0,000 mm 0,0 UV-I 0 W/m² 9,8 °C 10,7 °C 0,0 km/h (0 Bft)
02.10.2019 04:04 10,7 °C 94 % 1003,6 hPa 0,0 mm 0,1 km/h (0 Bft) S-SW 198 ° 0 min 0,000 mm 0,0 UV-I 0 W/m² 9,8 °C 10,7 °C 1,6 km/h (1 Bft)
02.10.2019 04:05 10,7 °C 94 % 1003,6 hPa 0,0 mm 1,5 km/h (1 Bft) SW 227 ° 0 min 0,000 mm 0,0 UV-I 0 W/m² 9,8 °C 10,7 °C 6,4 km/h (2 Bft)
02.10.2019 04:06 10,7 °C 94 % 1003,5 hPa 0,0 mm 0,0 km/h (0 Bft) SW 224 ° 0 min 0,000 mm 0,0 UV-I 0 W/m² 9,8 °C 10,7 °C 0,0 km/h (0 Bft)
02.10.2019 04:07 10,7 °C 94 % 1003,5 hPa 0,0 mm 0,0 km/h (0 Bft) SW 224 ° 0 min 0,000 mm 0,0 UV-I 0 W/m² 9,8 °C 10,7 °C 0,0 km/h (0 Bft)
02.10.2019 04:08 10,7 °C 94 % 1003,6 hPa 0,0 mm 0,0 km/h (0 Bft) SW 224 ° 0 min 0,000 mm 0,0 UV-I 0 W/m² 9,8 °C 10,7 °C 0,0 km/h (0 Bft)
02.10.2019 04:09 10,7 °C 94 % 1003,6 hPa 0,0 mm 0,0 km/h (0 Bft) SW 223 ° 0 min 0,000 mm 0,0 UV-I 0 W/m² 9,8 °C 10,7 °C 0,0 km/h (0 Bft)
02.10.2019 04:10 10,7 °C 94 % 1003,6 hPa 0,0 mm 0,0 km/h (0 Bft) SW 224 ° 0 min 0,000 mm 0,0 UV-I 0 W/m² 9,8 °C 10,7 °C 0,0 km/h (0 Bft)
02.10.2019 04:11 10,7 °C 94 % 1003,6 hPa 0,0 mm 0,0 km/h (0 Bft) SW 223 ° 0 min 0,000 mm 0,0 UV-I 0 W/m² 9,8 °C 10,7 °C 0,0 km/h (0 Bft)
02.10.2019 04:12 10,7 °C 94 % 1003,6 hPa 0,0 mm 0,0 km/h (0 Bft) SW 223 ° 0 min 0,000 mm 0,0 UV-I 0 W/m² 9,8 °C 10,7 °C 0,0 km/h (0 Bft)
02.10.2019 04:13 10,7 °C 94 % 1003,6 hPa 0,0 mm 0,1 km/h (0 Bft) SW 223 ° 0 min 0,000 mm 0,0 UV-I 0 W/m² 9,8 °C 10,7 °C 1,6 km/h (1 Bft)
02.10.2019 04:14 10,7 °C 94 % 1003,6 hPa 0,0 mm 0,1 km/h (0 Bft) SW 223 ° 0 min 0,000 mm 0,0 UV-I 0 W/m² 9,8 °C 10,7 °C 1,6 km/h (1 Bft)
02.10.2019 04:15 10,7 °C 94 % 1003,5 hPa 0,0 mm 0,0 km/h (0 Bft) SW 223 ° 0 min 0,000 mm 0,0 UV-I 0 W/m² 9,8 °C 10,7 °C 0,0 km/h (0 Bft)
02.10.2019 04:16 10,7 °C 94 % 1003,5 hPa 0,0 mm 0,3 km/h (0 Bft) SW 223 ° 0 min 0,000 mm 0,0 UV-I 0 W/m² 9,8 °C 10,7 °C 1,6 km/h (1 Bft)
02.10.2019 04:17 10,7 °C 94 % 1003,5 hPa 0,0 mm 2,1 km/h (1 Bft) SW 223 ° 0 min 0,000 mm 0,0 UV-I 0 W/m² 9,8 °C 10,7 °C 3,2 km/h (1 Bft)
02.10.2019 04:18 10,7 °C 94 % 1003,4 hPa 0,0 mm 0,3 km/h (0 Bft) SW 223 ° 0 min 0,000 mm 0,0 UV-I 0 W/m² 9,8 °C 10,7 °C 1,6 km/h (1 Bft)
02.10.2019 04:19 10,7 °C 94 % 1003,4 hPa 0,0 mm 0,0 km/h (0 Bft) SW 223 ° 0 min 0,000 mm 0,0 UV-I 0 W/m² 9,8 °C 10,7 °C 0,0 km/h (0 Bft)
02.10.2019 04:20 10,7 °C 94 % 1003,3 hPa 0,0 mm 0,5 km/h (0 Bft) SW 217 ° 0 min 0,000 mm 0,0 UV-I 0 W/m² 9,8 °C 10,7 °C 1,6 km/h (1 Bft)
02.10.2019 04:21 10,7 °C 94 % 1003,3 hPa 0,0 mm 0,1 km/h (0 Bft) SW 217 ° 0 min 0,000 mm 0,0 UV-I 0 W/m² 9,8 °C 10,7 °C 1,6 km/h (1 Bft)
02.10.2019 04:22 10,7 °C 94 % 1003,3 hPa 0,0 mm 0,0 km/h (0 Bft) SW 217 ° 0 min 0,000 mm 0,0 UV-I 0 W/m² 9,8 °C 10,7 °C 0,0 km/h (0 Bft)
02.10.2019 04:23 10,7 °C 94 % 1003,3 hPa 0,0 mm 0,0 km/h (0 Bft) SW 217 ° 0 min 0,000 mm 0,0 UV-I 0 W/m² 9,8 °C 10,7 °C 0,0 km/h (0 Bft)
02.10.2019 04:24 10,7 °C 94 % 1003,3 hPa 0,0 mm 0,0 km/h (0 Bft) SW 217 ° 0 min 0,000 mm 0,0 UV-I 0 W/m² 9,8 °C 10,7 °C 0,0 km/h (0 Bft)
02.10.2019 04:25 10,7 °C 94 % 1003,3 hPa 0,0 mm 0,0 km/h (0 Bft) SW 217 ° 0 min 0,000 mm 0,0 UV-I 0 W/m² 9,8 °C 10,7 °C 0,0 km/h (0 Bft)
02.10.2019 04:26 10,7 °C 94 % 1003,2 hPa 0,0 mm 0,0 km/h (0 Bft) SW 217 ° 0 min 0,000 mm 0,0 UV-I 0 W/m² 9,8 °C 10,7 °C 0,0 km/h (0 Bft)
02.10.2019 04:27 10,7 °C 94 % 1003,2 hPa 0,0 mm 0,0 km/h (0 Bft) SW 217 ° 0 min 0,000 mm 0,0 UV-I 0 W/m² 9,8 °C 10,7 °C 0,0 km/h (0 Bft)
02.10.2019 04:28 10,7 °C 94 % 1003,2 hPa 0,0 mm 0,0 km/h (0 Bft) SW 217 ° 0 min 0,000 mm 0,0 UV-I 0 W/m² 9,8 °C 10,7 °C 0,0 km/h (0 Bft)
02.10.2019 04:29 10,7 °C 94 % 1003,2 hPa 0,0 mm 0,0 km/h (0 Bft) SW 217 ° 0 min 0,000 mm 0,0 UV-I 0 W/m² 9,8 °C 10,7 °C 0,0 km/h (0 Bft)
02.10.2019 04:30 10,7 °C 94 % 1003,1 hPa 0,0 mm 0,0 km/h (0 Bft) SW 217 ° 0 min 0,000 mm 0,0 UV-I 0 W/m² 9,8 °C 10,7 °C 0,0 km/h (0 Bft)
02.10.2019 04:31 10,7 °C 94 % 1003,1 hPa 0,0 mm 0,0 km/h (0 Bft) SW 217 ° 0 min 0,000 mm 0,0 UV-I 0 W/m² 9,8 °C 10,7 °C 0,0 km/h (0 Bft)
02.10.2019 04:32 10,6 °C 94 % 1003,1 hPa 0,0 mm 0,0 km/h (0 Bft) SW 217 ° 0 min 0,000 mm 0,0 UV-I 0 W/m² 9,7 °C 10,6 °C 0,0 km/h (0 Bft)
02.10.2019 04:33 10,6 °C 94 % 1003,1 hPa 0,0 mm 0,0 km/h (0 Bft) SW 217 ° 0 min 0,000 mm 0,0 UV-I 0 W/m² 9,7 °C 10,6 °C 0,0 km/h (0 Bft)
02.10.2019 04:34 10,6 °C 94 % 1003,1 hPa 0,0 mm 0,0 km/h (0 Bft) SW 217 ° 0 min 0,000 mm 0,0 UV-I 0 W/m² 9,7 °C 10,6 °C 0,0 km/h (0 Bft)
02.10.2019 04:35 10,6 °C 94 % 1003,1 hPa 0,0 mm 0,0 km/h (0 Bft) SW 217 ° 0 min 0,000 mm 0,0 UV-I 0 W/m² 9,7 °C 10,6 °C 0,0 km/h (0 Bft)
02.10.2019 04:36 10,6 °C 94 % 1003,1 hPa 0,0 mm 0,0 km/h (0 Bft) SW 217 ° 0 min 0,000 mm 0,0 UV-I 0 W/m² 9,7 °C 10,6 °C 0,0 km/h (0 Bft)
02.10.2019 04:37 10,6 °C 94 % 1003,1 hPa 0,0 mm 0,0 km/h (0 Bft) SW 217 ° 0 min 0,000 mm 0,0 UV-I 0 W/m² 9,7 °C 10,6 °C 0,0 km/h (0 Bft)
02.10.2019 04:38 10,6 °C 94 % 1003,0 hPa 0,0 mm 0,0 km/h (0 Bft) SW 217 ° 0 min 0,000 mm 0,0 UV-I 0 W/m² 9,7 °C 10,6 °C 0,0 km/h (0 Bft)
02.10.2019 04:39 10,6 °C 94 % 1003,0 hPa 0,0 mm 0,0 km/h (0 Bft) SW 217 ° 0 min 0,000 mm 0,0 UV-I 0 W/m² 9,7 °C 10,6 °C 0,0 km/h (0 Bft)
02.10.2019 04:40 10,6 °C 94 % 1003,1 hPa 0,0 mm 0,0 km/h (0 Bft) SW 217 ° 0 min 0,000 mm 0,0 UV-I 0 W/m² 9,7 °C 10,6 °C 0,0 km/h (0 Bft)
02.10.2019 04:41 10,6 °C 94 % 1003,0 hPa 0,0 mm 0,0 km/h (0 Bft) SW 217 ° 0 min 0,000 mm 0,0 UV-I 0 W/m² 9,7 °C 10,6 °C 0,0 km/h (0 Bft)
02.10.2019 04:42 10,6 °C 94 % 1003,0 hPa 0,0 mm 0,0 km/h (0 Bft) SW 217 ° 0 min 0,000 mm 0,0 UV-I 0 W/m² 9,7 °C 10,6 °C 0,0 km/h (0 Bft)
02.10.2019 04:43 10,6 °C 94 % 1003,0 hPa 0,0 mm 0,0 km/h (0 Bft) SW 217 ° 0 min 0,000 mm 0,0 UV-I 0 W/m² 9,7 °C 10,6 °C 0,0 km/h (0 Bft)
02.10.2019 04:44 10,6 °C 94 % 1003,0 hPa 0,0 mm 0,0 km/h (0 Bft) SW 217 ° 0 min 0,000 mm 0,0 UV-I 0 W/m² 9,7 °C 10,6 °C 0,0 km/h (0 Bft)
02.10.2019 04:45 10,6 °C 94 % 1003,0 hPa 0,0 mm 0,0 km/h (0 Bft) SW 217 ° 0 min 0,000 mm 0,0 UV-I 0 W/m² 9,7 °C 10,6 °C 0,0 km/h (0 Bft)
02.10.2019 04:46 10,6 °C 94 % 1002,9 hPa 0,0 mm 0,0 km/h (0 Bft) SW 217 ° 0 min 0,000 mm 0,0 UV-I 0 W/m² 9,7 °C 10,6 °C 0,0 km/h (0 Bft)
02.10.2019 04:47 10,5 °C 94 % 1002,9 hPa 0,0 mm 0,0 km/h (0 Bft) SW 217 ° 0 min 0,000 mm 0,0 UV-I 0 W/m² 9,6 °C 10,5 °C 0,0 km/h (0 Bft)
02.10.2019 04:48 10,5 °C 94 % 1003,0 hPa 0,0 mm 0,0 km/h (0 Bft) SW 217 ° 0 min 0,000 mm 0,0 UV-I 0 W/m² 9,6 °C 10,5 °C 0,0 km/h (0 Bft)
02.10.2019 04:49 10,5 °C 94 % 1003,0 hPa 0,0 mm 0,0 km/h (0 Bft) SW 217 ° 0 min 0,000 mm 0,0 UV-I 0 W/m² 9,6 °C 10,5 °C 0,0 km/h (0 Bft)
02.10.2019 04:50 10,4 °C 94 % 1003,0 hPa 0,0 mm 0,0 km/h (0 Bft) SW 217 ° 0 min 0,000 mm 0,0 UV-I 0 W/m² 9,5 °C 10,4 °C 0,0 km/h (0 Bft)
02.10.2019 04:51 10,4 °C 94 % 1002,9 hPa 0,0 mm 0,0 km/h (0 Bft) SW 217 ° 0 min 0,000 mm 0,0 UV-I 0 W/m² 9,5 °C 10,4 °C 0,0 km/h (0 Bft)
02.10.2019 04:52 10,4 °C 94 % 1003,0 hPa 0,0 mm 0,0 km/h (0 Bft) SW 217 ° 0 min 0,000 mm 0,0 UV-I 0 W/m² 9,5 °C 10,4 °C 0,0 km/h (0 Bft)
02.10.2019 04:53 10,4 °C 94 % 1003,0 hPa 0,0 mm 0,0 km/h (0 Bft) SW 217 ° 0 min 0,000 mm 0,0 UV-I 0 W/m² 9,5 °C 10,4 °C 0,0 km/h (0 Bft)
02.10.2019 04:54 10,4 °C 94 % 1003,0 hPa 0,0 mm 0,0 km/h (0 Bft) SW 217 ° 0 min 0,000 mm 0,0 UV-I 0 W/m² 9,5 °C 10,4 °C 0,0 km/h (0 Bft)
02.10.2019 04:55 10,4 °C 94 % 1003,0 hPa 0,0 mm 0,0 km/h (0 Bft) SW 217 ° 0 min 0,000 mm 0,0 UV-I 0 W/m² 9,5 °C 10,4 °C 0,0 km/h (0 Bft)
02.10.2019 04:56 10,4 °C 94 % 1003,0 hPa 0,0 mm 0,0 km/h (0 Bft) SW 217 ° 0 min 0,000 mm 0,0 UV-I 0 W/m² 9,5 °C 10,4 °C 0,0 km/h (0 Bft)
02.10.2019 04:57 10,4 °C 94 % 1003,0 hPa 0,0 mm 0,0 km/h (0 Bft) SW 217 ° 0 min 0,000 mm 0,0 UV-I 0 W/m² 9,5 °C 10,4 °C 0,0 km/h (0 Bft)
02.10.2019 04:58 10,4 °C 94 % 1003,0 hPa 0,0 mm 1,0 km/h (0 Bft) SW 217 ° 0 min 0,000 mm 0,0 UV-I 0 W/m² 9,5 °C 10,4 °C 3,2 km/h (1 Bft)
02.10.2019 04:59 10,4 °C 94 % 1002,9 hPa 0,0 mm 0,1 km/h (0 Bft) SW 217 ° 0 min 0,000 mm 0,0 UV-I 0 W/m² 9,5 °C 10,4 °C 1,6 km/h (1 Bft)
02.10.2019 05:00 10,4 °C 94 % 1002,9 hPa 0,0 mm 0,1 km/h (0 Bft) SW 217 ° 0 min 0,000 mm 0,0 UV-I 0 W/m² 9,5 °C 10,4 °C 1,6 km/h (1 Bft)
02.10.2019 05:01 10,5 °C 95 % 1003,0 hPa 0,0 mm 0,1 km/h (0 Bft) SW 217 ° 0 min 0,000 mm 0,0 UV-I 0 W/m² 9,7 °C 10,5 °C 1,6 km/h (1 Bft)
02.10.2019 05:02 10,4 °C 94 % 1003,0 hPa 0,0 mm 0,0 km/h (0 Bft) SW 217 ° 0 min 0,000 mm 0,0 UV-I 0 W/m² 9,5 °C 10,4 °C 0,0 km/h (0 Bft)
02.10.2019 05:03 10,5 °C 94 % 1003,0 hPa 0,0 mm 0,0 km/h (0 Bft) SW 217 ° 0 min 0,000 mm 0,0 UV-I 0 W/m² 9,6 °C 10,5 °C 0,0 km/h (0 Bft)
02.10.2019 05:04 10,5 °C 95 % 1002,9 hPa 0,0 mm 0,0 km/h (0 Bft) SW 217 ° 0 min 0,000 mm 0,0 UV-I 0 W/m² 9,7 °C 10,5 °C 0,0 km/h (0 Bft)
02.10.2019 05:05 10,5 °C 94 % 1002,9 hPa 0,0 mm 0,1 km/h (0 Bft) S-SW 211 ° 0 min 0,000 mm 0,0 UV-I 0 W/m² 9,6 °C 10,5 °C 1,6 km/h (1 Bft)
02.10.2019 05:06 10,4 °C 94 % 1002,9 hPa 0,0 mm 0,0 km/h (0 Bft) S-SW 211 ° 0 min 0,000 mm 0,0 UV-I 0 W/m² 9,5 °C 10,4 °C 0,0 km/h (0 Bft)
02.10.2019 05:07 10,4 °C 94 % 1002,9 hPa 0,0 mm 0,0 km/h (0 Bft) S-SW 211 ° 0 min 0,000 mm 0,0 UV-I 0 W/m² 9,5 °C 10,4 °C 0,0 km/h (0 Bft)
02.10.2019 05:08 10,4 °C 95 % 1002,9 hPa 0,0 mm 1,2 km/h (1 Bft) S-SW 211 ° 0 min 0,000 mm 0,0 UV-I 0 W/m² 9,6 °C 10,4 °C 3,2 km/h (1 Bft)
02.10.2019 05:09 10,4 °C 95 % 1002,9 hPa 0,0 mm 0,7 km/h (0 Bft) S-SW 211 ° 0 min 0,000 mm 0,0 UV-I 0 W/m² 9,6 °C 10,4 °C 1,6 km/h (1 Bft)
02.10.2019 05:10 10,4 °C 95 % 1002,9 hPa 0,0 mm 0,0 km/h (0 Bft) S-SW 211 ° 0 min 0,000 mm 0,0 UV-I 0 W/m² 9,6 °C 10,4 °C 0,0 km/h (0 Bft)
02.10.2019 05:11 10,4 °C 95 % 1002,9 hPa 0,0 mm 0,0 km/h (0 Bft) S-SW 211 ° 0 min 0,000 mm 0,0 UV-I 0 W/m² 9,6 °C 10,4 °C 0,0 km/h (0 Bft)
02.10.2019 05:12 10,4 °C 95 % 1002,9 hPa 0,0 mm 0,0 km/h (0 Bft) S-SW 211 ° 0 min 0,000 mm 0,0 UV-I 0 W/m² 9,6 °C 10,4 °C 0,0 km/h (0 Bft)
02.10.2019 05:13 10,4 °C 95 % 1002,9 hPa 0,0 mm 0,0 km/h (0 Bft) S-SW 211 ° 0 min 0,000 mm 0,0 UV-I 0 W/m² 9,6 °C 10,4 °C 0,0 km/h (0 Bft)
02.10.2019 05:14 10,4 °C 95 % 1002,9 hPa 0,0 mm 0,3 km/h (0 Bft) S-SW 213 ° 0 min 0,000 mm 0,0 UV-I 0 W/m² 9,6 °C 10,4 °C 3,2 km/h (1 Bft)
02.10.2019 05:15 10,5 °C 95 % 1002,9 hPa 0,0 mm 1,5 km/h (1 Bft) SW 215 ° 0 min 0,000 mm 0,0 UV-I 0 W/m² 9,7 °C 10,5 °C 3,2 km/h (1 Bft)
02.10.2019 05:16 10,4 °C 95 % 1002,9 hPa 0,0 mm 0,3 km/h (0 Bft) SW 215 ° 0 min 0,000 mm 0,0 UV-I 0 W/m² 9,6 °C 10,4 °C 1,6 km/h (1 Bft)
02.10.2019 05:17 10,4 °C 95 % 1002,9 hPa 0,0 mm 0,1 km/h (0 Bft) SW 215 ° 0 min 0,000 mm 0,0 UV-I 0 W/m² 9,6 °C 10,4 °C 1,6 km/h (1 Bft)
02.10.2019 05:18 10,4 °C 95 % 1002,9 hPa 0,0 mm 0,0 km/h (0 Bft) SW 215 ° 0 min 0,000 mm 0,0 UV-I 0 W/m² 9,6 °C 10,4 °C 0,0 km/h (0 Bft)
02.10.2019 05:19 10,4 °C 95 % 1002,8 hPa 0,0 mm 0,0 km/h (0 Bft) SW 215 ° 0 min 0,000 mm 0,0 UV-I 0 W/m² 9,6 °C 10,4 °C 0,0 km/h (0 Bft)
02.10.2019 05:20 10,4 °C 95 % 1002,8 hPa 0,0 mm 0,0 km/h (0 Bft) SW 215 ° 0 min 0,000 mm 0,0 UV-I 0 W/m² 9,6 °C 10,4 °C 0,0 km/h (0 Bft)
02.10.2019 05:21 10,4 °C 95 % 1002,7 hPa 0,0 mm 0,0 km/h (0 Bft) SW 215 ° 0 min 0,000 mm 0,0 UV-I 0 W/m² 9,6 °C 10,4 °C 0,0 km/h (0 Bft)
02.10.2019 05:22 10,4 °C 95 % 1002,7 hPa 0,0 mm 0,0 km/h (0 Bft) SW 215 ° 0 min 0,000 mm 0,0 UV-I 0 W/m² 9,6 °C 10,4 °C 0,0 km/h (0 Bft)
02.10.2019 05:23 10,4 °C 95 % 1002,7 hPa 0,0 mm 0,0 km/h (0 Bft) SW 215 ° 0 min 0,000 mm 0,0 UV-I 0 W/m² 9,6 °C 10,4 °C 0,0 km/h (0 Bft)
02.10.2019 05:24 10,4 °C 95 % 1002,7 hPa 0,0 mm 0,0 km/h (0 Bft) SW 215 ° 0 min 0,000 mm 0,0 UV-I 0 W/m² 9,6 °C 10,4 °C 0,0 km/h (0 Bft)
02.10.2019 05:25 10,4 °C 95 % 1002,7 hPa 0,0 mm 0,0 km/h (0 Bft) SW 215 ° 0 min 0,000 mm 0,0 UV-I 0 W/m² 9,6 °C 10,4 °C 0,0 km/h (0 Bft)
02.10.2019 05:26 10,4 °C 95 % 1002,8 hPa 0,0 mm 0,0 km/h (0 Bft) SW 215 ° 0 min 0,000 mm 0,0 UV-I 0 W/m² 9,6 °C 10,4 °C 0,0 km/h (0 Bft)
02.10.2019 05:27 10,4 °C 95 % 1002,7 hPa 0,0 mm 0,0 km/h (0 Bft) SW 215 ° 0 min 0,000 mm 0,0 UV-I 0 W/m² 9,6 °C 10,4 °C 0,0 km/h (0 Bft)
02.10.2019 05:28 10,4 °C 95 % 1002,7 hPa 0,0 mm 0,0 km/h (0 Bft) SW 215 ° 0 min 0,000 mm 0,0 UV-I 0 W/m² 9,6 °C 10,4 °C 0,0 km/h (0 Bft)
02.10.2019 05:29 10,4 °C 95 % 1002,7 hPa 0,0 mm 0,0 km/h (0 Bft) SW 215 ° 0 min 0,000 mm 0,0 UV-I 0 W/m² 9,6 °C 10,4 °C 0,0 km/h (0 Bft)
02.10.2019 05:30 10,4 °C 95 % 1002,8 hPa 0,0 mm 0,0 km/h (0 Bft) SW 215 ° 0 min 0,000 mm 0,0 UV-I 0 W/m² 9,6 °C 10,4 °C 0,0 km/h (0 Bft)
02.10.2019 05:31 10,4 °C 95 % 1002,8 hPa 0,0 mm 0,0 km/h (0 Bft) SW 215 ° 0 min 0,000 mm 0,0 UV-I 0 W/m² 9,6 °C 10,4 °C 0,0 km/h (0 Bft)
02.10.2019 05:32 10,4 °C 95 % 1002,7 hPa 0,0 mm 0,0 km/h (0 Bft) SW 215 ° 0 min 0,000 mm 0,0 UV-I 0 W/m² 9,6 °C 10,4 °C 0,0 km/h (0 Bft)
02.10.2019 05:33 10,4 °C 95 % 1002,7 hPa 0,0 mm 0,3 km/h (0 Bft) SW 215 ° 0 min 0,000 mm 0,0 UV-I 0 W/m² 9,6 °C 10,4 °C 1,6 km/h (1 Bft)
02.10.2019 05:34 10,4 °C 95 % 1002,7 hPa 0,0 mm 0,1 km/h (0 Bft) SW 215 ° 0 min 0,000 mm 0,0 UV-I 0 W/m² 9,6 °C 10,4 °C 1,6 km/h (1 Bft)
02.10.2019 05:35 10,4 °C 95 % 1002,6 hPa 0,0 mm 0,0 km/h (0 Bft) SW 215 ° 0 min 0,000 mm 0,0 UV-I 0 W/m² 9,6 °C 10,4 °C 0,0 km/h (0 Bft)
02.10.2019 05:36 10,4 °C 95 % 1002,7 hPa 0,0 mm 0,0 km/h (0 Bft) SW 215 ° 0 min 0,000 mm 0,0 UV-I 0 W/m² 9,6 °C 10,4 °C 0,0 km/h (0 Bft)
02.10.2019 05:37 10,4 °C 95 % 1002,7 hPa 0,0 mm 0,0 km/h (0 Bft) SW 215 ° 0 min 0,000 mm 0,0 UV-I 0 W/m² 9,6 °C 10,4 °C 0,0 km/h (0 Bft)
02.10.2019 05:38 10,4 °C 95 % 1002,6 hPa 0,0 mm 0,0 km/h (0 Bft) SW 215 ° 0 min 0,000 mm 0,0 UV-I 0 W/m² 9,6 °C 10,4 °C 0,0 km/h (0 Bft)
02.10.2019 05:39 10,4 °C 95 % 1002,6 hPa 0,0 mm 0,0 km/h (0 Bft) SW 215 ° 0 min 0,000 mm 0,0 UV-I 0 W/m² 9,6 °C 10,4 °C 0,0 km/h (0 Bft)
02.10.2019 05:40 10,4 °C 95 % 1002,7 hPa 0,0 mm 0,0 km/h (0 Bft) SW 215 ° 0 min 0,000 mm 0,0 UV-I 0 W/m² 9,6 °C 10,4 °C 0,0 km/h (0 Bft)
02.10.2019 05:41 10,4 °C 95 % 1002,7 hPa 0,0 mm 0,0 km/h (0 Bft) SW 215 ° 0 min 0,000 mm 0,0 UV-I 0 W/m² 9,6 °C 10,4 °C 0,0 km/h (0 Bft)
02.10.2019 05:42 10,4 °C 95 % 1002,6 hPa 0,0 mm 0,0 km/h (0 Bft) SW 215 ° 0 min 0,000 mm 0,0 UV-I 0 W/m² 9,6 °C 10,4 °C 0,0 km/h (0 Bft)
02.10.2019 05:43 10,3 °C 95 % 1002,6 hPa 0,0 mm 0,0 km/h (0 Bft) SW 215 ° 0 min 0,000 mm 0,0 UV-I 0 W/m² 9,5 °C 10,3 °C 0,0 km/h (0 Bft)
02.10.2019 05:44 10,4 °C 95 % 1002,6 hPa 0,0 mm 0,0 km/h (0 Bft) SW 215 ° 0 min 0,000 mm 0,0 UV-I 0 W/m² 9,6 °C 10,4 °C 0,0 km/h (0 Bft)
02.10.2019 05:45 10,3 °C 95 % 1002,6 hPa 0,0 mm 0,0 km/h (0 Bft) SW 215 ° 0 min 0,000 mm 0,0 UV-I 0 W/m² 9,5 °C 10,3 °C 0,0 km/h (0 Bft)
02.10.2019 05:46 10,3 °C 95 % 1002,6 hPa 0,0 mm 0,0 km/h (0 Bft) SW 215 ° 0 min 0,000 mm 0,0 UV-I 0 W/m² 9,5 °C 10,3 °C 0,0 km/h (0 Bft)
02.10.2019 05:47 10,3 °C 95 % 1002,6 hPa 0,0 mm 0,0 km/h (0 Bft) SW 215 ° 0 min 0,000 mm 0,0 UV-I 0 W/m² 9,5 °C 10,3 °C 0,0 km/h (0 Bft)
02.10.2019 05:48 10,4 °C 95 % 1002,5 hPa 0,0 mm 0,0 km/h (0 Bft) SW 215 ° 0 min 0,000 mm 0,0 UV-I 0 W/m² 9,6 °C 10,4 °C 0,0 km/h (0 Bft)
02.10.2019 05:49 10,3 °C 95 % 1002,6 hPa 0,0 mm 0,0 km/h (0 Bft) SW 215 ° 0 min 0,000 mm 0,0 UV-I 0 W/m² 9,5 °C 10,3 °C 0,0 km/h (0 Bft)
02.10.2019 05:50 10,3 °C 95 % 1002,5 hPa 0,0 mm 0,0 km/h (0 Bft) SW 215 ° 0 min 0,000 mm 0,0 UV-I 0 W/m² 9,5 °C 10,3 °C 0,0 km/h (0 Bft)
02.10.2019 05:51 10,4 °C 95 % 1002,5 hPa 0,0 mm 0,0 km/h (0 Bft) SW 215 ° 0 min 0,000 mm 0,0 UV-I 0 W/m² 9,6 °C 10,4 °C 0,0 km/h (0 Bft)
02.10.2019 05:52 10,4 °C 95 % 1002,5 hPa 0,0 mm 0,0 km/h (0 Bft) SW 215 ° 0 min 0,000 mm 0,0 UV-I 0 W/m² 9,6 °C 10,4 °C 0,0 km/h (0 Bft)
02.10.2019 05:53 10,4 °C 95 % 1002,5 hPa 0,0 mm 0,0 km/h (0 Bft) SW 215 ° 0 min 0,000 mm 0,0 UV-I 0 W/m² 9,6 °C 10,4 °C 0,0 km/h (0 Bft)
02.10.2019 05:54 10,4 °C 95 % 1002,5 hPa 0,0 mm 0,0 km/h (0 Bft) SW 215 ° 0 min 0,000 mm 0,0 UV-I 0 W/m² 9,6 °C 10,4 °C 0,0 km/h (0 Bft)
02.10.2019 05:55 10,4 °C 95 % 1002,5 hPa 0,0 mm 0,0 km/h (0 Bft) SW 215 ° 0 min 0,000 mm 0,0 UV-I 0 W/m² 9,6 °C 10,4 °C 0,0 km/h (0 Bft)
02.10.2019 05:56 10,4 °C 95 % 1002,5 hPa 0,0 mm 0,0 km/h (0 Bft) SW 215 ° 0 min 0,000 mm 0,0 UV-I 0 W/m² 9,6 °C 10,4 °C 0,0 km/h (0 Bft)
02.10.2019 05:57 10,4 °C 95 % 1002,5 hPa 0,0 mm 0,9 km/h (0 Bft) SW 215 ° 0 min 0,000 mm 0,0 UV-I 0 W/m² 9,6 °C 10,4 °C 3,2 km/h (1 Bft)
02.10.2019 05:58 10,4 °C 95 % 1002,5 hPa 0,0 mm 1,4 km/h (1 Bft) SW 215 ° 0 min 0,000 mm 0,0 UV-I 0 W/m² 9,6 °C 10,4 °C 3,2 km/h (1 Bft)
02.10.2019 05:59 10,4 °C 95 % 1002,5 hPa 0,0 mm 0,1 km/h (0 Bft) SW 215 ° 0 min 0,000 mm 0,0 UV-I 0 W/m² 9,6 °C 10,4 °C 1,6 km/h (1 Bft)
02.10.2019 06:00 10,4 °C 95 % 1002,5 hPa 0,0 mm 0,0 km/h (0 Bft) SW 215 ° 0 min 0,000 mm 0,0 UV-I 0 W/m² 9,6 °C 10,4 °C 0,0 km/h (0 Bft)
02.10.2019 06:01 10,4 °C 95 % 1002,4 hPa 0,0 mm 0,0 km/h (0 Bft) SW 215 ° 0 min 0,000 mm 0,0 UV-I 0 W/m² 9,6 °C 10,4 °C 0,0 km/h (0 Bft)
02.10.2019 06:02 10,4 °C 95 % 1002,4 hPa 0,0 mm 0,0 km/h (0 Bft) SW 215 ° 0 min 0,000 mm 0,0 UV-I 0 W/m² 9,6 °C 10,4 °C 0,0 km/h (0 Bft)
02.10.2019 06:03 10,4 °C 95 % 1002,4 hPa 0,0 mm 0,0 km/h (0 Bft) SW 215 ° 0 min 0,000 mm 0,0 UV-I 0 W/m² 9,6 °C 10,4 °C 0,0 km/h (0 Bft)
02.10.2019 06:04 10,4 °C 95 % 1002,4 hPa 0,0 mm 0,0 km/h (0 Bft) SW 215 ° 0 min 0,000 mm 0,0 UV-I 0 W/m² 9,6 °C 10,4 °C 0,0 km/h (0 Bft)
02.10.2019 06:05 10,4 °C 95 % 1002,4 hPa 0,0 mm 0,0 km/h (0 Bft) SW 215 ° 0 min 0,000 mm 0,0 UV-I 0 W/m² 9,6 °C 10,4 °C 0,0 km/h (0 Bft)
02.10.2019 06:06 10,4 °C 95 % 1002,4 hPa 0,0 mm 0,0 km/h (0 Bft) SW 215 ° 0 min 0,000 mm 0,0 UV-I 0 W/m² 9,6 °C 10,4 °C 0,0 km/h (0 Bft)
02.10.2019 06:07 10,4 °C 95 % 1002,4 hPa 0,0 mm 0,0 km/h (0 Bft) SW 215 ° 0 min 0,000 mm 0,0 UV-I 0 W/m² 9,6 °C 10,4 °C 0,0 km/h (0 Bft)
02.10.2019 06:08 10,4 °C 95 % 1002,4 hPa 0,0 mm 0,0 km/h (0 Bft) SW 215 ° 0 min 0,000 mm 0,0 UV-I 0 W/m² 9,6 °C 10,4 °C 0,0 km/h (0 Bft)
02.10.2019 06:09 10,4 °C 95 % 1002,4 hPa 0,0 mm 0,0 km/h (0 Bft) SW 215 ° 0 min 0,000 mm 0,0 UV-I 0 W/m² 9,6 °C 10,4 °C 0,0 km/h (0 Bft)
02.10.2019 06:10 10,4 °C 95 % 1002,3 hPa 0,0 mm 0,0 km/h (0 Bft) SW 215 ° 0 min 0,000 mm 0,0 UV-I 0 W/m² 9,6 °C 10,4 °C 0,0 km/h (0 Bft)
02.10.2019 06:11 10,3 °C 95 % 1002,3 hPa 0,0 mm 0,0 km/h (0 Bft) SW 215 ° 0 min 0,000 mm 0,0 UV-I 0 W/m² 9,5 °C 10,3 °C 0,0 km/h (0 Bft)
02.10.2019 06:12 10,3 °C 95 % 1002,4 hPa 0,0 mm 0,0 km/h (0 Bft) SW 215 ° 0 min 0,000 mm 0,0 UV-I 0 W/m² 9,5 °C 10,3 °C 0,0 km/h (0 Bft)
02.10.2019 06:13 10,3 °C 95 % 1002,4 hPa 0,0 mm 0,0 km/h (0 Bft) SW 215 ° 0 min 0,000 mm 0,0 UV-I 0 W/m² 9,5 °C 10,3 °C 0,0 km/h (0 Bft)
02.10.2019 06:14 10,3 °C 95 % 1002,3 hPa 0,0 mm 0,0 km/h (0 Bft) SW 215 ° 0 min 0,000 mm 0,0 UV-I 0 W/m² 9,5 °C 10,3 °C 0,0 km/h (0 Bft)
02.10.2019 06:15 10,3 °C 95 % 1002,4 hPa 0,0 mm 0,0 km/h (0 Bft) SW 215 ° 0 min 0,000 mm 0,0 UV-I 0 W/m² 9,5 °C 10,3 °C 0,0 km/h (0 Bft)
02.10.2019 06:16 10,3 °C 95 % 1002,3 hPa 0,0 mm 0,0 km/h (0 Bft) SW 215 ° 0 min 0,000 mm 0,0 UV-I 0 W/m² 9,5 °C 10,3 °C 0,0 km/h (0 Bft)
02.10.2019 06:17 10,3 °C 95 % 1002,3 hPa 0,0 mm 0,0 km/h (0 Bft) SW 215 ° 0 min 0,000 mm 0,0 UV-I 0 W/m² 9,5 °C 10,3 °C 0,0 km/h (0 Bft)
02.10.2019 06:18 10,3 °C 95 % 1002,3 hPa 0,0 mm 0,0 km/h (0 Bft) SW 215 ° 0 min 0,000 mm 0,0 UV-I 0 W/m² 9,5 °C 10,3 °C 0,0 km/h (0 Bft)
02.10.2019 06:19 10,3 °C 95 % 1002,3 hPa 0,0 mm 0,0 km/h (0 Bft) SW 215 ° 0 min 0,000 mm 0,0 UV-I 0 W/m² 9,5 °C 10,3 °C 0,0 km/h (0 Bft)
02.10.2019 06:20 10,3 °C 95 % 1002,4 hPa 0,0 mm 0,0 km/h (0 Bft) SW 215 ° 0 min 0,000 mm 0,0 UV-I 0 W/m² 9,5 °C 10,3 °C 0,0 km/h (0 Bft)
02.10.2019 06:21 10,3 °C 95 % 1002,4 hPa 0,0 mm 0,0 km/h (0 Bft) SW 215 ° 0 min 0,000 mm 0,0 UV-I 0 W/m² 9,5 °C 10,3 °C 0,0 km/h (0 Bft)
02.10.2019 06:22 10,3 °C 95 % 1002,3 hPa 0,0 mm 0,0 km/h (0 Bft) SW 215 ° 0 min 0,000 mm 0,0 UV-I 0 W/m² 9,5 °C 10,3 °C 0,0 km/h (0 Bft)
02.10.2019 06:23 10,3 °C 95 % 1002,4 hPa 0,0 mm 0,0 km/h (0 Bft) SW 215 ° 0 min 0,000 mm 0,0 UV-I 0 W/m² 9,5 °C 10,3 °C 0,0 km/h (0 Bft)
02.10.2019 06:24 10,3 °C 95 % 1002,4 hPa 0,0 mm 0,0 km/h (0 Bft) SW 215 ° 0 min 0,000 mm 0,0 UV-I 0 W/m² 9,5 °C 10,3 °C 0,0 km/h (0 Bft)
02.10.2019 06:25 10,3 °C 95 % 1002,4 hPa 0,0 mm 0,0 km/h (0 Bft) SW 215 ° 0 min 0,000 mm 0,0 UV-I 0 W/m² 9,5 °C 10,3 °C 0,0 km/h (0 Bft)
02.10.2019 06:26 10,2 °C 95 % 1002,4 hPa 0,0 mm 0,0 km/h (0 Bft) SW 215 ° 0 min 0,000 mm 0,0 UV-I 0 W/m² 9,4 °C 10,2 °C 0,0 km/h (0 Bft)
02.10.2019 06:27 10,2 °C 95 % 1002,4 hPa 0,0 mm 0,0 km/h (0 Bft) SW 215 ° 0 min 0,000 mm 0,0 UV-I 0 W/m² 9,4 °C 10,2 °C 0,0 km/h (0 Bft)
02.10.2019 06:28 10,2 °C 95 % 1002,4 hPa 0,0 mm 0,0 km/h (0 Bft) SW 215 ° 0 min 0,000 mm 0,0 UV-I 0 W/m² 9,4 °C 10,2 °C 0,0 km/h (0 Bft)
02.10.2019 06:29 10,3 °C 95 % 1002,4 hPa 0,0 mm 0,0 km/h (0 Bft) SW 215 ° 0 min 0,000 mm 0,0 UV-I 0 W/m² 9,5 °C 10,3 °C 0,0 km/h (0 Bft)
02.10.2019 06:30 10,3 °C 95 % 1002,4 hPa 0,0 mm 0,9 km/h (0 Bft) S-SO 165 ° 0 min 0,000 mm 0,0 UV-I 0 W/m² 9,5 °C 10,3 °C 6,4 km/h (2 Bft)
02.10.2019 06:31 10,3 °C 95 % 1002,4 hPa 0,0 mm 4,7 km/h (1 Bft) S-SO 158 ° 0 min 0,000 mm 0,0 UV-I 0 W/m² 9,5 °C 10,3 °C 8,0 km/h (2 Bft)
02.10.2019 06:32 10,3 °C 95 % 1002,5 hPa 0,0 mm 0,2 km/h (0 Bft) S-SO 158 ° 0 min 0,000 mm 0,0 UV-I 0 W/m² 9,5 °C 10,3 °C 1,6 km/h (1 Bft)
02.10.2019 06:33 10,3 °C 95 % 1002,5 hPa 0,0 mm 1,5 km/h (1 Bft) S-SO 158 ° 0 min 0,000 mm 0,0 UV-I 0 W/m² 9,5 °C 10,3 °C 3,2 km/h (1 Bft)
02.10.2019 06:34 10,3 °C 95 % 1002,5 hPa 0,0 mm 1,6 km/h (1 Bft) NW 323 ° 0 min 0,000 mm 0,0 UV-I 0 W/m² 9,5 °C 10,3 °C 3,2 km/h (1 Bft)
02.10.2019 06:35 10,3 °C 95 % 1002,5 hPa 0,0 mm 0,3 km/h (0 Bft) NW 323 ° 0 min 0,000 mm 0,0 UV-I 0 W/m² 9,5 °C 10,3 °C 1,6 km/h (1 Bft)
02.10.2019 06:36 10,3 °C 95 % 1002,5 hPa 0,0 mm 0,0 km/h (0 Bft) NW 323 ° 0 min 0,000 mm 0,0 UV-I 0 W/m² 9,5 °C 10,3 °C 0,0 km/h (0 Bft)
02.10.2019 06:37 10,3 °C 95 % 1002,5 hPa 0,0 mm 0,0 km/h (0 Bft) NW 323 ° 0 min 0,000 mm 0,0 UV-I 0 W/m² 9,5 °C 10,3 °C 0,0 km/h (0 Bft)
02.10.2019 06:38 10,3 °C 95 % 1002,5 hPa 0,0 mm 0,0 km/h (0 Bft) NW 323 ° 0 min 0,000 mm 0,0 UV-I 0 W/m² 9,5 °C 10,3 °C 0,0 km/h (0 Bft)
02.10.2019 06:39 10,3 °C 95 % 1002,5 hPa 0,0 mm 0,0 km/h (0 Bft) NW 323 ° 0 min 0,000 mm 0,0 UV-I 0 W/m² 9,5 °C 10,3 °C 0,0 km/h (0 Bft)
02.10.2019 06:40 10,3 °C 95 % 1002,5 hPa 0,0 mm 0,0 km/h (0 Bft) NW 323 ° 0 min 0,000 mm 0,0 UV-I 0 W/m² 9,5 °C 10,3 °C 0,0 km/h (0 Bft)
02.10.2019 06:41 10,3 °C 95 % 1002,5 hPa 0,0 mm 3,4 km/h (1 Bft) S 171 ° 0 min 0,000 mm 0,0 UV-I 0 W/m² 9,5 °C 10,3 °C 6,4 km/h (2 Bft)
02.10.2019 06:42 10,3 °C 95 % 1002,5 hPa 0,0 mm 2,5 km/h (1 Bft) S 171 ° 0 min 0,000 mm 0,0 UV-I 0 W/m² 9,5 °C 10,3 °C 6,4 km/h (2 Bft)
02.10.2019 06:43 10,3 °C 95 % 1002,5 hPa 0,0 mm 1,8 km/h (1 Bft) S 170 ° 0 min 0,000 mm 0,0 UV-I 0 W/m² 9,5 °C 10,3 °C 3,2 km/h (1 Bft)
02.10.2019 06:44 10,3 °C 95 % 1002,5 hPa 0,0 mm 0,1 km/h (0 Bft) S 170 ° 0 min 0,000 mm 0,0 UV-I 0 W/m² 9,5 °C 10,3 °C 1,6 km/h (1 Bft)
02.10.2019 06:45 10,4 °C 95 % 1002,6 hPa 0,0 mm 0,4 km/h (0 Bft) S 171 ° 0 min 0,000 mm 0,0 UV-I 0 W/m² 9,6 °C 10,4 °C 1,6 km/h (1 Bft)
02.10.2019 06:46 10,4 °C 95 % 1002,6 hPa 0,0 mm 0,0 km/h (0 Bft) S 171 ° 0 min 0,000 mm 0,0 UV-I 0 W/m² 9,6 °C 10,4 °C 0,0 km/h (0 Bft)
02.10.2019 06:47 10,4 °C 95 % 1002,6 hPa 0,0 mm 1,0 km/h (0 Bft) S 171 ° 0 min 0,000 mm 0,0 UV-I 0 W/m² 9,6 °C 10,4 °C 1,6 km/h (1 Bft)
02.10.2019 06:48 10,4 °C 95 % 1002,7 hPa 0,0 mm 1,7 km/h (1 Bft) S 171 ° 0 min 0,000 mm 0,0 UV-I 0 W/m² 9,6 °C 10,4 °C 3,2 km/h (1 Bft)
02.10.2019 06:49 10,4 °C 95 % 1002,7 hPa 0,0 mm 0,9 km/h (0 Bft) S 171 ° 0 min 0,000 mm 0,0 UV-I 0 W/m² 9,6 °C 10,4 °C 1,6 km/h (1 Bft)
02.10.2019 06:50 10,4 °C 95 % 1002,6 hPa 0,0 mm 0,0 km/h (0 Bft) S 171 ° 0 min 0,000 mm 0,0 UV-I 0 W/m² 9,6 °C 10,4 °C 0,0 km/h (0 Bft)
02.10.2019 06:51 10,4 °C 95 % 1002,6 hPa 0,0 mm 0,0 km/h (0 Bft) S 171 ° 0 min 0,000 mm 0,0 UV-I 0 W/m² 9,6 °C 10,4 °C 0,0 km/h (0 Bft)
02.10.2019 06:52 10,4 °C 95 % 1002,6 hPa 0,0 mm 3,2 km/h (1 Bft) S 183 ° 0 min 0,000 mm 0,0 UV-I 0 W/m² 9,6 °C 10,4 °C 6,4 km/h (2 Bft)
02.10.2019 06:53 10,4 °C 95 % 1002,7 hPa 0,0 mm 3,5 km/h (1 Bft) S 185 ° 0 min 0,000 mm 0,0 UV-I 0 W/m² 9,6 °C 10,4 °C 6,4 km/h (2 Bft)
02.10.2019 06:54 10,4 °C 95 % 1002,7 hPa 0,0 mm 4,6 km/h (1 Bft) S-SW 205 ° 0 min 0,000 mm 0,0 UV-I 0 W/m² 9,6 °C 10,4 °C 6,4 km/h (2 Bft)
02.10.2019 06:55 10,4 °C 95 % 1002,7 hPa 0,0 mm 2,8 km/h (1 Bft) S-SW 205 ° 0 min 0,000 mm 0,0 UV-I 0 W/m² 9,6 °C 10,4 °C 6,4 km/h (2 Bft)
02.10.2019 06:56 10,4 °C 95 % 1002,7 hPa 0,0 mm 3,8 km/h (1 Bft) S 186 ° 0 min 0,000 mm 0,0 UV-I 0 W/m² 9,6 °C 10,4 °C 8,0 km/h (2 Bft)
02.10.2019 06:57 10,4 °C 95 % 1002,7 hPa 0,0 mm 4,5 km/h (1 Bft) S 190 ° 0 min 0,000 mm 0,0 UV-I 0 W/m² 9,6 °C 10,4 °C 6,4 km/h (2 Bft)
02.10.2019 06:58 10,4 °C 95 % 1002,8 hPa 0,0 mm 3,3 km/h (1 Bft) S-SW 203 ° 0 min 0,000 mm 0,0 UV-I 0 W/m² 9,6 °C 10,4 °C 4,8 km/h (1 Bft)
02.10.2019 06:59 10,4 °C 95 % 1002,8 hPa 0,0 mm 0,9 km/h (0 Bft) S-SW 204 ° 0 min 0,000 mm 0,0 UV-I 0 W/m² 9,6 °C 10,4 °C 3,2 km/h (1 Bft)
02.10.2019 07:00 10,4 °C 95 % 1002,8 hPa 0,0 mm 2,1 km/h (1 Bft) S-SW 204 ° 0 min 0,000 mm 0,0 UV-I 0 W/m² 9,6 °C 10,4 °C 3,2 km/h (1 Bft)
02.10.2019 07:01 10,4 °C 95 % 1002,8 hPa 0,0 mm 6,3 km/h (2 Bft) W-SW 250 ° 0 min 0,000 mm 0,0 UV-I 0 W/m² 9,6 °C 10,4 °C 14,5 km/h (3 Bft)
02.10.2019 07:02 10,5 °C 95 % 1002,8 hPa 0,0 mm 8,3 km/h (2 Bft) W-SW 238 ° 0 min 0,000 mm 0,0 UV-I 0 W/m² 9,7 °C 10,5 °C 16,1 km/h (3 Bft)
02.10.2019 07:03 10,5 °C 95 % 1002,8 hPa 0,0 mm 2,8 km/h (1 Bft) W-SW 237 ° 0 min 0,000 mm 0,0 UV-I 0 W/m² 9,7 °C 10,5 °C 4,8 km/h (1 Bft)
02.10.2019 07:04 10,6 °C 95 % 1002,8 hPa 0,0 mm 6,6 km/h (2 Bft) W 267 ° 0 min 0,000 mm 0,0 UV-I 0 W/m² 9,8 °C 10,6 °C 16,1 km/h (3 Bft)
02.10.2019 07:05 10,6 °C 95 % 1002,8 hPa 0,0 mm 6,6 km/h (2 Bft) W-SW 244 ° 0 min 0,000 mm 0,0 UV-I 0 W/m² 9,8 °C 10,6 °C 11,3 km/h (2 Bft)
02.10.2019 07:06 10,6 °C 95 % 1002,8 hPa 0,0 mm 5,1 km/h (1 Bft) W-SW 244 ° 0 min 0,000 mm 0,0 UV-I 0 W/m² 9,8 °C 10,6 °C 8,0 km/h (2 Bft)
02.10.2019 07:07 10,6 °C 95 % 1002,8 hPa 0,0 mm 4,6 km/h (1 Bft) W-SW 237 ° 0 min 0,000 mm 0,0 UV-I 0 W/m² 9,8 °C 10,6 °C 6,4 km/h (2 Bft)
02.10.2019 07:08 10,6 °C 95 % 1002,8 hPa 0,0 mm 1,1 km/h (1 Bft) SW 236 ° 0 min 0,000 mm 0,0 UV-I 0 W/m² 9,8 °C 10,6 °C 1,6 km/h (1 Bft)
02.10.2019 07:09 10,7 °C 95 % 1002,9 hPa 0,0 mm 1,4 km/h (1 Bft) W-SW 237 ° 0 min 0,000 mm 0,0 UV-I 0 W/m² 9,9 °C 10,7 °C 3,2 km/h (1 Bft)
02.10.2019 07:10 10,7 °C 95 % 1002,8 hPa 0,0 mm 1,7 km/h (1 Bft) W-SW 238 ° 0 min 0,000 mm 0,0 UV-I 0 W/m² 9,9 °C 10,7 °C 4,8 km/h (1 Bft)
02.10.2019 07:11 10,7 °C 95 % 1002,8 hPa 0,0 mm 4,2 km/h (1 Bft) W 279 ° 0 min 0,000 mm 0,0 UV-I 0 W/m² 9,9 °C 10,7 °C 6,4 km/h (2 Bft)
02.10.2019 07:12 10,7 °C 95 % 1002,9 hPa 0,0 mm 7,7 km/h (2 Bft) W 267 ° 0 min 0,000 mm 0,0 UV-I 0 W/m² 9,9 °C 10,7 °C 14,5 km/h (3 Bft)
02.10.2019 07:13 10,7 °C 95 % 1002,8 hPa 0,0 mm 6,9 km/h (2 Bft) W 265 ° 0 min 0,000 mm 0,0 UV-I 0 W/m² 9,9 °C 10,7 °C 9,7 km/h (2 Bft)
02.10.2019 07:14 10,7 °C 95 % 1002,9 hPa 0,0 mm 3,8 km/h (1 Bft) W-SW 252 ° 0 min 0,000 mm 0,0 UV-I 0 W/m² 9,9 °C 10,7 °C 9,7 km/h (2 Bft)
02.10.2019 07:15 10,7 °C 94 % 1002,9 hPa 0,0 mm 7,2 km/h (2 Bft) W 278 ° 0 min 0,000 mm 0,0 UV-I 0 W/m² 9,8 °C 10,7 °C 14,5 km/h (3 Bft)
02.10.2019 07:16 10,7 °C 94 % 1002,9 hPa 0,0 mm 6,0 km/h (2 Bft) W-SW 252 ° 0 min 0,000 mm 0,0 UV-I 0 W/m² 9,8 °C 10,7 °C 11,3 km/h (2 Bft)
02.10.2019 07:17 10,7 °C 94 % 1002,9 hPa 0,0 mm 7,4 km/h (2 Bft) W-SW 250 ° 0 min 0,000 mm 0,0 UV-I 0 W/m² 9,8 °C 10,7 °C 12,9 km/h (3 Bft)
02.10.2019 07:18 10,7 °C 94 % 1002,9 hPa 0,0 mm 6,9 km/h (2 Bft) W 265 ° 0 min 0,000 mm 0,0 UV-I 0 W/m² 9,8 °C 10,7 °C 12,9 km/h (3 Bft)
02.10.2019 07:19 10,7 °C 94 % 1002,9 hPa 0,0 mm 11,9 km/h (2 Bft) SW 227 ° 0 min 0,000 mm 0,0 UV-I 0 W/m² 9,8 °C 10,7 °C 19,3 km/h (3 Bft)
02.10.2019 07:20 10,7 °C 94 % 1002,9 hPa 0,0 mm 5,0 km/h (1 Bft) N-NW 341 ° 0 min 0,000 mm 0,0 UV-I 0 W/m² 9,8 °C 10,7 °C 9,7 km/h (2 Bft)
02.10.2019 07:21 10,8 °C 94 % 1002,9 hPa 0,0 mm 7,6 km/h (2 Bft) W 261 ° 0 min 0,000 mm 0,0 UV-I 0 W/m² 9,9 °C 10,8 °C 14,5 km/h (3 Bft)
02.10.2019 07:22 10,8 °C 94 % 1002,9 hPa 0,0 mm 9,0 km/h (2 Bft) W-SW 239 ° 0 min 0,000 mm 0,0 UV-I 0 W/m² 9,9 °C 10,8 °C 14,5 km/h (3 Bft)
02.10.2019 07:23 10,8 °C 94 % 1002,9 hPa 0,0 mm 8,6 km/h (2 Bft) W 280 ° 0 min 0,000 mm 0,0 UV-I 0 W/m² 9,9 °C 10,8 °C 16,1 km/h (3 Bft)
02.10.2019 07:24 10,8 °C 94 % 1003,0 hPa 0,0 mm 6,7 km/h (2 Bft) SW 214 ° 0 min 0,000 mm 0,0 UV-I 0 W/m² 9,9 °C 10,8 °C 12,9 km/h (3 Bft)
02.10.2019 07:25 10,8 °C 94 % 1003,0 hPa 0,0 mm 6,4 km/h (2 Bft) W-SW 258 ° 0 min 0,000 mm 0,0 UV-I 0 W/m² 9,9 °C 10,8 °C 12,9 km/h (3 Bft)
02.10.2019 07:26 10,8 °C 94 % 1002,9 hPa 0,0 mm 1,9 km/h (1 Bft) W-SW 238 ° 0 min 0,000 mm 0,0 UV-I 0 W/m² 9,9 °C 10,8 °C 3,2 km/h (1 Bft)
02.10.2019 07:27 10,8 °C 94 % 1003,0 hPa 0,0 mm 4,5 km/h (1 Bft) W 262 ° 0 min 0,000 mm 0,0 UV-I 0 W/m² 9,9 °C 10,8 °C 11,3 km/h (2 Bft)
02.10.2019 07:28 10,8 °C 94 % 1003,0 hPa 0,0 mm 7,9 km/h (2 Bft) W-SW 237 ° 0 min 0,000 mm 0,0 UV-I 0 W/m² 9,9 °C 10,8 °C 14,5 km/h (3 Bft)
02.10.2019 07:29 10,8 °C 94 % 1002,9 hPa 0,0 mm 8,0 km/h (2 Bft) W-SW 241 ° 0 min 0,000 mm 0,0 UV-I 0 W/m² 9,9 °C 10,8 °C 11,3 km/h (2 Bft)
02.10.2019 07:30 10,9 °C 94 % 1003,1 hPa 0,0 mm 6,9 km/h (2 Bft) W 268 ° 0 min 0,000 mm 0,0 UV-I 0 W/m² 10,0 °C 10,9 °C 11,3 km/h (2 Bft)
02.10.2019 07:31 10,8 °C 94 % 1003,1 hPa 0,0 mm 4,0 km/h (1 Bft) SW 231 ° 0 min 0,000 mm 0,0 UV-I 0 W/m² 9,9 °C 10,8 °C 6,4 km/h (2 Bft)
02.10.2019 07:32 10,8 °C 94 % 1003,1 hPa 0,0 mm 8,3 km/h (2 Bft) SW 234 ° 0 min 0,000 mm 0,0 UV-I 0 W/m² 9,9 °C 10,8 °C 14,5 km/h (3 Bft)
02.10.2019 07:33 10,9 °C 94 % 1003,1 hPa 0,0 mm 7,6 km/h (2 Bft) SW 236 ° 0 min 0,000 mm 0,0 UV-I 0 W/m² 10,0 °C 10,9 °C 11,3 km/h (2 Bft)
02.10.2019 07:34 10,9 °C 94 % 1003,1 hPa 0,0 mm 5,9 km/h (2 Bft) SW 234 ° 0 min 0,000 mm 0,0 UV-I 0 W/m² 10,0 °C 10,9 °C 11,3 km/h (2 Bft)
02.10.2019 07:35 10,9 °C 94 % 1003,2 hPa 0,0 mm 4,7 km/h (1 Bft) W 269 ° 0 min 0,000 mm 0,0 UV-I 0 W/m² 10,0 °C 10,9 °C 6,4 km/h (2 Bft)
02.10.2019 07:36 10,9 °C 94 % 1003,2 hPa 0,0 mm 4,4 km/h (1 Bft) W 263 ° 0 min 0,000 mm 0,0 UV-I 0 W/m² 10,0 °C 10,9 °C 9,7 km/h (2 Bft)
02.10.2019 07:37 10,9 °C 94 % 1003,2 hPa 0,0 mm 4,1 km/h (1 Bft) SW 215 ° 0 min 0,000 mm 0,0 UV-I 0 W/m² 10,0 °C 10,9 °C 6,4 km/h (2 Bft)
02.10.2019 07:38 10,8 °C 94 % 1003,3 hPa 0,0 mm 5,4 km/h (1 Bft) W-SW 257 ° 0 min 0,000 mm 0,0 UV-I 0 W/m² 9,9 °C 10,8 °C 8,0 km/h (2 Bft)
02.10.2019 07:39 10,8 °C 94 % 1003,3 hPa 0,0 mm 6,9 km/h (2 Bft) SW 232 ° 0 min 0,000 mm 0,0 UV-I 0 W/m² 9,9 °C 10,8 °C 12,9 km/h (3 Bft)
02.10.2019 07:40 10,8 °C 94 % 1003,3 hPa 0,0 mm 10,6 km/h (2 Bft) W 263 ° 0 min 0,000 mm 0,0 UV-I 0 W/m² 9,9 °C 10,8 °C 17,7 km/h (3 Bft)
02.10.2019 07:41 10,8 °C 94 % 1003,3 hPa 0,0 mm 7,5 km/h (2 Bft) W-NW 293 ° 0 min 0,000 mm 0,0 UV-I 0 W/m² 9,9 °C 10,8 °C 16,1 km/h (3 Bft)
02.10.2019 07:42 10,8 °C 93 % 1003,3 hPa 0,0 mm 4,8 km/h (1 Bft) W-SW 238 ° 0 min 0,000 mm 0,0 UV-I 0 W/m² 9,7 °C 10,8 °C 6,4 km/h (2 Bft)
02.10.2019 07:43 10,8 °C 93 % 1003,3 hPa 0,0 mm 11,2 km/h (2 Bft) W 272 ° 0 min 0,000 mm 0,0 UV-I 0 W/m² 9,7 °C 10,8 °C 24,1 km/h (4 Bft)
02.10.2019 07:44 10,7 °C 93 % 1003,3 hPa 0,0 mm 13,1 km/h (3 Bft) W 269 ° 0 min 0,000 mm 0,0 UV-I 0 W/m² 9,6 °C 10,7 °C 19,3 km/h (3 Bft)
02.10.2019 07:45 10,7 °C 93 % 1003,2 hPa 0,0 mm 9,7 km/h (2 Bft) W-SW 239 ° 0 min 0,000 mm 0,0 UV-I 0 W/m² 9,6 °C 10,7 °C 19,3 km/h (3 Bft)
02.10.2019 07:46 10,7 °C 93 % 1003,3 hPa 0,0 mm 6,7 km/h (2 Bft) W 277 ° 0 min 0,000 mm 0,0 UV-I 0 W/m² 9,6 °C 10,7 °C 11,3 km/h (2 Bft)
02.10.2019 07:47 10,7 °C 93 % 1003,2 hPa 0,0 mm 7,4 km/h (2 Bft) W 279 ° 0 min 0,000 mm 0,0 UV-I 0 W/m² 9,6 °C 10,7 °C 11,3 km/h (2 Bft)
02.10.2019 07:48 10,7 °C 93 % 1003,2 hPa 0,0 mm 5,7 km/h (1 Bft) SW 216 ° 0 min 0,000 mm 0,0 UV-I 0 W/m² 9,6 °C 10,7 °C 8,0 km/h (2 Bft)
02.10.2019 07:49 10,7 °C 93 % 1003,2 hPa 0,0 mm 3,0 km/h (1 Bft) SW 236 ° 0 min 0,000 mm 0,0 UV-I 0 W/m² 9,6 °C 10,7 °C 4,8 km/h (1 Bft)
02.10.2019 07:50 10,7 °C 93 % 1003,2 hPa 0,0 mm 5,7 km/h (1 Bft) W-SW 242 ° 0 min 0,000 mm 0,0 UV-I 0 W/m² 9,6 °C 10,7 °C 11,3 km/h (2 Bft)
02.10.2019 07:51 10,7 °C 93 % 1003,2 hPa 0,0 mm 8,4 km/h (2 Bft) W-NW 292 ° 0 min 0,000 mm 0,0 UV-I 0 W/m² 9,6 °C 10,7 °C 12,9 km/h (3 Bft)
02.10.2019 07:52 10,7 °C 93 % 1003,2 hPa 0,0 mm 4,9 km/h (1 Bft) W 263 ° 0 min 0,000 mm 0,0 UV-I 0 W/m² 9,6 °C 10,7 °C 9,7 km/h (2 Bft)
02.10.2019 07:53 10,7 °C 93 % 1003,2 hPa 0,0 mm 5,4 km/h (1 Bft) W-SW 248 ° 0 min 0,000 mm 0,0 UV-I 0 W/m² 9,6 °C 10,7 °C 11,3 km/h (2 Bft)
02.10.2019 07:54 10,6 °C 93 % 1003,2 hPa 0,0 mm 10,2 km/h (2 Bft) W-NW 285 ° 0 min 0,000 mm 0,0 UV-I 0 W/m² 9,5 °C 10,6 °C 16,1 km/h (3 Bft)
02.10.2019 07:55 10,6 °C 93 % 1003,3 hPa 0,0 mm 11,1 km/h (2 Bft) W 259 ° 0 min 0,000 mm 0,0 UV-I 0 W/m² 9,5 °C 10,6 °C 14,5 km/h (3 Bft)
02.10.2019 07:56 10,6 °C 93 % 1003,3 hPa 0,0 mm 7,6 km/h (2 Bft) W-NW 298 ° 0 min 0,000 mm 0,0 UV-I 0 W/m² 9,5 °C 10,6 °C 12,9 km/h (3 Bft)
02.10.2019 07:57 10,7 °C 93 % 1003,3 hPa 0,0 mm 4,8 km/h (1 Bft) W 265 ° 0 min 0,000 mm 0,0 UV-I 0 W/m² 9,6 °C 10,7 °C 9,7 km/h (2 Bft)
02.10.2019 07:58 10,6 °C 93 % 1003,3 hPa 0,0 mm 9,8 km/h (2 Bft) W-NW 283 ° 0 min 0,000 mm 0,0 UV-I 0 W/m² 9,5 °C 10,6 °C 14,5 km/h (3 Bft)
02.10.2019 07:59 10,6 °C 93 % 1003,3 hPa 0,0 mm 8,0 km/h (2 Bft) W-NW 282 ° 0 min 0,000 mm 0,0 UV-I 0 W/m² 9,5 °C 10,6 °C 11,3 km/h (2 Bft)
02.10.2019 08:00 10,6 °C 93 % 1003,4 hPa 0,0 mm 6,0 km/h (2 Bft) W 277 ° 0 min 0,000 mm 0,0 UV-I 0 W/m² 9,5 °C 10,6 °C 9,7 km/h (2 Bft)
02.10.2019 08:01 10,6 °C 93 % 1003,4 hPa 0,0 mm 5,0 km/h (1 Bft) W-SW 249 ° 0 min 0,000 mm 0,0 UV-I 5 W/m² 9,5 °C 10,6 °C 6,4 km/h (2 Bft)
02.10.2019 08:02 10,6 °C 93 % 1003,4 hPa 0,0 mm 2,1 km/h (1 Bft) W-SW 252 ° 0 min 0,000 mm 0,0 UV-I 5 W/m² 9,5 °C 10,6 °C 3,2 km/h (1 Bft)
02.10.2019 08:03 10,6 °C 93 % 1003,3 hPa 0,0 mm 4,3 km/h (1 Bft) S-SW 198 ° 0 min 0,000 mm 0,0 UV-I 5 W/m² 9,5 °C 10,6 °C 6,4 km/h (2 Bft)
02.10.2019 08:04 10,6 °C 93 % 1003,3 hPa 0,0 mm 4,6 km/h (1 Bft) W 260 ° 0 min 0,000 mm 0,0 UV-I 5 W/m² 9,5 °C 10,6 °C 9,7 km/h (2 Bft)
02.10.2019 08:05 10,6 °C 94 % 1003,3 hPa 0,0 mm 8,1 km/h (2 Bft) SW 221 ° 0 min 0,000 mm 0,0 UV-I 7 W/m² 9,7 °C 10,6 °C 16,1 km/h (3 Bft)
02.10.2019 08:06 10,6 °C 94 % 1003,3 hPa 0,0 mm 5,2 km/h (1 Bft) S-SW 192 ° 0 min 0,000 mm 0,0 UV-I 9 W/m² 9,7 °C 10,6 °C 12,9 km/h (3 Bft)
02.10.2019 08:07 10,6 °C 94 % 1003,3 hPa 0,0 mm 4,5 km/h (1 Bft) W-SW 247 ° 0 min 0,000 mm 0,0 UV-I 12 W/m² 9,7 °C 10,6 °C 8,0 km/h (2 Bft)
02.10.2019 08:08 10,6 °C 94 % 1003,3 hPa 0,0 mm 3,2 km/h (1 Bft) SW 219 ° 0 min 0,000 mm 0,0 UV-I 16 W/m² 9,7 °C 10,6 °C 4,8 km/h (1 Bft)
02.10.2019 08:09 10,6 °C 94 % 1003,3 hPa 0,0 mm 3,7 km/h (1 Bft) W-NW 283 ° 0 min 0,000 mm 0,0 UV-I 16 W/m² 9,7 °C 10,6 °C 6,4 km/h (2 Bft)
02.10.2019 08:10 10,6 °C 94 % 1003,3 hPa 0,0 mm 8,4 km/h (2 Bft) W 267 ° 0 min 0,000 mm 0,0 UV-I 16 W/m² 9,7 °C 10,6 °C 16,1 km/h (3 Bft)
02.10.2019 08:11 10,6 °C 93 % 1003,2 hPa 0,0 mm 13,7 km/h (3 Bft) W 271 ° 0 min 0,000 mm 0,0 UV-I 16 W/m² 9,5 °C 10,6 °C 17,7 km/h (3 Bft)
02.10.2019 08:12 10,7 °C 93 % 1003,3 hPa 0,0 mm 4,9 km/h (1 Bft) SW 223 ° 0 min 0,000 mm 0,0 UV-I 16 W/m² 9,6 °C 10,7 °C 11,3 km/h (2 Bft)
02.10.2019 08:13 10,7 °C 93 % 1003,4 hPa 0,0 mm 8,2 km/h (2 Bft) W 265 ° 0 min 0,000 mm 0,0 UV-I 12 W/m² 9,6 °C 10,7 °C 12,9 km/h (3 Bft)
02.10.2019 08:14 10,7 °C 93 % 1003,4 hPa 0,0 mm 3,7 km/h (1 Bft) W 265 ° 0 min 0,000 mm 0,0 UV-I 11 W/m² 9,6 °C 10,7 °C 8,0 km/h (2 Bft)
02.10.2019 08:15 10,7 °C 93 % 1003,4 hPa 0,0 mm 4,4 km/h (1 Bft) W-SW 249 ° 0 min 0,000 mm 0,0 UV-I 7 W/m² 9,6 °C 10,7 °C 6,4 km/h (2 Bft)
02.10.2019 08:16 10,7 °C 93 % 1003,4 hPa 0,0 mm 6,0 km/h (2 Bft) SW 236 ° 0 min 0,000 mm 0,0 UV-I 7 W/m² 9,6 °C 10,7 °C 12,9 km/h (3 Bft)
02.10.2019 08:17 10,8 °C 93 % 1003,4 hPa 0,0 mm 5,8 km/h (2 Bft) W-NW 291 ° 0 min 0,000 mm 0,0 UV-I 12 W/m² 9,7 °C 10,8 °C 11,3 km/h (2 Bft)
02.10.2019 08:18 10,8 °C 93 % 1003,4 hPa 0,0 mm 3,2 km/h (1 Bft) W 261 ° 0 min 0,000 mm 0,0 UV-I 16 W/m² 9,7 °C 10,8 °C 4,8 km/h (1 Bft)
02.10.2019 08:19 10,8 °C 93 % 1003,4 hPa 0,0 mm 5,4 km/h (1 Bft) W-SW 250 ° 0 min 0,000 mm 0,0 UV-I 18 W/m² 9,7 °C 10,8 °C 9,7 km/h (2 Bft)
02.10.2019 08:20 10,8 °C 93 % 1003,5 hPa 0,0 mm 2,4 km/h (1 Bft) W-SW 250 ° 0 min 0,000 mm 0,0 UV-I 19 W/m² 9,7 °C 10,8 °C 3,2 km/h (1 Bft)
02.10.2019 08:21 10,8 °C 93 % 1003,4 hPa 0,0 mm 1,3 km/h (1 Bft) W-SW 247 ° 0 min 0,000 mm 0,0 UV-I 19 W/m² 9,7 °C 10,8 °C 3,2 km/h (1 Bft)
02.10.2019 08:22 10,8 °C 93 % 1003,4 hPa 0,0 mm 1,5 km/h (1 Bft) W 264 ° 0 min 0,000 mm 0,0 UV-I 19 W/m² 9,7 °C 10,8 °C 6,4 km/h (2 Bft)
02.10.2019 08:23 10,8 °C 93 % 1003,4 hPa 0,0 mm 3,7 km/h (1 Bft) S-SO 161 ° 0 min 0,000 mm 0,0 UV-I 21 W/m² 9,7 °C 10,8 °C 6,4 km/h (2 Bft)
02.10.2019 08:24 10,8 °C 93 % 1003,4 hPa 0,0 mm 6,3 km/h (2 Bft) S 185 ° 0 min 0,000 mm 0,0 UV-I 32 W/m² 9,7 °C 10,8 °C 11,3 km/h (2 Bft)
02.10.2019 08:25 10,8 °C 93 % 1003,4 hPa 0,0 mm 3,8 km/h (1 Bft) W 277 ° 0 min 0,000 mm 0,0 UV-I 35 W/m² 9,7 °C 10,8 °C 8,0 km/h (2 Bft)
02.10.2019 08:26 10,8 °C 93 % 1003,3 hPa 0,0 mm 6,4 km/h (2 Bft) W 267 ° 0 min 0,000 mm 0,0 UV-I 37 W/m² 9,7 °C 10,8 °C 9,7 km/h (2 Bft)
02.10.2019 08:27 10,8 °C 93 % 1003,3 hPa 0,0 mm 6,5 km/h (2 Bft) W 269 ° 0 min 0,000 mm 0,0 UV-I 40 W/m² 9,7 °C 10,8 °C 11,3 km/h (2 Bft)
02.10.2019 08:28 10,8 °C 93 % 1003,3 hPa 0,0 mm 1,7 km/h (1 Bft) W 269 ° 0 min 0,000 mm 0,0 UV-I 44 W/m² 9,7 °C 10,8 °C 3,2 km/h (1 Bft)
02.10.2019 08:29 10,8 °C 93 % 1003,3 hPa 0,0 mm 6,2 km/h (2 Bft) W 263 ° 0 min 0,000 mm 0,0 UV-I 44 W/m² 9,7 °C 10,8 °C 12,9 km/h (3 Bft)
02.10.2019 08:30 10,8 °C 93 % 1003,3 hPa 0,0 mm 5,7 km/h (1 Bft) W 276 ° 0 min 0,000 mm 0,0 UV-I 46 W/m² 9,7 °C 10,8 °C 11,3 km/h (2 Bft)
02.10.2019 08:31 10,8 °C 93 % 1003,3 hPa 0,0 mm 4,9 km/h (1 Bft) SW 228 ° 0 min 0,000 mm 0,0 UV-I 46 W/m² 9,7 °C 10,8 °C 8,0 km/h (2 Bft)
02.10.2019 08:32 10,8 °C 93 % 1003,3 hPa 0,0 mm 4,5 km/h (1 Bft) W 262 ° 0 min 0,000 mm 0,0 UV-I 47 W/m² 9,7 °C 10,8 °C 6,4 km/h (2 Bft)
02.10.2019 08:33 10,9 °C 93 % 1003,3 hPa 0,0 mm 1,4 km/h (1 Bft) SW 228 ° 0 min 0,000 mm 0,0 UV-I 47 W/m² 9,8 °C 10,9 °C 3,2 km/h (1 Bft)
02.10.2019 08:34 10,9 °C 93 % 1003,4 hPa 0,0 mm 5,4 km/h (1 Bft) W 262 ° 0 min 0,000 mm 0,0 UV-I 46 W/m² 9,8 °C 10,9 °C 11,3 km/h (2 Bft)
02.10.2019 08:35 10,8 °C 93 % 1003,4 hPa 0,0 mm 3,9 km/h (1 Bft) W 259 ° 0 min 0,000 mm 0,0 UV-I 46 W/m² 9,7 °C 10,8 °C 6,4 km/h (2 Bft)
02.10.2019 08:36 10,9 °C 93 % 1003,4 hPa 0,0 mm 3,4 km/h (1 Bft) W 260 ° 0 min 0,000 mm 0,0 UV-I 39 W/m² 9,8 °C 10,9 °C 6,4 km/h (2 Bft)
02.10.2019 08:37 10,9 °C 93 % 1003,4 hPa 0,0 mm 2,4 km/h (1 Bft) W 260 ° 0 min 0,000 mm 0,0 UV-I 35 W/m² 9,8 °C 10,9 °C 4,8 km/h (1 Bft)
02.10.2019 08:38 10,9 °C 93 % 1003,4 hPa 0,0 mm 2,9 km/h (1 Bft) W-SW 251 ° 0 min 0,000 mm 0,0 UV-I 33 W/m² 9,8 °C 10,9 °C 4,8 km/h (1 Bft)
02.10.2019 08:39 10,9 °C 93 % 1003,3 hPa 0,0 mm 0,5 km/h (0 Bft) W-SW 251 ° 0 min 0,000 mm 0,0 UV-I 32 W/m² 9,8 °C 10,9 °C 1,6 km/h (1 Bft)
02.10.2019 08:40 10,9 °C 93 % 1003,3 hPa 0,0 mm 1,7 km/h (1 Bft) W-SW 251 ° 0 min 0,000 mm 0,0 UV-I 28 W/m² 9,8 °C 10,9 °C 3,2 km/h (1 Bft)
02.10.2019 08:41 10,9 °C 93 % 1003,4 hPa 0,0 mm 1,0 km/h (0 Bft) W-SW 251 ° 0 min 0,000 mm 0,0 UV-I 25 W/m² 9,8 °C 10,9 °C 3,2 km/h (1 Bft)
02.10.2019 08:42 10,9 °C 93 % 1003,3 hPa 0,0 mm 1,1 km/h (1 Bft) W-SW 252 ° 0 min 0,000 mm 0,0 UV-I 23 W/m² 9,8 °C 10,9 °C 3,2 km/h (1 Bft)
02.10.2019 08:43 10,9 °C 93 % 1003,3 hPa 0,0 mm 0,0 km/h (0 Bft) W-SW 252 ° 0 min 0,000 mm 0,0 UV-I 25 W/m² 9,8 °C 10,9 °C 0,0 km/h (0 Bft)
02.10.2019 08:44 10,9 °C 93 % 1003,4 hPa 0,0 mm 0,1 km/h (0 Bft) W-SW 252 ° 0 min 0,000 mm 0,0 UV-I 28 W/m² 9,8 °C 10,9 °C 1,6 km/h (1 Bft)
02.10.2019 08:45 10,9 °C 93 % 1003,4 hPa 0,0 mm 2,0 km/h (1 Bft) W-SW 249 ° 0 min 0,000 mm 0,0 UV-I 30 W/m² 9,8 °C 10,9 °C 4,8 km/h (1 Bft)
02.10.2019 08:46 10,9 °C 93 % 1003,4 hPa 0,0 mm 1,3 km/h (1 Bft) W-SW 249 ° 0 min 0,000 mm 0,0 UV-I 32 W/m² 9,8 °C 10,9 °C 3,2 km/h (1 Bft)
02.10.2019 08:47 10,8 °C 93 % 1003,4 hPa 0,0 mm 3,4 km/h (1 Bft) W-SW 240 ° 0 min 0,000 mm 0,0 UV-I 35 W/m² 9,7 °C 10,8 °C 6,4 km/h (2 Bft)
02.10.2019 08:48 10,8 °C 93 % 1003,5 hPa 0,0 mm 4,9 km/h (1 Bft) W-SW 251 ° 0 min 0,000 mm 0,0 UV-I 39 W/m² 9,7 °C 10,8 °C 8,0 km/h (2 Bft)
02.10.2019 08:49 10,8 °C 93 % 1003,6 hPa 0,0 mm 1,6 km/h (1 Bft) W-SW 252 ° 0 min 0,000 mm 0,0 UV-I 39 W/m² 9,7 °C 10,8 °C 4,8 km/h (1 Bft)
02.10.2019 08:50 10,8 °C 93 % 1003,5 hPa 0,0 mm 2,4 km/h (1 Bft) W-SW 252 ° 0 min 0,000 mm 0,0 UV-I 37 W/m² 9,7 °C 10,8 °C 3,2 km/h (1 Bft)
02.10.2019 08:51 10,8 °C 93 % 1003,5 hPa 0,0 mm 2,4 km/h (1 Bft) W-SW 252 ° 0 min 0,000 mm 0,0 UV-I 40 W/m² 9,7 °C 10,8 °C 3,2 km/h (1 Bft)
02.10.2019 08:52 10,9 °C 93 % 1003,6 hPa 0,2 mm 2,1 km/h (1 Bft) W-SW 252 ° 0 min 0,000 mm 0,0 UV-I 42 W/m² 9,8 °C 10,9 °C 3,2 km/h (1 Bft)
02.10.2019 08:53 10,9 °C 93 % 1003,6 hPa 0,0 mm 2,9 km/h (1 Bft) W-SW 250 ° 0 min 0,000 mm 0,0 UV-I 46 W/m² 9,8 °C 10,9 °C 4,8 km/h (1 Bft)
02.10.2019 08:54 10,9 °C 93 % 1003,6 hPa 0,0 mm 3,5 km/h (1 Bft) W-SW 241 ° 0 min 0,000 mm 0,0 UV-I 51 W/m² 9,8 °C 10,9 °C 4,8 km/h (1 Bft)
02.10.2019 08:55 10,9 °C 93 % 1003,7 hPa 0,0 mm 4,0 km/h (1 Bft) S 187 ° 0 min 0,000 mm 0,0 UV-I 49 W/m² 9,8 °C 10,9 °C 6,4 km/h (2 Bft)
02.10.2019 08:56 10,9 °C 93 % 1003,6 hPa 0,0 mm 2,4 km/h (1 Bft) S 187 ° 0 min 0,000 mm 0,0 UV-I 49 W/m² 9,8 °C 10,9 °C 3,2 km/h (1 Bft)
02.10.2019 08:57 10,9 °C 93 % 1003,7 hPa 0,0 mm 2,1 km/h (1 Bft) S 186 ° 0 min 0,000 mm 0,0 UV-I 47 W/m² 9,8 °C 10,9 °C 4,8 km/h (1 Bft)
02.10.2019 08:58 10,9 °C 93 % 1003,7 hPa 0,0 mm 1,0 km/h (0 Bft) S 186 ° 0 min 0,000 mm 0,0 UV-I 46 W/m² 9,8 °C 10,9 °C 3,2 km/h (1 Bft)
02.10.2019 08:59 10,9 °C 93 % 1003,6 hPa 0,0 mm 0,0 km/h (0 Bft) S 186 ° 0 min 0,000 mm 0,0 UV-I 60 W/m² 9,8 °C 10,9 °C 0,0 km/h (0 Bft)
02.10.2019 09:00 10,9 °C 93 % 1003,6 hPa 0,0 mm 1,7 km/h (1 Bft) SW 236 ° 0 min 0,000 mm 0,0 UV-I 67 W/m² 9,8 °C 10,9 °C 4,8 km/h (1 Bft)
02.10.2019 09:01 10,9 °C 93 % 1003,6 hPa 0,0 mm 1,8 km/h (1 Bft) SW 236 ° 0 min 0,026 mm 0,0 UV-I 67 W/m² 9,8 °C 10,9 °C 4,8 km/h (1 Bft)
02.10.2019 09:02 10,9 °C 93 % 1003,6 hPa 0,0 mm 1,2 km/h (1 Bft) S-SW 211 ° 0 min 0,000 mm 0,0 UV-I 69 W/m² 9,8 °C 10,9 °C 4,8 km/h (1 Bft)
02.10.2019 09:03 10,9 °C 93 % 1003,6 hPa 0,0 mm 2,1 km/h (1 Bft) S-SW 210 ° 0 min 0,000 mm 0,0 UV-I 67 W/m² 9,8 °C 10,9 °C 4,8 km/h (1 Bft)
02.10.2019 09:04 10,9 °C 93 % 1003,6 hPa 0,0 mm 1,4 km/h (1 Bft) S-SW 210 ° 0 min 0,000 mm 0,0 UV-I 69 W/m² 9,8 °C 10,9 °C 3,2 km/h (1 Bft)
02.10.2019 09:05 10,9 °C 94 % 1003,5 hPa 0,0 mm 0,0 km/h (0 Bft) S-SW 210 ° 0 min 0,000 mm 0,5 UV-I 70 W/m² 10,0 °C 10,9 °C 0,0 km/h (0 Bft)
02.10.2019 09:06 10,9 °C 94 % 1003,6 hPa 0,0 mm 0,0 km/h (0 Bft) S-SW 210 ° 0 min 0,000 mm 0,5 UV-I 70 W/m² 10,0 °C 10,9 °C 0,0 km/h (0 Bft)
02.10.2019 09:07 10,9 °C 94 % 1003,6 hPa 0,0 mm 1,4 km/h (1 Bft) S-SW 210 ° 0 min 0,000 mm 0,0 UV-I 69 W/m² 10,0 °C 10,9 °C 3,2 km/h (1 Bft)
02.10.2019 09:08 10,9 °C 94 % 1003,6 hPa 0,0 mm 0,6 km/h (0 Bft) S-SW 195 ° 0 min 0,000 mm 0,5 UV-I 70 W/m² 10,0 °C 10,9 °C 4,8 km/h (1 Bft)
02.10.2019 09:09 10,9 °C 94 % 1003,6 hPa 0,0 mm 2,6 km/h (1 Bft) S-SW 195 ° 0 min 0,000 mm 0,5 UV-I 70 W/m² 10,0 °C 10,9 °C 4,8 km/h (1 Bft)
02.10.2019 09:10 10,9 °C 94 % 1003,6 hPa 0,0 mm 3,8 km/h (1 Bft) S 187 ° 0 min 0,000 mm 0,5 UV-I 70 W/m² 10,0 °C 10,9 °C 8,0 km/h (2 Bft)
02.10.2019 09:11 10,9 °C 94 % 1003,5 hPa 0,0 mm 0,5 km/h (0 Bft) S 187 ° 0 min 0,000 mm 0,5 UV-I 70 W/m² 10,0 °C 10,9 °C 1,6 km/h (1 Bft)
02.10.2019 09:12 10,9 °C 94 % 1003,5 hPa 0,0 mm 3,8 km/h (1 Bft) S-SO 167 ° 0 min 0,000 mm 0,5 UV-I 70 W/m² 10,0 °C 10,9 °C 6,4 km/h (2 Bft)
02.10.2019 09:13 10,9 °C 94 % 1003,6 hPa 0,0 mm 1,0 km/h (0 Bft) S-SO 168 ° 0 min 0,000 mm 0,5 UV-I 69 W/m² 10,0 °C 10,9 °C 6,4 km/h (2 Bft)
02.10.2019 09:14 10,9 °C 94 % 1003,6 hPa 0,0 mm 0,2 km/h (0 Bft) S-SO 168 ° 0 min 0,000 mm 0,5 UV-I 69 W/m² 10,0 °C 10,9 °C 1,6 km/h (1 Bft)
02.10.2019 09:15 10,9 °C 94 % 1003,5 hPa 0,0 mm 0,7 km/h (0 Bft) S-SO 168 ° 0 min 0,000 mm 0,5 UV-I 69 W/m² 10,0 °C 10,9 °C 1,6 km/h (1 Bft)
02.10.2019 09:16 10,9 °C 94 % 1003,5 hPa 0,0 mm 2,4 km/h (1 Bft) S-SW 210 ° 0 min 0,000 mm 0,5 UV-I 69 W/m² 10,0 °C 10,9 °C 3,2 km/h (1 Bft)
02.10.2019 09:17 10,9 °C 94 % 1003,5 hPa 0,0 mm 2,9 km/h (1 Bft) S-SW 210 ° 0 min 0,000 mm 0,5 UV-I 69 W/m² 10,0 °C 10,9 °C 4,8 km/h (1 Bft)
02.10.2019 09:18 10,9 °C 94 % 1003,6 hPa 0,0 mm 0,1 km/h (0 Bft) S-SW 210 ° 0 min 0,000 mm 0,5 UV-I 69 W/m² 10,0 °C 10,9 °C 1,6 km/h (1 Bft)
02.10.2019 09:19 10,9 °C 94 % 1003,6 hPa 0,0 mm 1,7 km/h (1 Bft) SW 219 ° 0 min 0,000 mm 0,5 UV-I 69 W/m² 10,0 °C 10,9 °C 3,2 km/h (1 Bft)
02.10.2019 09:20 10,9 °C 94 % 1003,6 hPa 0,0 mm 2,4 km/h (1 Bft) W-SW 254 ° 0 min 0,000 mm 0,5 UV-I 69 W/m² 10,0 °C 10,9 °C 6,4 km/h (2 Bft)
02.10.2019 09:21 11,1 °C 93 % 1003,6 hPa 0,0 mm 1,0 km/h (0 Bft) S-SW 213 ° 0 min 0,000 mm 0,5 UV-I 69 W/m² 10,0 °C 11,1 °C 4,8 km/h (1 Bft)
02.10.2019 09:22 11,1 °C 93 % 1003,6 hPa 0,0 mm 0,4 km/h (0 Bft) SW 214 ° 0 min 0,000 mm 0,5 UV-I 69 W/m² 10,0 °C 11,1 °C 3,2 km/h (1 Bft)
02.10.2019 09:23 11,1 °C 93 % 1003,6 hPa 0,0 mm 0,0 km/h (0 Bft) SW 214 ° 0 min 0,000 mm 0,5 UV-I 67 W/m² 10,0 °C 11,1 °C 0,0 km/h (0 Bft)
02.10.2019 09:24 11,1 °C 93 % 1003,6 hPa 0,0 mm 0,6 km/h (0 Bft) S-SW 213 ° 0 min 0,000 mm 0,5 UV-I 67 W/m² 10,0 °C 11,1 °C 3,2 km/h (1 Bft)
02.10.2019 09:25 11,2 °C 93 % 1003,6 hPa 0,0 mm 1,7 km/h (1 Bft) SW 223 ° 0 min 0,000 mm 0,5 UV-I 69 W/m² 10,1 °C 11,2 °C 4,8 km/h (1 Bft)
02.10.2019 09:26 11,2 °C 93 % 1003,6 hPa 0,0 mm 1,2 km/h (1 Bft) SW 223 ° 0 min 0,000 mm 0,5 UV-I 69 W/m² 10,1 °C 11,2 °C 3,2 km/h (1 Bft)
02.10.2019 09:27 11,2 °C 93 % 1003,7 hPa 0,0 mm 0,1 km/h (0 Bft) SW 223 ° 0 min 0,000 mm 0,5 UV-I 70 W/m² 10,1 °C 11,2 °C 1,6 km/h (1 Bft)
02.10.2019 09:28 11,2 °C 93 % 1003,7 hPa 0,0 mm 0,0 km/h (0 Bft) SW 223 ° 0 min 0,000 mm 0,5 UV-I 72 W/m² 10,1 °C 11,2 °C 0,0 km/h (0 Bft)
02.10.2019 09:29 11,2 °C 93 % 1003,7 hPa 0,0 mm 0,0 km/h (0 Bft) SW 223 ° 0 min 0,000 mm 0,5 UV-I 74 W/m² 10,1 °C 11,2 °C 0,0 km/h (0 Bft)
02.10.2019 09:30 11,1 °C 93 % 1003,7 hPa 0,0 mm 0,2 km/h (0 Bft) SW 223 ° 0 min 0,000 mm 0,6 UV-I 74 W/m² 10,0 °C 11,1 °C 1,6 km/h (1 Bft)
02.10.2019 09:31 11,1 °C 93 % 1003,7 hPa 0,0 mm 0,7 km/h (0 Bft) SW 223 ° 0 min 0,000 mm 0,5 UV-I 72 W/m² 10,0 °C 11,1 °C 1,6 km/h (1 Bft)
02.10.2019 09:32 11,1 °C 93 % 1003,7 hPa 0,0 mm 3,1 km/h (1 Bft) S-SW 195 ° 0 min 0,000 mm 0,5 UV-I 70 W/m² 10,0 °C 11,1 °C 6,4 km/h (2 Bft)
02.10.2019 09:33 11,1 °C 93 % 1003,8 hPa 0,0 mm 1,3 km/h (1 Bft) S-SW 195 ° 0 min 0,000 mm 0,5 UV-I 70 W/m² 10,0 °C 11,1 °C 3,2 km/h (1 Bft)
02.10.2019 09:34 11,1 °C 93 % 1003,8 hPa 0,0 mm 1,6 km/h (1 Bft) S-SW 194 ° 0 min 0,000 mm 0,5 UV-I 67 W/m² 10,0 °C 11,1 °C 4,8 km/h (1 Bft)
02.10.2019 09:35 11,1 °C 93 % 1003,8 hPa 0,0 mm 1,1 km/h (1 Bft) S-SW 194 ° 0 min 0,000 mm 0,5 UV-I 67 W/m² 10,0 °C 11,1 °C 4,8 km/h (1 Bft)
02.10.2019 09:36 11,0 °C 93 % 1003,8 hPa 0,0 mm 0,1 km/h (0 Bft) S-SW 194 ° 0 min 0,000 mm 0,5 UV-I 65 W/m² 9,9 °C 11,0 °C 1,6 km/h (1 Bft)
02.10.2019 09:37 11,0 °C 93 % 1003,8 hPa 0,0 mm 0,0 km/h (0 Bft) S-SW 194 ° 0 min 0,000 mm 0,5 UV-I 65 W/m² 9,9 °C 11,0 °C 0,0 km/h (0 Bft)
02.10.2019 09:38 11,0 °C 93 % 1003,8 hPa 0,0 mm 0,0 km/h (0 Bft) S-SW 194 ° 0 min 0,000 mm 0,5 UV-I 67 W/m² 9,9 °C 11,0 °C 0,0 km/h (0 Bft)
02.10.2019 09:39 11,0 °C 94 % 1003,8 hPa 0,0 mm 0,0 km/h (0 Bft) S-SW 194 ° 0 min 0,000 mm 0,5 UV-I 67 W/m² 10,1 °C 11,0 °C 0,0 km/h (0 Bft)
02.10.2019 09:40 11,1 °C 94 % 1003,8 hPa 0,0 mm 0,0 km/h (0 Bft) S-SW 194 ° 0 min 0,000 mm 0,5 UV-I 69 W/m² 10,2 °C 11,1 °C 0,0 km/h (0 Bft)
02.10.2019 09:41 11,0 °C 93 % 1003,8 hPa 0,0 mm 0,6 km/h (0 Bft) S-SW 194 ° 0 min 0,000 mm 0,5 UV-I 69 W/m² 9,9 °C 11,0 °C 1,6 km/h (1 Bft)
02.10.2019 09:42 11,0 °C 94 % 1003,8 hPa 0,0 mm 0,6 km/h (0 Bft) S-SW 194 ° 0 min 0,000 mm 0,5 UV-I 69 W/m² 10,1 °C 11,0 °C 1,6 km/h (1 Bft)
02.10.2019 09:43 10,9 °C 94 % 1003,9 hPa 0,0 mm 0,5 km/h (0 Bft) S-SW 193 ° 0 min 0,000 mm 0,5 UV-I 67 W/m² 10,0 °C 10,9 °C 4,8 km/h (1 Bft)
02.10.2019 09:44 10,9 °C 94 % 1003,9 hPa 0,0 mm 2,4 km/h (1 Bft) S-SW 194 ° 0 min 0,000 mm 0,5 UV-I 70 W/m² 10,0 °C 10,9 °C 4,8 km/h (1 Bft)
02.10.2019 09:45 10,9 °C 94 % 1003,9 hPa 0,0 mm 2,1 km/h (1 Bft) S-SW 192 ° 0 min 0,000 mm 0,5 UV-I 72 W/m² 10,0 °C 10,9 °C 3,2 km/h (1 Bft)
02.10.2019 09:46 10,9 °C 94 % 1003,9 hPa 0,0 mm 3,3 km/h (1 Bft) S-SW 192 ° 0 min 0,000 mm 0,6 UV-I 77 W/m² 10,0 °C 10,9 °C 4,8 km/h (1 Bft)
02.10.2019 09:47 10,9 °C 94 % 1003,9 hPa 0,0 mm 1,7 km/h (1 Bft) S-SW 192 ° 0 min 0,000 mm 0,6 UV-I 84 W/m² 10,0 °C 10,9 °C 3,2 km/h (1 Bft)
02.10.2019 09:48 10,9 °C 94 % 1003,9 hPa 0,0 mm 1,8 km/h (1 Bft) S-SW 192 ° 0 min 0,000 mm 0,6 UV-I 86 W/m² 10,0 °C 10,9 °C 3,2 km/h (1 Bft)
02.10.2019 09:49 10,9 °C 94 % 1003,9 hPa 0,0 mm 0,6 km/h (0 Bft) S-SW 192 ° 0 min 0,000 mm 0,6 UV-I 86 W/m² 10,0 °C 10,9 °C 1,6 km/h (1 Bft)
02.10.2019 09:50 10,9 °C 94 % 1003,9 hPa 0,0 mm 0,3 km/h (0 Bft) S-SW 192 ° 0 min 0,000 mm 0,6 UV-I 88 W/m² 10,0 °C 10,9 °C 1,6 km/h (1 Bft)
02.10.2019 09:51 10,9 °C 94 % 1004,0 hPa 0,0 mm 0,0 km/h (0 Bft) S-SW 192 ° 0 min 0,000 mm 0,6 UV-I 88 W/m² 10,0 °C 10,9 °C 0,0 km/h (0 Bft)
02.10.2019 09:52 10,9 °C 94 % 1004,0 hPa 0,0 mm 1,0 km/h (0 Bft) S-SW 192 ° 0 min 0,000 mm 0,7 UV-I 88 W/m² 10,0 °C 10,9 °C 1,6 km/h (1 Bft)
02.10.2019 09:53 10,9 °C 94 % 1004,0 hPa 0,0 mm 0,1 km/h (0 Bft) S-SW 192 ° 0 min 0,000 mm 0,7 UV-I 90 W/m² 10,0 °C 10,9 °C 1,6 km/h (1 Bft)
02.10.2019 09:54 11,0 °C 94 % 1004,1 hPa 0,0 mm 1,0 km/h (0 Bft) S-SW 192 ° 0 min 0,000 mm 0,7 UV-I 90 W/m² 10,1 °C 11,0 °C 3,2 km/h (1 Bft)
02.10.2019 09:55 11,0 °C 94 % 1004,1 hPa 0,0 mm 0,0 km/h (0 Bft) S-SW 192 ° 0 min 0,000 mm 0,7 UV-I 91 W/m² 10,1 °C 11,0 °C 0,0 km/h (0 Bft)
02.10.2019 09:56 11,0 °C 94 % 1004,0 hPa 0,0 mm 0,0 km/h (0 Bft) S-SW 192 ° 0 min 0,000 mm 0,7 UV-I 93 W/m² 10,1 °C 11,0 °C 0,0 km/h (0 Bft)
02.10.2019 09:57 11,0 °C 94 % 1004,1 hPa 0,0 mm 0,0 km/h (0 Bft) S-SW 192 ° 0 min 0,000 mm 0,7 UV-I 97 W/m² 10,1 °C 11,0 °C 0,0 km/h (0 Bft)
02.10.2019 09:58 11,0 °C 94 % 1004,2 hPa 0,0 mm 0,4 km/h (0 Bft) S-SW 192 ° 0 min 0,000 mm 0,7 UV-I 98 W/m² 10,1 °C 11,0 °C 3,2 km/h (1 Bft)
02.10.2019 09:59 11,0 °C 94 % 1004,2 hPa 0,0 mm 1,4 km/h (1 Bft) S-SW 192 ° 0 min 0,000 mm 0,7 UV-I 100 W/m² 10,1 °C 11,0 °C 3,2 km/h (1 Bft)
02.10.2019 10:00 11,0 °C 94 % 1004,2 hPa 0,0 mm 0,0 km/h (0 Bft) S-SW 192 ° 0 min 0,000 mm 0,7 UV-I 100 W/m² 10,1 °C 11,0 °C 0,0 km/h (0 Bft)
02.10.2019 10:01 11,1 °C 94 % 1004,2 hPa 0,0 mm 0,0 km/h (0 Bft) S-SW 192 ° 0 min 0,025 mm 0,7 UV-I 95 W/m² 10,2 °C 11,1 °C 0,0 km/h (0 Bft)
02.10.2019 10:02 11,1 °C 94 % 1004,2 hPa 0,0 mm 0,0 km/h (0 Bft) S-SW 192 ° 0 min 0,000 mm 0,7 UV-I 93 W/m² 10,2 °C 11,1 °C 0,0 km/h (0 Bft)
02.10.2019 10:03 11,1 °C 94 % 1004,2 hPa 0,0 mm 0,2 km/h (0 Bft) S-SW 192 ° 0 min 0,000 mm 0,6 UV-I 84 W/m² 10,2 °C 11,1 °C 1,6 km/h (1 Bft)
02.10.2019 10:04 11,1 °C 94 % 1004,2 hPa 0,0 mm 1,5 km/h (1 Bft) S-SW 192 ° 0 min 0,000 mm 0,6 UV-I 76 W/m² 10,2 °C 11,1 °C 3,2 km/h (1 Bft)
02.10.2019 10:05 11,2 °C 94 % 1004,2 hPa 0,0 mm 1,5 km/h (1 Bft) S-SW 192 ° 0 min 0,000 mm 0,6 UV-I 74 W/m² 10,3 °C 11,2 °C 3,2 km/h (1 Bft)
02.10.2019 10:06 11,2 °C 94 % 1004,3 hPa 0,0 mm 0,2 km/h (0 Bft) S-SW 192 ° 0 min 0,000 mm 0,5 UV-I 70 W/m² 10,3 °C 11,2 °C 1,6 km/h (1 Bft)
02.10.2019 10:07 11,2 °C 94 % 1004,3 hPa 0,0 mm 0,1 km/h (0 Bft) S-SW 192 ° 0 min 0,000 mm 0,5 UV-I 65 W/m² 10,3 °C 11,2 °C 1,6 km/h (1 Bft)
02.10.2019 10:08 11,3 °C 94 % 1004,3 hPa 0,0 mm 0,7 km/h (0 Bft) S-SW 192 ° 0 min 0,000 mm 0,5 UV-I 65 W/m² 10,4 °C 11,3 °C 3,2 km/h (1 Bft)
02.10.2019 10:09 11,3 °C 94 % 1004,3 hPa 0,0 mm 1,4 km/h (1 Bft) W-SW 242 ° 0 min 0,000 mm 0,5 UV-I 62 W/m² 10,4 °C 11,3 °C 6,4 km/h (2 Bft)
02.10.2019 10:10 11,3 °C 94 % 1004,3 hPa 0,0 mm 2,2 km/h (1 Bft) S 169 ° 0 min 0,000 mm 0,5 UV-I 65 W/m² 10,4 °C 11,3 °C 3,2 km/h (1 Bft)
02.10.2019 10:11 11,3 °C 94 % 1004,3 hPa 0,0 mm 0,7 km/h (0 Bft) S 170 ° 0 min 0,000 mm 0,5 UV-I 67 W/m² 10,4 °C 11,3 °C 3,2 km/h (1 Bft)
02.10.2019 10:12 11,3 °C 94 % 1004,3 hPa 0,0 mm 1,1 km/h (1 Bft) S 170 ° 0 min 0,000 mm 0,6 UV-I 72 W/m² 10,4 °C 11,3 °C 3,2 km/h (1 Bft)
02.10.2019 10:13 11,3 °C 94 % 1004,3 hPa 0,0 mm 3,0 km/h (1 Bft) S 190 ° 0 min 0,000 mm 0,7 UV-I 83 W/m² 10,4 °C 11,3 °C 4,8 km/h (1 Bft)
02.10.2019 10:14 11,3 °C 94 % 1004,3 hPa 0,0 mm 2,8 km/h (1 Bft) S 185 ° 0 min 0,000 mm 0,7 UV-I 88 W/m² 10,4 °C 11,3 °C 4,8 km/h (1 Bft)
02.10.2019 10:15 11,3 °C 93 % 1004,3 hPa 0,0 mm 0,7 km/h (0 Bft) S 185 ° 0 min 0,000 mm 0,8 UV-I 95 W/m² 10,2 °C 11,3 °C 3,2 km/h (1 Bft)
02.10.2019 10:16 11,3 °C 94 % 1004,2 hPa 0,0 mm 1,0 km/h (0 Bft) S 185 ° 0 min 0,000 mm 0,8 UV-I 102 W/m² 10,4 °C 11,3 °C 3,2 km/h (1 Bft)
02.10.2019 10:17 11,4 °C 94 % 1004,2 hPa 0,0 mm 0,0 km/h (0 Bft) S 185 ° 0 min 0,000 mm 0,8 UV-I 105 W/m² 10,5 °C 11,4 °C 0,0 km/h (0 Bft)
02.10.2019 10:18 11,5 °C 94 % 1004,2 hPa 0,0 mm 0,2 km/h (0 Bft) S-SW 198 ° 0 min 0,000 mm 0,9 UV-I 113 W/m² 10,6 °C 11,5 °C 3,2 km/h (1 Bft)
02.10.2019 10:19 11,4 °C 93 % 1004,2 hPa 0,0 mm 3,6 km/h (1 Bft) W-NW 293 ° 0 min 0,000 mm 1,0 UV-I 121 W/m² 10,3 °C 11,4 °C 9,7 km/h (2 Bft)
02.10.2019 10:20 11,6 °C 93 % 1004,2 hPa 0,0 mm 1,1 km/h (1 Bft) W-NW 293 ° 0 min 0,000 mm 1,0 UV-I 128 W/m² 10,5 °C 11,6 °C 1,6 km/h (1 Bft)
02.10.2019 10:21 11,6 °C 93 % 1004,3 hPa 0,0 mm 2,4 km/h (1 Bft) W-NW 292 ° 0 min 0,000 mm 1,0 UV-I 132 W/m² 10,5 °C 11,6 °C 3,2 km/h (1 Bft)
02.10.2019 10:22 11,7 °C 93 % 1004,3 hPa 0,0 mm 0,1 km/h (0 Bft) W-NW 292 ° 0 min 0,000 mm 1,0 UV-I 128 W/m² 10,6 °C 11,7 °C 1,6 km/h (1 Bft)
02.10.2019 10:23 11,7 °C 93 % 1004,3 hPa 0,0 mm 1,8 km/h (1 Bft) W-NW 292 ° 0 min 0,000 mm 0,9 UV-I 121 W/m² 10,6 °C 11,7 °C 3,2 km/h (1 Bft)
02.10.2019 10:24 11,8 °C 93 % 1004,3 hPa 0,0 mm 2,7 km/h (1 Bft) W-NW 292 ° 0 min 0,000 mm 0,9 UV-I 114 W/m² 10,7 °C 11,8 °C 4,8 km/h (1 Bft)
02.10.2019 10:25 11,9 °C 92 % 1004,3 hPa 0,0 mm 1,2 km/h (1 Bft) W-NW 292 ° 0 min 0,000 mm 0,8 UV-I 104 W/m² 10,6 °C 11,9 °C 3,2 km/h (1 Bft)
02.10.2019 10:26 11,9 °C 92 % 1004,3 hPa 0,0 mm 1,1 km/h (1 Bft) W-NW 292 ° 0 min 0,000 mm 0,8 UV-I 98 W/m² 10,6 °C 11,9 °C 3,2 km/h (1 Bft)
02.10.2019 10:27 11,9 °C 92 % 1004,3 hPa 0,0 mm 0,0 km/h (0 Bft) W-NW 292 ° 0 min 0,000 mm 0,8 UV-I 98 W/m² 10,6 °C 11,9 °C 0,0 km/h (0 Bft)
02.10.2019 10:28 11,9 °C 93 % 1004,3 hPa 0,0 mm 1,6 km/h (1 Bft) W-NW 291 ° 0 min 0,000 mm 0,7 UV-I 95 W/m² 10,8 °C 11,9 °C 3,2 km/h (1 Bft)
02.10.2019 10:29 11,9 °C 93 % 1004,3 hPa 0,0 mm 0,2 km/h (0 Bft) W-NW 292 ° 0 min 0,000 mm 0,8 UV-I 98 W/m² 10,8 °C 11,9 °C 1,6 km/h (1 Bft)
02.10.2019 10:30 11,8 °C 93 % 1004,3 hPa 0,0 mm 0,0 km/h (0 Bft) W-NW 291 ° 0 min 0,000 mm 0,8 UV-I 104 W/m² 10,7 °C 11,8 °C 0,0 km/h (0 Bft)
02.10.2019 10:31 11,8 °C 93 % 1004,3 hPa 0,0 mm 0,0 km/h (0 Bft) W-NW 291 ° 0 min 0,000 mm 0,8 UV-I 109 W/m² 10,7 °C 11,8 °C 0,0 km/h (0 Bft)
02.10.2019 10:32 11,8 °C 93 % 1004,3 hPa 0,0 mm 1,2 km/h (1 Bft) W-NW 291 ° 0 min 0,000 mm 0,9 UV-I 118 W/m² 10,7 °C 11,8 °C 3,2 km/h (1 Bft)
02.10.2019 10:33 11,8 °C 93 % 1004,4 hPa 0,0 mm 0,5 km/h (0 Bft) W-NW 291 ° 0 min 0,000 mm 1,0 UV-I 137 W/m² 10,7 °C 11,8 °C 3,2 km/h (1 Bft)
02.10.2019 10:34 11,9 °C 93 % 1004,3 hPa 0,0 mm 0,0 km/h (0 Bft) W-NW 292 ° 0 min 0,000 mm 1,1 UV-I 141 W/m² 10,8 °C 11,9 °C 0,0 km/h (0 Bft)
02.10.2019 10:35 11,8 °C 93 % 1004,3 hPa 0,0 mm 0,0 km/h (0 Bft) W-NW 292 ° 0 min 0,000 mm 1,1 UV-I 139 W/m² 10,7 °C 11,8 °C 0,0 km/h (0 Bft)
02.10.2019 10:36 11,8 °C 93 % 1004,3 hPa 0,0 mm 0,0 km/h (0 Bft) W-NW 292 ° 0 min 0,000 mm 1,0 UV-I 134 W/m² 10,7 °C 11,8 °C 0,0 km/h (0 Bft)
02.10.2019 10:37 11,9 °C 93 % 1004,3 hPa 0,0 mm 0,0 km/h (0 Bft) W-NW 292 ° 0 min 0,000 mm 0,9 UV-I 118 W/m² 10,8 °C 11,9 °C 0,0 km/h (0 Bft)
02.10.2019 10:38 11,9 °C 93 % 1004,4 hPa 0,0 mm 1,5 km/h (1 Bft) W-NW 291 ° 0 min 0,000 mm 0,8 UV-I 102 W/m² 10,8 °C 11,9 °C 3,2 km/h (1 Bft)
02.10.2019 10:39 11,9 °C 93 % 1004,3 hPa 0,0 mm 0,0 km/h (0 Bft) W-NW 291 ° 0 min 0,000 mm 0,7 UV-I 83 W/m² 10,8 °C 11,9 °C 0,0 km/h (0 Bft)
02.10.2019 10:40 11,9 °C 93 % 1004,3 hPa 0,0 mm 0,0 km/h (0 Bft) W-NW 291 ° 0 min 0,000 mm 0,6 UV-I 79 W/m² 10,8 °C 11,9 °C 0,0 km/h (0 Bft)
02.10.2019 10:41 12,0 °C 93 % 1004,4 hPa 0,0 mm 0,9 km/h (0 Bft) W-NW 291 ° 0 min 0,000 mm 0,6 UV-I 79 W/m² 10,9 °C 12,0 °C 3,2 km/h (1 Bft)
02.10.2019 10:42 12,1 °C 92 % 1004,4 hPa 0,0 mm 2,7 km/h (1 Bft) S-SW 211 ° 0 min 0,000 mm 0,6 UV-I 81 W/m² 10,8 °C 12,1 °C 6,4 km/h (2 Bft)
02.10.2019 10:43 12,1 °C 92 % 1004,4 hPa 0,0 mm 6,4 km/h (2 Bft) S-SW 209 ° 0 min 0,000 mm 0,6 UV-I 83 W/m² 10,8 °C 12,1 °C 14,5 km/h (3 Bft)
02.10.2019 10:44 12,1 °C 92 % 1004,4 hPa 0,0 mm 11,4 km/h (2 Bft) W-SW 254 ° 0 min 0,000 mm 0,7 UV-I 84 W/m² 10,8 °C 12,1 °C 17,7 km/h (3 Bft)
02.10.2019 10:45 12,0 °C 91 % 1004,4 hPa 0,0 mm 6,3 km/h (2 Bft) W-SW 238 ° 0 min 0,000 mm 0,7 UV-I 93 W/m² 10,6 °C 12,0 °C 12,9 km/h (3 Bft)
02.10.2019 10:46 11,9 °C 91 % 1004,4 hPa 0,0 mm 8,4 km/h (2 Bft) W-SW 257 ° 0 min 0,000 mm 0,7 UV-I 91 W/m² 10,5 °C 11,9 °C 14,5 km/h (3 Bft)
02.10.2019 10:47 11,9 °C 91 % 1004,4 hPa 0,0 mm 5,4 km/h (1 Bft) W-SW 257 ° 0 min 0,000 mm 0,7 UV-I 90 W/m² 10,5 °C 11,9 °C 9,7 km/h (2 Bft)
02.10.2019 10:48 11,9 °C 91 % 1004,5 hPa 0,0 mm 8,9 km/h (2 Bft) W 264 ° 0 min 0,000 mm 0,7 UV-I 97 W/m² 10,5 °C 11,9 °C 12,9 km/h (3 Bft)
02.10.2019 10:49 11,9 °C 91 % 1004,5 hPa 0,0 mm 7,0 km/h (2 Bft) W 259 ° 0 min 0,000 mm 0,9 UV-I 97 W/m² 10,5 °C 11,9 °C 11,3 km/h (2 Bft)
02.10.2019 10:50 11,9 °C 91 % 1004,5 hPa 0,0 mm 8,3 km/h (2 Bft) W-NW 290 ° 0 min 0,000 mm 1,1 UV-I 134 W/m² 10,5 °C 11,9 °C 11,3 km/h (2 Bft)
02.10.2019 10:51 11,8 °C 91 % 1004,5 hPa 0,0 mm 12,4 km/h (3 Bft) W-NW 292 ° 0 min 0,000 mm 1,2 UV-I 153 W/m² 10,4 °C 11,8 °C 17,7 km/h (3 Bft)
02.10.2019 10:52 11,8 °C 91 % 1004,5 hPa 0,0 mm 8,4 km/h (2 Bft) W 270 ° 0 min 0,000 mm 0,9 UV-I 128 W/m² 10,4 °C 11,8 °C 16,1 km/h (3 Bft)
02.10.2019 10:53 11,8 °C 91 % 1004,5 hPa 0,0 mm 5,8 km/h (2 Bft) W-NW 296 ° 0 min 0,000 mm 0,7 UV-I 100 W/m² 10,4 °C 11,8 °C 11,3 km/h (2 Bft)
02.10.2019 10:54 11,8 °C 91 % 1004,6 hPa 0,0 mm 8,3 km/h (2 Bft) W-NW 288 ° 0 min 0,000 mm 0,6 UV-I 81 W/m² 10,4 °C 11,8 °C 12,9 km/h (3 Bft)
02.10.2019 10:55 11,8 °C 91 % 1004,6 hPa 0,0 mm 11,1 km/h (2 Bft) W 271 ° 0 min 0,000 mm 0,5 UV-I 67 W/m² 10,4 °C 11,8 °C 14,5 km/h (3 Bft)
02.10.2019 10:56 11,7 °C 91 % 1004,7 hPa 0,0 mm 10,5 km/h (2 Bft) W 259 ° 0 min 0,000 mm 0,5 UV-I 67 W/m² 10,3 °C 11,7 °C 14,5 km/h (3 Bft)
02.10.2019 10:57 11,7 °C 91 % 1004,7 hPa 0,0 mm 3,6 km/h (1 Bft) SW 222 ° 0 min 0,000 mm 0,6 UV-I 76 W/m² 10,3 °C 11,7 °C 11,3 km/h (2 Bft)
02.10.2019 10:58 11,7 °C 91 % 1004,7 hPa 0,0 mm 6,2 km/h (2 Bft) W 259 ° 0 min 0,000 mm 0,5 UV-I 74 W/m² 10,3 °C 11,7 °C 9,7 km/h (2 Bft)
02.10.2019 10:59 11,6 °C 91 % 1004,7 hPa 0,0 mm 5,2 km/h (1 Bft) W-NW 293 ° 0 min 0,000 mm 0,5 UV-I 72 W/m² 10,2 °C 11,6 °C 9,7 km/h (2 Bft)
02.10.2019 11:00 11,6 °C 91 % 1004,7 hPa 0,0 mm 5,5 km/h (1 Bft) W-NW 288 ° 0 min 0,051 mm 0,5 UV-I 69 W/m² 10,2 °C 11,6 °C 9,7 km/h (2 Bft)
02.10.2019 11:01 11,6 °C 91 % 1004,7 hPa 0,0 mm 6,7 km/h (2 Bft) W-SW 255 ° 0 min 0,000 mm 0,5 UV-I 70 W/m² 10,2 °C 11,6 °C 14,5 km/h (3 Bft)
02.10.2019 11:02 11,6 °C 91 % 1004,7 hPa 0,0 mm 5,6 km/h (1 Bft) NW 306 ° 0 min 0,000 mm 0,7 UV-I 86 W/m² 10,2 °C 11,6 °C 9,7 km/h (2 Bft)
02.10.2019 11:03 11,6 °C 91 % 1004,7 hPa 0,0 mm 4,3 km/h (1 Bft) W-SW 247 ° 0 min 0,000 mm 0,8 UV-I 97 W/m² 10,2 °C 11,6 °C 9,7 km/h (2 Bft)
02.10.2019 11:04 11,6 °C 91 % 1004,7 hPa 0,0 mm 6,1 km/h (2 Bft) W-SW 238 ° 0 min 0,000 mm 0,8 UV-I 100 W/m² 10,2 °C 11,6 °C 9,7 km/h (2 Bft)
02.10.2019 11:05 11,6 °C 91 % 1004,7 hPa 0,0 mm 6,7 km/h (2 Bft) W-SW 238 ° 0 min 0,000 mm 0,9 UV-I 114 W/m² 10,2 °C 11,6 °C 11,3 km/h (2 Bft)
02.10.2019 11:06 11,6 °C 91 % 1004,7 hPa 0,0 mm 4,8 km/h (1 Bft) W 272 ° 0 min 0,000 mm 1,1 UV-I 134 W/m² 10,2 °C 11,6 °C 9,7 km/h (2 Bft)
02.10.2019 11:07 11,6 °C 91 % 1004,7 hPa 0,0 mm 4,9 km/h (1 Bft) W-NW 296 ° 0 min 0,000 mm 1,2 UV-I 151 W/m² 10,2 °C 11,6 °C 9,7 km/h (2 Bft)
02.10.2019 11:08 11,6 °C 91 % 1004,7 hPa 0,0 mm 3,9 km/h (1 Bft) W-SW 248 ° 0 min 0,000 mm 1,3 UV-I 160 W/m² 10,2 °C 11,6 °C 6,4 km/h (2 Bft)
02.10.2019 11:09 11,6 °C 91 % 1004,7 hPa 0,0 mm 6,8 km/h (2 Bft) SW 222 ° 0 min 0,000 mm 1,3 UV-I 165 W/m² 10,2 °C 11,6 °C 11,3 km/h (2 Bft)
02.10.2019 11:10 11,6 °C 91 % 1004,6 hPa 0,0 mm 10,2 km/h (2 Bft) W 264 ° 0 min 0,000 mm 1,3 UV-I 165 W/m² 10,2 °C 11,6 °C 16,1 km/h (3 Bft)
02.10.2019 11:11 11,7 °C 91 % 1004,7 hPa 0,0 mm 5,8 km/h (2 Bft) W-SW 237 ° 0 min 0,000 mm 1,3 UV-I 162 W/m² 10,3 °C 11,7 °C 11,3 km/h (2 Bft)
02.10.2019 11:12 11,7 °C 91 % 1004,7 hPa 0,0 mm 4,6 km/h (1 Bft) W-NW 285 ° 0 min 0,000 mm 1,2 UV-I 155 W/m² 10,3 °C 11,7 °C 8,0 km/h (2 Bft)
02.10.2019 11:13 11,7 °C 91 % 1004,7 hPa 0,0 mm 7,5 km/h (2 Bft) W 275 ° 0 min 0,000 mm 1,2 UV-I 151 W/m² 10,3 °C 11,7 °C 12,9 km/h (3 Bft)
02.10.2019 11:14 11,7 °C 91 % 1004,8 hPa 0,0 mm 6,1 km/h (2 Bft) W 265 ° 0 min 0,000 mm 1,2 UV-I 149 W/m² 10,3 °C 11,7 °C 9,7 km/h (2 Bft)
02.10.2019 11:15 11,7 °C 91 % 1004,7 hPa 0,0 mm 5,4 km/h (1 Bft) W-NW 290 ° 0 min 0,000 mm 1,2 UV-I 158 W/m² 10,3 °C 11,7 °C 9,7 km/h (2 Bft)
02.10.2019 11:16 11,7 °C 91 % 1004,7 hPa 0,0 mm 5,4 km/h (1 Bft) SW 228 ° 0 min 0,000 mm 1,3 UV-I 169 W/m² 10,3 °C 11,7 °C 12,9 km/h (3 Bft)
02.10.2019 11:17 11,8 °C 91 % 1004,7 hPa 0,0 mm 8,4 km/h (2 Bft) W-SW 237 ° 0 min 0,000 mm 1,4 UV-I 185 W/m² 10,4 °C 11,8 °C 14,5 km/h (3 Bft)
02.10.2019 11:18 11,8 °C 91 % 1004,7 hPa 0,0 mm 6,2 km/h (2 Bft) W 263 ° 0 min 0,000 mm 1,5 UV-I 195 W/m² 10,4 °C 11,8 °C 11,3 km/h (2 Bft)
02.10.2019 11:19 11,8 °C 91 % 1004,7 hPa 0,0 mm 12,9 km/h (3 Bft) W-NW 286 ° 0 min 0,000 mm 1,6 UV-I 204 W/m² 10,4 °C 11,8 °C 22,5 km/h (4 Bft)
02.10.2019 11:20 11,8 °C 91 % 1004,7 hPa 0,0 mm 13,6 km/h (3 Bft) W-SW 238 ° 0 min 0,000 mm 1,6 UV-I 225 W/m² 10,4 °C 11,8 °C 19,3 km/h (3 Bft)
02.10.2019 11:21 11,8 °C 91 % 1004,7 hPa 0,0 mm 8,3 km/h (2 Bft) W-SW 252 ° 0 min 0,000 mm 1,7 UV-I 234 W/m² 10,4 °C 11,8 °C 14,5 km/h (3 Bft)
02.10.2019 11:22 11,8 °C 90 % 1004,8 hPa 0,0 mm 13,5 km/h (3 Bft) W 261 ° 0 min 0,000 mm 1,8 UV-I 236 W/m² 10,2 °C 11,8 °C 17,7 km/h (3 Bft)
02.10.2019 11:23 11,8 °C 91 % 1004,7 hPa 0,0 mm 8,2 km/h (2 Bft) W-SW 245 ° 0 min 0,000 mm 1,7 UV-I 229 W/m² 10,4 °C 11,8 °C 16,1 km/h (3 Bft)
02.10.2019 11:24 11,8 °C 91 % 1004,7 hPa 0,0 mm 8,0 km/h (2 Bft) SW 227 ° 0 min 0,000 mm 1,6 UV-I 218 W/m² 10,4 °C 11,8 °C 12,9 km/h (3 Bft)
02.10.2019 11:25 11,9 °C 91 % 1004,8 hPa 0,0 mm 8,4 km/h (2 Bft) W 263 ° 0 min 0,000 mm 1,5 UV-I 204 W/m² 10,5 °C 11,9 °C 14,5 km/h (3 Bft)
02.10.2019 11:26 11,9 °C 90 % 1004,7 hPa 0,0 mm 5,4 km/h (1 Bft) W-SW 238 ° 0 min 0,000 mm 1,5 UV-I 185 W/m² 10,3 °C 11,9 °C 8,0 km/h (2 Bft)
02.10.2019 11:27 11,9 °C 91 % 1004,7 hPa 0,0 mm 7,1 km/h (2 Bft) NW 313 ° 0 min 0,000 mm 1,4 UV-I 178 W/m² 10,5 °C 11,9 °C 12,9 km/h (3 Bft)
02.10.2019 11:28 11,9 °C 90 % 1004,8 hPa 0,0 mm 9,8 km/h (2 Bft) W 264 ° 0 min 0,000 mm 1,3 UV-I 174 W/m² 10,3 °C 11,9 °C 14,5 km/h (3 Bft)
02.10.2019 11:29 11,9 °C 91 % 1004,8 hPa 0,0 mm 8,7 km/h (2 Bft) W 262 ° 0 min 0,000 mm 1,3 UV-I 172 W/m² 10,5 °C 11,9 °C 12,9 km/h (3 Bft)
02.10.2019 11:30 11,9 °C 90 % 1004,7 hPa 0,0 mm 10,0 km/h (2 Bft) S-SW 213 ° 0 min 0,000 mm 1,4 UV-I 172 W/m² 10,3 °C 11,9 °C 14,5 km/h (3 Bft)
02.10.2019 11:31 11,9 °C 90 % 1004,8 hPa 0,0 mm 6,6 km/h (2 Bft) SW 223 ° 0 min 0,000 mm 1,5 UV-I 185 W/m² 10,3 °C 11,9 °C 12,9 km/h (3 Bft)
02.10.2019 11:32 11,9 °C 90 % 1004,8 hPa 0,0 mm 8,1 km/h (2 Bft) W 271 ° 0 min 0,000 mm 1,5 UV-I 192 W/m² 10,3 °C 11,9 °C 12,9 km/h (3 Bft)
02.10.2019 11:33 11,9 °C 91 % 1004,8 hPa 0,0 mm 9,3 km/h (2 Bft) W 277 ° 0 min 0,000 mm 1,4 UV-I 178 W/m² 10,5 °C 11,9 °C 16,1 km/h (3 Bft)
02.10.2019 11:34 11,9 °C 91 % 1004,9 hPa 0,0 mm 8,3 km/h (2 Bft) W-NW 286 ° 0 min 0,000 mm 1,4 UV-I 176 W/m² 10,5 °C 11,9 °C 12,9 km/h (3 Bft)
02.10.2019 11:35 11,9 °C 91 % 1004,8 hPa 0,0 mm 9,1 km/h (2 Bft) W-SW 257 ° 0 min 0,000 mm 1,5 UV-I 186 W/m² 10,5 °C 11,9 °C 14,5 km/h (3 Bft)
02.10.2019 11:36 11,9 °C 91 % 1004,9 hPa 0,0 mm 6,9 km/h (2 Bft) W 261 ° 0 min 0,000 mm 1,5 UV-I 192 W/m² 10,5 °C 11,9 °C 11,3 km/h (2 Bft)
02.10.2019 11:37 12,0 °C 91 % 1004,9 hPa 0,0 mm 4,6 km/h (1 Bft) W-SW 258 ° 0 min 0,000 mm 1,5 UV-I 188 W/m² 10,6 °C 12,0 °C 11,3 km/h (2 Bft)
02.10.2019 11:38 12,1 °C 91 % 1004,8 hPa 0,0 mm 6,8 km/h (2 Bft) W 263 ° 0 min 0,000 mm 1,4 UV-I 181 W/m² 10,7 °C 12,1 °C 9,7 km/h (2 Bft)
02.10.2019 11:39 12,1 °C 91 % 1004,8 hPa 0,0 mm 4,9 km/h (1 Bft) W 264 ° 0 min 0,000 mm 1,4 UV-I 183 W/m² 10,7 °C 12,1 °C 8,0 km/h (2 Bft)
02.10.2019 11:40 12,1 °C 91 % 1004,9 hPa 0,0 mm 6,0 km/h (2 Bft) W 261 ° 0 min 0,000 mm 1,5 UV-I 190 W/m² 10,7 °C 12,1 °C 9,7 km/h (2 Bft)
02.10.2019 11:41 12,1 °C 91 % 1004,8 hPa 0,0 mm 5,6 km/h (1 Bft) W 267 ° 0 min 0,000 mm 1,6 UV-I 197 W/m² 10,7 °C 12,1 °C 6,4 km/h (2 Bft)
02.10.2019 11:42 12,1 °C 91 % 1004,8 hPa 0,0 mm 6,1 km/h (2 Bft) W 275 ° 0 min 0,000 mm 1,6 UV-I 204 W/m² 10,7 °C 12,1 °C 11,3 km/h (2 Bft)
02.10.2019 11:43 12,0 °C 91 % 1004,8 hPa 0,0 mm 9,3 km/h (2 Bft) SW 236 ° 0 min 0,000 mm 1,6 UV-I 206 W/m² 10,6 °C 12,0 °C 17,7 km/h (3 Bft)
02.10.2019 11:44 12,1 °C 91 % 1004,8 hPa 0,0 mm 5,9 km/h (2 Bft) W-SW 246 ° 0 min 0,000 mm 1,6 UV-I 200 W/m² 10,7 °C 12,1 °C 9,7 km/h (2 Bft)
02.10.2019 11:45 12,1 °C 91 % 1004,8 hPa 0,0 mm 3,9 km/h (1 Bft) W-SW 246 ° 0 min 0,000 mm 1,6 UV-I 197 W/m² 10,7 °C 12,1 °C 8,0 km/h (2 Bft)
02.10.2019 11:46 12,1 °C 91 % 1004,8 hPa 0,0 mm 6,3 km/h (2 Bft) W-NW 291 ° 0 min 0,000 mm 1,6 UV-I 195 W/m² 10,7 °C 12,1 °C 12,9 km/h (3 Bft)
02.10.2019 11:47 12,1 °C 90 % 1004,9 hPa 0,0 mm 13,7 km/h (3 Bft) W 271 ° 0 min 0,000 mm 1,6 UV-I 193 W/m² 10,5 °C 12,1 °C 19,3 km/h (3 Bft)
02.10.2019 11:48 12,1 °C 91 % 1004,8 hPa 0,0 mm 13,8 km/h (3 Bft) W 267 ° 0 min 0,000 mm 1,6 UV-I 192 W/m² 10,7 °C 12,1 °C 17,7 km/h (3 Bft)
02.10.2019 11:49 12,1 °C 91 % 1004,8 hPa 0,0 mm 5,9 km/h (2 Bft) SW 232 ° 0 min 0,000 mm 1,6 UV-I 192 W/m² 10,7 °C 12,1 °C 9,7 km/h (2 Bft)
02.10.2019 11:50 12,1 °C 90 % 1004,8 hPa 0,0 mm 4,5 km/h (1 Bft) W 261 ° 0 min 0,000 mm 1,6 UV-I 195 W/m² 10,5 °C 12,1 °C 6,4 km/h (2 Bft)
02.10.2019 11:51 12,2 °C 91 % 1004,8 hPa 0,0 mm 4,6 km/h (1 Bft) W 266 ° 0 min 0,000 mm 1,6 UV-I 199 W/m² 10,8 °C 12,2 °C 9,7 km/h (2 Bft)
02.10.2019 11:52 12,2 °C 91 % 1004,7 hPa 0,0 mm 4,6 km/h (1 Bft) W 278 ° 0 min 0,000 mm 1,7 UV-I 202 W/m² 10,8 °C 12,2 °C 9,7 km/h (2 Bft)
02.10.2019 11:53 12,2 °C 91 % 1004,7 hPa 0,0 mm 5,7 km/h (1 Bft) W 274 ° 0 min 0,000 mm 1,7 UV-I 206 W/m² 10,8 °C 12,2 °C 6,4 km/h (2 Bft)
02.10.2019 11:54 12,2 °C 91 % 1004,8 hPa 0,0 mm 5,8 km/h (2 Bft) W-SW 252 ° 0 min 0,000 mm 1,7 UV-I 209 W/m² 10,8 °C 12,2 °C 12,9 km/h (3 Bft)
02.10.2019 11:55 12,2 °C 91 % 1004,8 hPa 0,0 mm 5,2 km/h (1 Bft) W 275 ° 0 min 0,000 mm 1,7 UV-I 214 W/m² 10,8 °C 12,2 °C 8,0 km/h (2 Bft)
02.10.2019 11:56 12,3 °C 91 % 1004,8 hPa 0,0 mm 10,2 km/h (2 Bft) W-SW 240 ° 0 min 0,000 mm 1,8 UV-I 218 W/m² 10,9 °C 12,3 °C 16,1 km/h (3 Bft)
02.10.2019 11:57 12,3 °C 91 % 1004,8 hPa 0,0 mm 7,7 km/h (2 Bft) W-SW 252 ° 0 min 0,000 mm 1,8 UV-I 221 W/m² 10,9 °C 12,3 °C 11,3 km/h (2 Bft)
02.10.2019 11:58 12,3 °C 90 % 1004,9 hPa 0,0 mm 7,5 km/h (2 Bft) W 271 ° 0 min 0,000 mm 1,9 UV-I 225 W/m² 10,7 °C 12,3 °C 16,1 km/h (3 Bft)
02.10.2019 11:59 12,3 °C 90 % 1004,9 hPa 0,0 mm 8,6 km/h (2 Bft) W-SW 254 ° 0 min 0,000 mm 1,9 UV-I 225 W/m² 10,7 °C 12,3 °C 17,7 km/h (3 Bft)
02.10.2019 12:00 12,3 °C 90 % 1005,0 hPa 0,0 mm 10,3 km/h (2 Bft) SW 225 ° 0 min 0,102 mm 1,9 UV-I 221 W/m² 10,7 °C 12,3 °C 16,1 km/h (3 Bft)
02.10.2019 12:01 12,3 °C 90 % 1004,9 hPa 0,0 mm 3,3 km/h (1 Bft) S-SW 200 ° 0 min 0,000 mm 1,9 UV-I 214 W/m² 10,7 °C 12,3 °C 6,4 km/h (2 Bft)
02.10.2019 12:02 12,3 °C 89 % 1004,9 hPa 0,0 mm 5,6 km/h (1 Bft) W 275 ° 0 min 0,000 mm 1,8 UV-I 211 W/m² 10,5 °C 12,3 °C 9,7 km/h (2 Bft)
02.10.2019 12:03 12,3 °C 90 % 1004,9 hPa 0,0 mm 7,1 km/h (2 Bft) W-SW 257 ° 0 min 0,000 mm 1,8 UV-I 206 W/m² 10,7 °C 12,3 °C 9,7 km/h (2 Bft)
02.10.2019 12:04 12,3 °C 90 % 1005,0 hPa 0,0 mm 5,4 km/h (1 Bft) NW 314 ° 0 min 0,000 mm 1,8 UV-I 202 W/m² 10,7 °C 12,3 °C 11,3 km/h (2 Bft)
02.10.2019 12:05 12,4 °C 90 % 1005,0 hPa 0,0 mm 13,9 km/h (3 Bft) W-SW 255 ° 0 min 0,000 mm 1,9 UV-I 202 W/m² 10,8 °C 12,4 °C 17,7 km/h (3 Bft)
02.10.2019 12:06 12,3 °C 89 % 1005,0 hPa 0,0 mm 11,3 km/h (2 Bft) W 263 ° 0 min 0,000 mm 1,9 UV-I 206 W/m² 10,5 °C 12,3 °C 12,9 km/h (3 Bft)
02.10.2019 12:07 12,3 °C 90 % 1005,0 hPa 0,0 mm 10,7 km/h (2 Bft) SW 224 ° 0 min 0,000 mm 1,9 UV-I 220 W/m² 10,7 °C 12,3 °C 14,5 km/h (3 Bft)
02.10.2019 12:08 12,3 °C 89 % 1005,0 hPa 0,0 mm 7,5 km/h (2 Bft) W-NW 290 ° 0 min 0,000 mm 2,1 UV-I 229 W/m² 10,5 °C 12,3 °C 14,5 km/h (3 Bft)
02.10.2019 12:09 12,3 °C 90 % 1004,9 hPa 0,0 mm 9,4 km/h (2 Bft) W-SW 239 ° 0 min 0,000 mm 2,1 UV-I 232 W/m² 10,7 °C 12,3 °C 16,1 km/h (3 Bft)
02.10.2019 12:10 12,3 °C 90 % 1004,9 hPa 0,0 mm 8,7 km/h (2 Bft) W-SW 248 ° 0 min 0,000 mm 2,2 UV-I 248 W/m² 10,7 °C 12,3 °C 14,5 km/h (3 Bft)
02.10.2019 12:11 12,4 °C 89 % 1005,0 hPa 0,0 mm 10,7 km/h (2 Bft) W-NW 290 ° 0 min 0,000 mm 2,1 UV-I 251 W/m² 10,6 °C 12,4 °C 17,7 km/h (3 Bft)
02.10.2019 12:12 12,3 °C 88 % 1005,0 hPa 0,0 mm 14,1 km/h (3 Bft) W 267 ° 0 min 0,000 mm 1,9 UV-I 236 W/m² 10,4 °C 12,3 °C 20,9 km/h (4 Bft)
02.10.2019 12:13 12,3 °C 89 % 1005,0 hPa 0,0 mm 12,0 km/h (2 Bft) W 262 ° 0 min 0,000 mm 2,0 UV-I 260 W/m² 10,5 °C 12,3 °C 16,1 km/h (3 Bft)
02.10.2019 12:14 12,4 °C 89 % 1005,0 hPa 0,0 mm 9,3 km/h (2 Bft) NW 321 ° 0 min 0,000 mm 2,2 UV-I 262 W/m² 10,6 °C 12,4 °C 12,9 km/h (3 Bft)
02.10.2019 12:15 12,4 °C 89 % 1005,0 hPa 0,0 mm 7,0 km/h (2 Bft) W-NW 298 ° 0 min 0,000 mm 2,2 UV-I 267 W/m² 10,6 °C 12,4 °C 16,1 km/h (3 Bft)
02.10.2019 12:16 12,4 °C 88 % 1005,0 hPa 0,0 mm 6,6 km/h (2 Bft) N-NW 346 ° 0 min 0,000 mm 2,3 UV-I 276 W/m² 10,5 °C 12,4 °C 11,3 km/h (2 Bft)
02.10.2019 12:17 12,5 °C 89 % 1005,0 hPa 0,0 mm 9,9 km/h (2 Bft) W-NW 290 ° 0 min 0,000 mm 2,3 UV-I 283 W/m² 10,7 °C 12,5 °C 19,3 km/h (3 Bft)
02.10.2019 12:18 12,5 °C 88 % 1005,0 hPa 0,0 mm 10,3 km/h (2 Bft) W 266 ° 0 min 0,000 mm 2,4 UV-I 311 W/m² 10,6 °C 12,5 °C 16,1 km/h (3 Bft)
02.10.2019 12:19 12,6 °C 88 % 1005,0 hPa 0,0 mm 8,6 km/h (2 Bft) W 261 ° 0 min 0,000 mm 2,3 UV-I 294 W/m² 10,7 °C 12,6 °C 12,9 km/h (3 Bft)
02.10.2019 12:20 12,7 °C 88 % 1005,0 hPa 0,0 mm 11,3 km/h (2 Bft) W-SW 250 ° 0 min 0,000 mm 2,5 UV-I 294 W/m² 10,8 °C 12,7 °C 19,3 km/h (3 Bft)
02.10.2019 12:21 12,8 °C 88 % 1005,0 hPa 0,0 mm 11,4 km/h (2 Bft) W-SW 258 ° 0 min 0,000 mm 2,3 UV-I 288 W/m² 10,9 °C 12,8 °C 17,7 km/h (3 Bft)
02.10.2019 12:22 12,8 °C 86 % 1005,1 hPa 0,0 mm 11,3 km/h (2 Bft) W-SW 248 ° 0 min 0,000 mm 2,2 UV-I 274 W/m² 10,5 °C 12,8 °C 16,1 km/h (3 Bft)
02.10.2019 12:23 12,8 °C 86 % 1005,1 hPa 0,0 mm 15,3 km/h (3 Bft) N-NW 332 ° 0 min 0,000 mm 2,3 UV-I 285 W/m² 10,5 °C 12,8 °C 22,5 km/h (4 Bft)
02.10.2019 12:24 12,8 °C 86 % 1005,0 hPa 0,0 mm 11,7 km/h (2 Bft) W 269 ° 0 min 0,000 mm 2,3 UV-I 327 W/m² 10,5 °C 12,8 °C 16,1 km/h (3 Bft)
02.10.2019 12:25 12,9 °C 87 % 1005,1 hPa 0,0 mm 9,7 km/h (2 Bft) W 275 ° 0 min 0,000 mm 2,8 UV-I 417 W/m² 10,8 °C 12,9 °C 16,1 km/h (3 Bft)
02.10.2019 12:26 12,9 °C 86 % 1005,0 hPa 0,0 mm 14,5 km/h (3 Bft) S-SW 192 ° 0 min 0,000 mm 2,3 UV-I 417 W/m² 10,6 °C 12,9 °C 19,3 km/h (3 Bft)
02.10.2019 12:27 12,9 °C 85 % 1005,1 hPa 0,0 mm 13,8 km/h (3 Bft) NW 310 ° 0 min 0,000 mm 2,0 UV-I 276 W/m² 10,4 °C 12,9 °C 20,9 km/h (4 Bft)
02.10.2019 12:28 12,9 °C 86 % 1005,1 hPa 0,0 mm 10,8 km/h (2 Bft) W 277 ° 0 min 0,000 mm 1,9 UV-I 234 W/m² 10,6 °C 12,9 °C 14,5 km/h (3 Bft)
02.10.2019 12:29 12,9 °C 85 % 1005,1 hPa 0,0 mm 13,7 km/h (3 Bft) W-NW 292 ° 0 min 0,000 mm 2,0 UV-I 244 W/m² 10,4 °C 12,9 °C 19,3 km/h (3 Bft)
02.10.2019 12:30 12,9 °C 85 % 1005,1 hPa 0,0 mm 12,9 km/h (3 Bft) W 279 ° 0 min 0,000 mm 1,8 UV-I 202 W/m² 10,4 °C 12,9 °C 17,7 km/h (3 Bft)
02.10.2019 12:31 12,9 °C 85 % 1005,1 hPa 0,0 mm 7,8 km/h (2 Bft) W 281 ° 0 min 0,000 mm 1,7 UV-I 206 W/m² 10,4 °C 12,9 °C 16,1 km/h (3 Bft)
02.10.2019 12:32 12,8 °C 85 % 1005,1 hPa 0,0 mm 9,5 km/h (2 Bft) W-NW 299 ° 0 min 0,000 mm 2,1 UV-I 232 W/m² 10,3 °C 12,8 °C 14,5 km/h (3 Bft)
02.10.2019 12:33 12,8 °C 85 % 1005,1 hPa 0,0 mm 12,0 km/h (2 Bft) W 261 ° 0 min 0,000 mm 2,1 UV-I 241 W/m² 10,3 °C 12,8 °C 16,1 km/h (3 Bft)
02.10.2019 12:34 12,8 °C 83 % 1005,2 hPa 0,0 mm 19,0 km/h (3 Bft) NW 311 ° 0 min 0,000 mm 2,1 UV-I 236 W/m² 10,0 °C 12,8 °C 32,2 km/h (5 Bft)
02.10.2019 12:35 12,8 °C 83 % 1005,3 hPa 0,0 mm 15,6 km/h (3 Bft) W-NW 287 ° 0 min 0,000 mm 2,2 UV-I 257 W/m² 10,0 °C 12,8 °C 22,5 km/h (4 Bft)
02.10.2019 12:36 12,7 °C 83 % 1005,3 hPa 0,0 mm 14,3 km/h (3 Bft) NW 310 ° 0 min 0,000 mm 2,3 UV-I 272 W/m² 9,9 °C 12,7 °C 22,5 km/h (4 Bft)
02.10.2019 12:37 12,7 °C 84 % 1005,2 hPa 0,0 mm 8,6 km/h (2 Bft) W 281 ° 0 min 0,000 mm 2,3 UV-I 251 W/m² 10,1 °C 12,7 °C 16,1 km/h (3 Bft)
02.10.2019 12:38 12,7 °C 84 % 1005,2 hPa 0,0 mm 12,9 km/h (3 Bft) W 270 ° 0 min 0,000 mm 2,3 UV-I 267 W/m² 10,1 °C 12,7 °C 20,9 km/h (4 Bft)
02.10.2019 12:39 12,6 °C 83 % 1005,2 hPa 0,0 mm 13,1 km/h (3 Bft) W 267 ° 0 min 0,000 mm 2,2 UV-I 253 W/m² 9,8 °C 12,6 °C 16,1 km/h (3 Bft)
02.10.2019 12:40 12,6 °C 84 % 1005,2 hPa 0,0 mm 18,6 km/h (3 Bft) S 184 ° 0 min 0,000 mm 2,2 UV-I 262 W/m² 10,0 °C 12,6 °C 33,8 km/h (5 Bft)
02.10.2019 12:41 12,6 °C 83 % 1005,2 hPa 0,0 mm 22,6 km/h (4 Bft) S 188 ° 0 min 0,000 mm 2,4 UV-I 276 W/m² 9,8 °C 12,6 °C 32,2 km/h (5 Bft)
02.10.2019 12:42 12,6 °C 82 % 1005,1 hPa 0,0 mm 17,7 km/h (3 Bft) NW 310 ° 0 min 0,000 mm 2,5 UV-I 258 W/m² 9,6 °C 12,6 °C 25,7 km/h (4 Bft)
02.10.2019 12:43 12,5 °C 82 % 1005,1 hPa 0,0 mm 12,5 km/h (3 Bft) W-SW 257 ° 0 min 0,000 mm 2,4 UV-I 346 W/m² 9,5 °C 12,5 °C 20,9 km/h (4 Bft)
02.10.2019 12:44 12,4 °C 83 % 1005,2 hPa 0,0 mm 11,9 km/h (2 Bft) W 275 ° 0 min 0,000 mm 2,8 UV-I 346 W/m² 9,6 °C 12,4 °C 20,9 km/h (4 Bft)
02.10.2019 12:45 12,4 °C 83 % 1005,1 hPa 0,0 mm 12,9 km/h (3 Bft) W-NW 284 ° 0 min 0,000 mm 3,7 UV-I 346 W/m² 9,6 °C 12,4 °C 17,7 km/h (3 Bft)
02.10.2019 12:46 12,5 °C 84 % 1005,1 hPa 0,0 mm 8,4 km/h (2 Bft) W 272 ° 0 min 0,000 mm 2,5 UV-I 346 W/m² 9,9 °C 12,5 °C 16,1 km/h (3 Bft)
02.10.2019 12:47 12,6 °C 83 % 1005,1 hPa 0,0 mm 8,2 km/h (2 Bft) W 274 ° 0 min 0,000 mm 2,8 UV-I 346 W/m² 9,8 °C 12,6 °C 22,5 km/h (4 Bft)
02.10.2019 12:48 12,6 °C 83 % 1005,1 hPa 0,0 mm 15,7 km/h (3 Bft) W 265 ° 0 min 0,000 mm 2,9 UV-I 283 W/m² 9,8 °C 12,6 °C 24,1 km/h (4 Bft)
02.10.2019 12:49 12,6 °C 83 % 1005,2 hPa 0,0 mm 7,8 km/h (2 Bft) W-SW 249 ° 0 min 0,000 mm 2,4 UV-I 283 W/m² 9,8 °C 12,6 °C 12,9 km/h (3 Bft)
02.10.2019 12:50 12,6 °C 83 % 1005,1 hPa 0,0 mm 8,4 km/h (2 Bft) NW 305 ° 0 min 0,000 mm 2,6 UV-I 283 W/m² 9,8 °C 12,6 °C 16,1 km/h (3 Bft)
02.10.2019 12:51 12,7 °C 83 % 1005,1 hPa 0,0 mm 11,4 km/h (2 Bft) W 277 ° 0 min 0,000 mm 2,9 UV-I 283 W/m² 9,9 °C 12,7 °C 14,5 km/h (3 Bft)
02.10.2019 12:52 12,7 °C 83 % 1005,1 hPa 0,0 mm 13,5 km/h (3 Bft) W 270 ° 0 min 0,000 mm 3,3 UV-I 283 W/m² 9,9 °C 12,7 °C 24,1 km/h (4 Bft)
02.10.2019 12:53 12,9 °C 84 % 1005,1 hPa 0,0 mm 15,6 km/h (3 Bft) W 269 ° 0 min 0,000 mm 4,3 UV-I 283 W/m² 10,3 °C 12,9 °C 24,1 km/h (4 Bft)
02.10.2019 12:54 13,1 °C 83 % 1005,1 hPa 0,0 mm 14,8 km/h (3 Bft) W-NW 296 ° 1 min 0,000 mm 4,3 UV-I 972 W/m² 10,3 °C 13,1 °C 24,1 km/h (4 Bft)
02.10.2019 12:55 13,2 °C 83 % 1005,1 hPa 0,0 mm 9,1 km/h (2 Bft) S-SW 200 ° 1 min 0,000 mm 3,0 UV-I 972 W/m² 10,4 °C 13,2 °C 19,3 km/h (3 Bft)
02.10.2019 12:56 13,4 °C 83 % 1005,0 hPa 0,0 mm 8,2 km/h (2 Bft) W 268 ° 1 min 0,000 mm 2,7 UV-I 972 W/m² 10,6 °C 13,4 °C 17,7 km/h (3 Bft)
02.10.2019 12:57 13,4 °C 81 % 1005,0 hPa 0,0 mm 10,1 km/h (2 Bft) W 271 ° 1 min 0,000 mm 2,6 UV-I 972 W/m² 10,2 °C 13,4 °C 16,1 km/h (3 Bft)
02.10.2019 12:58 13,6 °C 82 % 1005,0 hPa 0,0 mm 13,7 km/h (3 Bft) W-SW 244 ° 1 min 0,000 mm 2,2 UV-I 972 W/m² 10,6 °C 13,6 °C 20,9 km/h (4 Bft)
02.10.2019 12:59 13,5 °C 81 % 1005,0 hPa 0,0 mm 11,3 km/h (2 Bft) W 276 ° 0 min 0,000 mm 1,9 UV-I 274 W/m² 10,3 °C 13,5 °C 20,9 km/h (4 Bft)
02.10.2019 13:00 13,5 °C 81 % 1005,1 hPa 0,0 mm 11,3 km/h (2 Bft) W 265 ° 0 min 0,177 mm 1,6 UV-I 225 W/m² 10,3 °C 13,5 °C 14,5 km/h (3 Bft)
02.10.2019 13:01 13,5 °C 81 % 1005,1 hPa 0,0 mm 10,4 km/h (2 Bft) NW 314 ° 0 min 0,000 mm 1,7 UV-I 220 W/m² 10,3 °C 13,5 °C 12,9 km/h (3 Bft)
02.10.2019 13:02 13,4 °C 81 % 1005,1 hPa 0,0 mm 3,4 km/h (1 Bft) SW 219 ° 0 min 0,000 mm 1,6 UV-I 213 W/m² 10,2 °C 13,4 °C 12,9 km/h (3 Bft)
02.10.2019 13:03 13,4 °C 81 % 1005,1 hPa 0,0 mm 8,9 km/h (2 Bft) S 189 ° 0 min 0,000 mm 1,8 UV-I 239 W/m² 10,2 °C 13,4 °C 14,5 km/h (3 Bft)
02.10.2019 13:04 13,4 °C 82 % 1005,0 hPa 0,0 mm 7,7 km/h (2 Bft) SW 220 ° 0 min 0,000 mm 2,1 UV-I 288 W/m² 10,4 °C 13,4 °C 11,3 km/h (2 Bft)
02.10.2019 13:05 13,4 °C 82 % 1005,1 hPa 0,0 mm 7,6 km/h (2 Bft) SW 218 ° 0 min 0,000 mm 2,1 UV-I 297 W/m² 10,4 °C 13,4 °C 14,5 km/h (3 Bft)
02.10.2019 13:06 13,3 °C 80 % 1005,1 hPa 0,0 mm 6,0 km/h (2 Bft) W-SW 240 ° 0 min 0,000 mm 2,0 UV-I 274 W/m² 9,9 °C 13,3 °C 8,0 km/h (2 Bft)
02.10.2019 13:07 13,3 °C 81 % 1005,2 hPa 0,0 mm 16,6 km/h (3 Bft) W 261 ° 0 min 0,000 mm 2,0 UV-I 279 W/m² 10,1 °C 13,3 °C 25,7 km/h (4 Bft)
02.10.2019 13:08 13,3 °C 81 % 1005,2 hPa 0,0 mm 18,4 km/h (3 Bft) W 265 ° 0 min 0,000 mm 2,0 UV-I 288 W/m² 10,1 °C 13,3 °C 25,7 km/h (4 Bft)
02.10.2019 13:09 13,3 °C 81 % 1005,2 hPa 0,0 mm 12,1 km/h (2 Bft) W 269 ° 0 min 0,000 mm 1,8 UV-I 278 W/m² 10,1 °C 13,3 °C 20,9 km/h (4 Bft)
02.10.2019 13:10 13,2 °C 80 % 1005,2 hPa 0,0 mm 16,1 km/h (3 Bft) W 263 ° 0 min 0,000 mm 1,5 UV-I 220 W/m² 9,8 °C 13,2 °C 30,6 km/h (5 Bft)
02.10.2019 13:11 13,2 °C 80 % 1005,2 hPa 0,0 mm 15,2 km/h (3 Bft) W 265 ° 0 min 0,000 mm 1,6 UV-I 207 W/m² 9,8 °C 13,2 °C 19,3 km/h (3 Bft)
02.10.2019 13:12 13,1 °C 80 % 1005,1 hPa 0,0 mm 13,7 km/h (3 Bft) W 279 ° 0 min 0,000 mm 1,7 UV-I 207 W/m² 9,7 °C 13,1 °C 24,1 km/h (4 Bft)
02.10.2019 13:13 13,1 °C 80 % 1005,2 hPa 0,0 mm 7,4 km/h (2 Bft) W-SW 257 ° 0 min 0,000 mm 1,5 UV-I 197 W/m² 9,7 °C 13,1 °C 12,9 km/h (3 Bft)
02.10.2019 13:14 13,1 °C 80 % 1005,2 hPa 0,0 mm 16,8 km/h (3 Bft) W 280 ° 0 min 0,000 mm 1,9 UV-I 248 W/m² 9,7 °C 13,1 °C 20,9 km/h (4 Bft)
02.10.2019 13:15 13,1 °C 80 % 1005,1 hPa 0,0 mm 12,5 km/h (3 Bft) N-NW 328 ° 0 min 0,000 mm 2,3 UV-I 248 W/m² 9,7 °C 13,1 °C 17,7 km/h (3 Bft)
02.10.2019 13:16 13,1 °C 80 % 1005,1 hPa 0,0 mm 15,4 km/h (3 Bft) W-SW 257 ° 0 min 0,000 mm 2,6 UV-I 353 W/m² 9,7 °C 13,1 °C 22,5 km/h (4 Bft)
02.10.2019 13:17 13,1 °C 80 % 1005,1 hPa 0,0 mm 18,5 km/h (3 Bft) W-SW 247 ° 0 min 0,000 mm 2,7 UV-I 362 W/m² 9,7 °C 13,1 °C 29,0 km/h (5 Bft)
02.10.2019 13:18 13,2 °C 80 % 1005,1 hPa 0,0 mm 23,3 km/h (4 Bft) W-SW 252 ° 0 min 0,000 mm 2,8 UV-I 343 W/m² 9,8 °C 13,2 °C 32,2 km/h (5 Bft)
02.10.2019 13:19 13,2 °C 79 % 1005,0 hPa 0,0 mm 14,2 km/h (3 Bft) W-SW 244 ° 0 min 0,000 mm 2,5 UV-I 304 W/m² 9,6 °C 13,2 °C 30,6 km/h (5 Bft)
02.10.2019 13:20 13,2 °C 79 % 1005,0 hPa 0,0 mm 16,2 km/h (3 Bft) W 273 ° 0 min 0,000 mm 2,5 UV-I 292 W/m² 9,6 °C 13,2 °C 27,4 km/h (4 Bft)
02.10.2019 13:21 13,2 °C 79 % 1005,0 hPa 0,0 mm 10,7 km/h (2 Bft) W 274 ° 0 min 0,000 mm 2,5 UV-I 292 W/m² 9,6 °C 13,2 °C 17,7 km/h (3 Bft)
02.10.2019 13:22 13,3 °C 79 % 1005,0 hPa 0,0 mm 13,3 km/h (3 Bft) W-SW 243 ° 0 min 0,000 mm 2,4 UV-I 274 W/m² 9,7 °C 13,3 °C 20,9 km/h (4 Bft)
02.10.2019 13:23 13,3 °C 80 % 1005,0 hPa 0,0 mm 13,3 km/h (3 Bft) W-SW 247 ° 0 min 0,000 mm 2,4 UV-I 285 W/m² 9,9 °C 13,3 °C 22,5 km/h (4 Bft)
02.10.2019 13:24 13,3 °C 78 % 1005,1 hPa 0,0 mm 11,7 km/h (2 Bft) S-SW 209 ° 0 min 0,000 mm 2,3 UV-I 309 W/m² 9,5 °C 13,3 °C 17,7 km/h (3 Bft)
02.10.2019 13:25 13,3 °C 79 % 1005,1 hPa 0,0 mm 15,0 km/h (3 Bft) W-SW 256 ° 0 min 0,000 mm 2,0 UV-I 276 W/m² 9,7 °C 13,3 °C 20,9 km/h (4 Bft)
02.10.2019 13:26 13,3 °C 79 % 1005,1 hPa 0,0 mm 14,6 km/h (3 Bft) W 269 ° 0 min 0,000 mm 2,2 UV-I 276 W/m² 9,7 °C 13,3 °C 22,5 km/h (4 Bft)
02.10.2019 13:27 13,3 °C 79 % 1005,1 hPa 0,0 mm 12,6 km/h (3 Bft) S-SW 213 ° 0 min 0,000 mm 4,0 UV-I 371 W/m² 9,7 °C 13,3 °C 19,3 km/h (3 Bft)
02.10.2019 13:28 13,4 °C 80 % 1005,1 hPa 0,0 mm 10,0 km/h (2 Bft) W 275 ° 0 min 0,000 mm 2,1 UV-I 327 W/m² 10,0 °C 13,4 °C 12,9 km/h (3 Bft)
02.10.2019 13:29 13,4 °C 80 % 1005,1 hPa 0,0 mm 13,4 km/h (3 Bft) W-SW 242 ° 0 min 0,000 mm 1,6 UV-I 230 W/m² 10,0 °C 13,4 °C 24,1 km/h (4 Bft)
02.10.2019 13:30 13,5 °C 79 % 1005,1 hPa 0,0 mm 15,7 km/h (3 Bft) W-SW 258 ° 0 min 0,000 mm 3,8 UV-I 230 W/m² 9,9 °C 13,5 °C 22,5 km/h (4 Bft)
02.10.2019 13:31 13,5 °C 79 % 1005,0 hPa 0,0 mm 10,3 km/h (2 Bft) W 277 ° 0 min 0,000 mm 2,0 UV-I 230 W/m² 9,9 °C 13,5 °C 19,3 km/h (3 Bft)
02.10.2019 13:32 13,6 °C 79 % 1005,1 hPa 0,0 mm 10,5 km/h (2 Bft) SW 233 ° 0 min 0,000 mm 1,9 UV-I 262 W/m² 10,0 °C 13,6 °C 20,9 km/h (4 Bft)
02.10.2019 13:33 13,5 °C 78 % 1005,0 hPa 0,0 mm 8,2 km/h (2 Bft) SW 225 ° 0 min 0,000 mm 2,0 UV-I 265 W/m² 9,7 °C 13,5 °C 12,9 km/h (3 Bft)
02.10.2019 13:34 13,5 °C 79 % 1005,0 hPa 0,0 mm 5,9 km/h (2 Bft) W-NW 296 ° 0 min 0,000 mm 2,0 UV-I 285 W/m² 9,9 °C 13,5 °C 11,3 km/h (2 Bft)
02.10.2019 13:35 13,5 °C 79 % 1005,1 hPa 0,0 mm 8,0 km/h (2 Bft) W-SW 251 ° 0 min 0,000 mm 1,8 UV-I 236 W/m² 9,9 °C 13,5 °C 14,5 km/h (3 Bft)
02.10.2019 13:36 13,5 °C 79 % 1005,1 hPa 0,0 mm 11,5 km/h (2 Bft) W 274 ° 0 min 0,000 mm 1,6 UV-I 239 W/m² 9,9 °C 13,5 °C 19,3 km/h (3 Bft)
02.10.2019 13:37 13,4 °C 78 % 1005,0 hPa 0,0 mm 14,3 km/h (3 Bft) W 262 ° 0 min 0,000 mm 2,0 UV-I 306 W/m² 9,6 °C 13,4 °C 17,7 km/h (3 Bft)
02.10.2019 13:38 13,4 °C 79 % 1005,0 hPa 0,0 mm 11,1 km/h (2 Bft) W 264 ° 0 min 0,000 mm 1,9 UV-I 285 W/m² 9,8 °C 13,4 °C 17,7 km/h (3 Bft)
02.10.2019 13:39 13,5 °C 80 % 1005,0 hPa 0,0 mm 6,6 km/h (2 Bft) W 271 ° 0 min 0,000 mm 2,0 UV-I 278 W/m² 10,1 °C 13,5 °C 12,9 km/h (3 Bft)
02.10.2019 13:40 13,5 °C 80 % 1005,0 hPa 0,0 mm 6,1 km/h (2 Bft) W 271 ° 0 min 0,000 mm 2,0 UV-I 278 W/m² 10,1 °C 13,5 °C 12,9 km/h (3 Bft)
02.10.2019 13:41 13,5 °C 79 % 1005,0 hPa 0,0 mm 6,0 km/h (2 Bft) W-SW 257 ° 0 min 0,000 mm 1,8 UV-I 278 W/m² 9,9 °C 13,5 °C 12,9 km/h (3 Bft)
02.10.2019 13:42 13,4 °C 80 % 1005,0 hPa 0,0 mm 6,6 km/h (2 Bft) SW 220 ° 0 min 0,000 mm 1,6 UV-I 183 W/m² 10,0 °C 13,4 °C 11,3 km/h (2 Bft)
02.10.2019 13:43 13,4 °C 79 % 1005,0 hPa 0,0 mm 7,3 km/h (2 Bft) W 279 ° 0 min 0,000 mm 1,5 UV-I 188 W/m² 9,8 °C 13,4 °C 11,3 km/h (2 Bft)
02.10.2019 13:44 13,4 °C 79 % 1005,0 hPa 0,0 mm 10,1 km/h (2 Bft) SW 223 ° 0 min 0,000 mm 1,9 UV-I 188 W/m² 9,8 °C 13,4 °C 12,9 km/h (3 Bft)
02.10.2019 13:45 13,4 °C 80 % 1005,0 hPa 0,0 mm 11,7 km/h (2 Bft) W 278 ° 0 min 0,000 mm 2,2 UV-I 188 W/m² 10,0 °C 13,4 °C 14,5 km/h (3 Bft)
02.10.2019 13:46 13,6 °C 80 % 1005,0 hPa 0,0 mm 9,2 km/h (2 Bft) W 261 ° 1 min 0,000 mm 3,4 UV-I 666 W/m² 10,2 °C 13,6 °C 12,9 km/h (3 Bft)
02.10.2019 13:47 13,6 °C 80 % 1004,9 hPa 0,0 mm 14,3 km/h (3 Bft) W 267 ° 0 min 0,000 mm 2,6 UV-I 223 W/m² 10,2 °C 13,6 °C 24,1 km/h (4 Bft)
02.10.2019 13:48 13,6 °C 78 % 1004,9 hPa 0,0 mm 14,7 km/h (3 Bft) W-NW 284 ° 0 min 0,000 mm 2,8 UV-I 241 W/m² 9,8 °C 13,6 °C 19,3 km/h (3 Bft)
02.10.2019 13:49 13,6 °C 78 % 1004,9 hPa 0,0 mm 14,2 km/h (3 Bft) W 269 ° 0 min 0,000 mm 3,4 UV-I 318 W/m² 9,8 °C 13,6 °C 22,5 km/h (4 Bft)
02.10.2019 13:50 13,6 °C 78 % 1004,9 hPa 0,0 mm 18,8 km/h (3 Bft) W 271 ° 0 min 0,000 mm 2,8 UV-I 367 W/m² 9,8 °C 13,6 °C 22,5 km/h (4 Bft)
02.10.2019 13:51 13,7 °C 78 % 1004,9 hPa 0,0 mm 15,8 km/h (3 Bft) W-NW 287 ° 0 min 0,000 mm 2,2 UV-I 367 W/m² 9,9 °C 13,7 °C 25,7 km/h (4 Bft)
02.10.2019 13:52 13,6 °C 77 % 1004,8 hPa 0,0 mm 18,4 km/h (3 Bft) W 265 ° 0 min 0,000 mm 2,2 UV-I 223 W/m² 9,6 °C 13,6 °C 30,6 km/h (5 Bft)
02.10.2019 13:53 13,6 °C 78 % 1004,9 hPa 0,0 mm 11,7 km/h (2 Bft) W-SW 255 ° 0 min 0,000 mm 2,8 UV-I 251 W/m² 9,8 °C 13,6 °C 19,3 km/h (3 Bft)
02.10.2019 13:54 13,7 °C 76 % 1004,9 hPa 0,0 mm 20,3 km/h (4 Bft) W-SW 258 ° 0 min 0,000 mm 3,8 UV-I 251 W/m² 9,5 °C 13,7 °C 32,2 km/h (5 Bft)
02.10.2019 13:55 13,7 °C 77 % 1004,8 hPa 0,0 mm 19,5 km/h (3 Bft) W-SW 254 ° 0 min 0,000 mm 2,6 UV-I 251 W/m² 9,7 °C 13,7 °C 29,0 km/h (5 Bft)
02.10.2019 13:56 13,7 °C 76 % 1004,8 hPa 0,0 mm 20,9 km/h (4 Bft) W 279 ° 0 min 0,000 mm 2,2 UV-I 260 W/m² 9,5 °C 13,7 °C 25,7 km/h (4 Bft)
02.10.2019 13:57 13,6 °C 76 % 1004,8 hPa 0,0 mm 16,7 km/h (3 Bft) W-NW 300 ° 0 min 0,000 mm 2,1 UV-I 183 W/m² 9,4 °C 13,6 °C 20,9 km/h (4 Bft)
02.10.2019 13:58 13,6 °C 77 % 1004,9 hPa 0,0 mm 14,8 km/h (3 Bft) W-SW 245 ° 0 min 0,000 mm 2,1 UV-I 195 W/m² 9,6 °C 13,6 °C 19,3 km/h (3 Bft)
02.10.2019 13:59 13,5 °C 76 % 1004,7 hPa 0,0 mm 11,9 km/h (2 Bft) W 261 ° 0 min 0,000 mm 2,1 UV-I 195 W/m² 9,4 °C 13,5 °C 17,7 km/h (3 Bft)
02.10.2019 14:00 13,5 °C 77 % 1004,8 hPa 0,0 mm 10,2 km/h (2 Bft) NW 306 ° 0 min 0,000 mm 2,9 UV-I 195 W/m² 9,5 °C 13,5 °C 16,1 km/h (3 Bft)
02.10.2019 14:01 13,4 °C 77 % 1004,8 hPa 0,0 mm 17,2 km/h (3 Bft) W 267 ° 0 min 0,178 mm 2,6 UV-I 135 W/m² 9,5 °C 13,4 °C 25,7 km/h (4 Bft)
02.10.2019 14:02 13,4 °C 78 % 1004,8 hPa 0,0 mm 11,7 km/h (2 Bft) W 263 ° 0 min 0,000 mm 3,5 UV-I 135 W/m² 9,6 °C 13,4 °C 19,3 km/h (3 Bft)
02.10.2019 14:03 13,4 °C 77 % 1004,8 hPa 0,0 mm 13,9 km/h (3 Bft) NW 311 ° 0 min 0,000 mm 1,9 UV-I 135 W/m² 9,5 °C 13,4 °C 19,3 km/h (3 Bft)
02.10.2019 14:04 13,3 °C 77 % 1004,7 hPa 0,0 mm 12,0 km/h (2 Bft) W 273 ° 0 min 0,000 mm 1,8 UV-I 118 W/m² 9,4 °C 13,3 °C 22,5 km/h (4 Bft)
02.10.2019 14:05 13,3 °C 77 % 1004,8 hPa 0,0 mm 15,6 km/h (3 Bft) W 267 ° 0 min 0,000 mm 1,8 UV-I 132 W/m² 9,4 °C 13,3 °C 19,3 km/h (3 Bft)
02.10.2019 14:06 13,2 °C 77 % 1004,7 hPa 0,0 mm 12,1 km/h (2 Bft) W-NW 295 ° 0 min 0,000 mm 1,9 UV-I 151 W/m² 9,3 °C 13,2 °C 20,9 km/h (4 Bft)
02.10.2019 14:07 13,2 °C 77 % 1004,8 hPa 0,0 mm 11,7 km/h (2 Bft) W-NW 294 ° 0 min 0,000 mm 1,8 UV-I 141 W/m² 9,3 °C 13,2 °C 19,3 km/h (3 Bft)
02.10.2019 14:08 13,2 °C 77 % 1004,8 hPa 0,0 mm 16,7 km/h (3 Bft) W-SW 248 ° 0 min 0,000 mm 1,7 UV-I 137 W/m² 9,3 °C 13,2 °C 27,4 km/h (4 Bft)
02.10.2019 14:09 13,1 °C 77 % 1004,8 hPa 0,0 mm 14,3 km/h (3 Bft) W 277 ° 0 min 0,000 mm 1,8 UV-I 148 W/m² 9,2 °C 13,1 °C 20,9 km/h (4 Bft)
02.10.2019 14:10 13,1 °C 77 % 1004,8 hPa 0,0 mm 12,9 km/h (3 Bft) W-NW 292 ° 0 min 0,000 mm 2,1 UV-I 216 W/m² 9,2 °C 13,1 °C 16,1 km/h (3 Bft)
02.10.2019 14:11 13,1 °C 78 % 1004,8 hPa 0,0 mm 7,5 km/h (2 Bft) W 259 ° 0 min 0,000 mm 3,7 UV-I 218 W/m² 9,4 °C 13,1 °C 16,1 km/h (3 Bft)
02.10.2019 14:12 13,2 °C 78 % 1004,7 hPa 0,0 mm 4,4 km/h (1 Bft) W 281 ° 1 min 0,000 mm 3,7 UV-I 645 W/m² 9,4 °C 13,2 °C 11,3 km/h (2 Bft)
02.10.2019 14:13 13,3 °C 80 % 1004,7 hPa 0,0 mm 9,4 km/h (2 Bft) W-SW 250 ° 1 min 0,000 mm 3,7 UV-I 631 W/m² 9,9 °C 13,3 °C 16,1 km/h (3 Bft)
02.10.2019 14:14 13,4 °C 77 % 1004,8 hPa 0,0 mm 11,7 km/h (2 Bft) N 9 ° 1 min 0,000 mm 3,6 UV-I 610 W/m² 9,5 °C 13,4 °C 16,1 km/h (3 Bft)
02.10.2019 14:15 13,6 °C 78 % 1004,7 hPa 0,0 mm 15,8 km/h (3 Bft) W-SW 253 ° 1 min 0,000 mm 3,6 UV-I 603 W/m² 9,8 °C 13,6 °C 20,9 km/h (4 Bft)
02.10.2019 14:16 13,7 °C 78 % 1004,7 hPa 0,0 mm 9,7 km/h (2 Bft) W-NW 297 ° 1 min 0,000 mm 3,6 UV-I 605 W/m² 9,9 °C 13,7 °C 14,5 km/h (3 Bft)
02.10.2019 14:17 13,8 °C 78 % 1004,7 hPa 0,0 mm 5,4 km/h (1 Bft) W 267 ° 1 min 0,000 mm 2,7 UV-I 629 W/m² 10,0 °C 13,8 °C 14,5 km/h (3 Bft)
02.10.2019 14:18 14,0 °C 78 % 1004,6 hPa 0,0 mm 8,2 km/h (2 Bft) W 279 ° 1 min 0,000 mm 3,7 UV-I 656 W/m² 10,2 °C 14,0 °C 14,5 km/h (3 Bft)
02.10.2019 14:19 14,1 °C 77 % 1004,6 hPa 0,0 mm 9,6 km/h (2 Bft) NW 313 ° 1 min 0,000 mm 1,9 UV-I 656 W/m² 10,1 °C 14,1 °C 17,7 km/h (3 Bft)
02.10.2019 14:20 14,1 °C 77 % 1004,6 hPa 0,0 mm 11,2 km/h (2 Bft) W 259 ° 0 min 0,000 mm 1,7 UV-I 144 W/m² 10,1 °C 14,1 °C 17,7 km/h (3 Bft)
02.10.2019 14:21 14,1 °C 76 % 1004,6 hPa 0,0 mm 13,0 km/h (3 Bft) W 280 ° 0 min 0,000 mm 2,0 UV-I 195 W/m² 9,9 °C 14,1 °C 25,7 km/h (4 Bft)
02.10.2019 14:22 14,0 °C 75 % 1004,7 hPa 0,2 mm 15,4 km/h (3 Bft) W-NW 296 ° 0 min 0,000 mm 3,7 UV-I 281 W/m² 9,6 °C 14,0 °C 20,9 km/h (4 Bft)
02.10.2019 14:23 14,0 °C 75 % 1004,8 hPa 0,0 mm 10,0 km/h (2 Bft) N-NW 331 ° 0 min 0,000 mm 2,0 UV-I 281 W/m² 9,6 °C 14,0 °C 22,5 km/h (4 Bft)
02.10.2019 14:24 14,0 °C 75 % 1004,7 hPa 0,0 mm 12,9 km/h (3 Bft) W 270 ° 0 min 0,000 mm 3,7 UV-I 281 W/m² 9,6 °C 14,0 °C 22,5 km/h (4 Bft)
02.10.2019 14:25 14,0 °C 76 % 1004,7 hPa 0,0 mm 9,9 km/h (2 Bft) W-NW 295 ° 0 min 0,000 mm 3,8 UV-I 281 W/m² 9,8 °C 14,0 °C 17,7 km/h (3 Bft)
02.10.2019 14:26 14,1 °C 75 % 1004,7 hPa 0,0 mm 7,0 km/h (2 Bft) W 276 ° 1 min 0,000 mm 3,7 UV-I 719 W/m² 9,7 °C 14,1 °C 17,7 km/h (3 Bft)
02.10.2019 14:27 14,2 °C 75 % 1004,8 hPa 0,0 mm 6,4 km/h (2 Bft) W 267 ° 1 min 0,000 mm 2,4 UV-I 809 W/m² 9,8 °C 14,2 °C 12,9 km/h (3 Bft)
02.10.2019 14:28 14,4 °C 76 % 1004,8 hPa 0,0 mm 8,2 km/h (2 Bft) W-NW 284 ° 1 min 0,000 mm 2,5 UV-I 809 W/m² 10,2 °C 14,4 °C 12,9 km/h (3 Bft)
02.10.2019 14:29 14,4 °C 75 % 1004,8 hPa 0,0 mm 10,9 km/h (2 Bft) W-NW 288 ° 1 min 0,000 mm 2,5 UV-I 809 W/m² 10,0 °C 14,4 °C 20,9 km/h (4 Bft)
02.10.2019 14:30 14,5 °C 74 % 1004,7 hPa 0,0 mm 7,7 km/h (2 Bft) W-SW 250 ° 1 min 0,000 mm 2,1 UV-I 809 W/m² 9,9 °C 14,5 °C 12,9 km/h (3 Bft)
02.10.2019 14:31 14,6 °C 75 % 1004,7 hPa 0,0 mm 10,2 km/h (2 Bft) W 266 ° 0 min 0,000 mm 2,3 UV-I 290 W/m² 10,2 °C 14,6 °C 17,7 km/h (3 Bft)
02.10.2019 14:32 14,6 °C 75 % 1004,8 hPa 0,0 mm 7,3 km/h (2 Bft) NW 314 ° 0 min 0,000 mm 2,4 UV-I 327 W/m² 10,2 °C 14,6 °C 12,9 km/h (3 Bft)
02.10.2019 14:33 14,5 °C 75 % 1004,7 hPa 0,0 mm 7,4 km/h (2 Bft) W 279 ° 0 min 0,000 mm 3,9 UV-I 327 W/m² 10,1 °C 14,5 °C 11,3 km/h (2 Bft)
02.10.2019 14:34 14,6 °C 76 % 1004,7 hPa 0,0 mm 8,4 km/h (2 Bft) W-SW 257 ° 0 min 0,000 mm 3,8 UV-I 587 W/m² 10,4 °C 14,6 °C 14,5 km/h (3 Bft)
02.10.2019 14:35 14,6 °C 75 % 1004,7 hPa 0,0 mm 6,5 km/h (2 Bft) W 271 ° 0 min 0,000 mm 2,6 UV-I 294 W/m² 10,2 °C 14,6 °C 11,3 km/h (2 Bft)
02.10.2019 14:36 14,6 °C 75 % 1004,8 hPa 0,0 mm 8,0 km/h (2 Bft) W-NW 292 ° 0 min 0,000 mm 3,7 UV-I 294 W/m² 10,2 °C 14,6 °C 17,7 km/h (3 Bft)
02.10.2019 14:37 14,6 °C 74 % 1004,8 hPa 0,0 mm 9,4 km/h (2 Bft) W 279 ° 0 min 0,000 mm 3,8 UV-I 294 W/m² 10,0 °C 14,6 °C 14,5 km/h (3 Bft)
02.10.2019 14:38 14,6 °C 75 % 1004,8 hPa 0,0 mm 14,1 km/h (3 Bft) W 264 ° 1 min 0,000 mm 3,7 UV-I 613 W/m² 10,2 °C 14,6 °C 17,7 km/h (3 Bft)
02.10.2019 14:39 14,7 °C 75 % 1004,8 hPa 0,0 mm 13,4 km/h (3 Bft) W 261 ° 1 min 0,000 mm 3,7 UV-I 686 W/m² 10,3 °C 14,7 °C 19,3 km/h (3 Bft)
02.10.2019 14:40 14,7 °C 73 % 1004,7 hPa 0,0 mm 10,2 km/h (2 Bft) W-NW 286 ° 1 min 0,000 mm 3,7 UV-I 677 W/m² 9,9 °C 14,7 °C 17,7 km/h (3 Bft)
02.10.2019 14:41 14,8 °C 74 % 1004,7 hPa 0,0 mm 10,5 km/h (2 Bft) W-SW 254 ° 1 min 0,000 mm 3,6 UV-I 680 W/m² 10,2 °C 14,8 °C 16,1 km/h (3 Bft)
02.10.2019 14:42 14,8 °C 73 % 1004,8 hPa 0,0 mm 9,5 km/h (2 Bft) W 259 ° 1 min 0,000 mm 3,5 UV-I 621 W/m² 10,0 °C 14,8 °C 16,1 km/h (3 Bft)
02.10.2019 14:43 14,7 °C 72 % 1004,7 hPa 0,0 mm 15,3 km/h (3 Bft) W-SW 250 ° 1 min 0,000 mm 3,6 UV-I 619 W/m² 9,7 °C 14,7 °C 20,9 km/h (4 Bft)
02.10.2019 14:44 14,7 °C 74 % 1004,7 hPa 0,0 mm 13,2 km/h (3 Bft) N-NW 342 ° 0 min 0,000 mm 3,5 UV-I 592 W/m² 10,1 °C 14,7 °C 19,3 km/h (3 Bft)
02.10.2019 14:45 14,7 °C 73 % 1004,7 hPa 0,0 mm 12,2 km/h (2 Bft) S-SW 192 ° 0 min 0,000 mm 3,5 UV-I 573 W/m² 9,9 °C 14,7 °C 19,3 km/h (3 Bft)
02.10.2019 14:46 14,6 °C 73 % 1004,7 hPa 0,0 mm 8,3 km/h (2 Bft) W 261 ° 0 min 0,000 mm 3,5 UV-I 573 W/m² 9,8 °C 14,6 °C 12,9 km/h (3 Bft)
02.10.2019 14:47 14,6 °C 73 % 1004,7 hPa 0,0 mm 11,3 km/h (2 Bft) NW 320 ° 0 min 0,000 mm 3,4 UV-I 573 W/m² 9,8 °C 14,6 °C 17,7 km/h (3 Bft)
02.10.2019 14:48 14,6 °C 74 % 1004,7 hPa 0,0 mm 13,8 km/h (3 Bft) W 263 ° 1 min 0,000 mm 3,0 UV-I 610 W/m² 10,0 °C 14,6 °C 17,7 km/h (3 Bft)
02.10.2019 14:49 14,6 °C 72 % 1004,7 hPa 0,0 mm 20,4 km/h (4 Bft) W-NW 292 ° 1 min 0,000 mm 1,8 UV-I 610 W/m² 9,6 °C 14,6 °C 24,1 km/h (4 Bft)
02.10.2019 14:50 14,4 °C 72 % 1004,7 hPa 0,0 mm 20,0 km/h (4 Bft) W 273 ° 1 min 0,000 mm 1,8 UV-I 610 W/m² 9,4 °C 14,4 °C 25,7 km/h (4 Bft)
02.10.2019 14:51 14,3 °C 72 % 1004,7 hPa 0,0 mm 13,7 km/h (3 Bft) W-NW 294 ° 1 min 0,000 mm 2,7 UV-I 610 W/m² 9,3 °C 14,3 °C 20,9 km/h (4 Bft)
02.10.2019 14:52 14,2 °C 72 % 1004,7 hPa 0,0 mm 11,8 km/h (2 Bft) W-NW 282 ° 0 min 0,000 mm 3,2 UV-I 555 W/m² 9,2 °C 14,2 °C 19,3 km/h (3 Bft)
02.10.2019 14:53 14,2 °C 74 % 1004,7 hPa 0,0 mm 12,2 km/h (2 Bft) W 279 ° 0 min 0,000 mm 3,2 UV-I 547 W/m² 9,6 °C 14,2 °C 17,7 km/h (3 Bft)
02.10.2019 14:54 14,2 °C 74 % 1004,7 hPa 0,0 mm 8,0 km/h (2 Bft) NW 306 ° 0 min 0,000 mm 3,2 UV-I 543 W/m² 9,6 °C 14,2 °C 11,3 km/h (2 Bft)
02.10.2019 14:55 14,3 °C 74 % 1004,6 hPa 0,0 mm 11,1 km/h (2 Bft) W-SW 257 ° 0 min 0,000 mm 3,2 UV-I 541 W/m² 9,7 °C 14,3 °C 24,1 km/h (4 Bft)
02.10.2019 14:56 14,3 °C 73 % 1004,6 hPa 0,0 mm 15,3 km/h (3 Bft) NW 316 ° 0 min 0,000 mm 3,2 UV-I 541 W/m² 9,5 °C 14,3 °C 17,7 km/h (3 Bft)
02.10.2019 14:57 14,3 °C 73 % 1004,6 hPa 0,0 mm 12,0 km/h (2 Bft) W 263 ° 0 min 0,000 mm 3,1 UV-I 538 W/m² 9,5 °C 14,3 °C 17,7 km/h (3 Bft)
02.10.2019 14:58 14,2 °C 73 % 1004,6 hPa 0,0 mm 12,5 km/h (3 Bft) W 277 ° 0 min 0,000 mm 3,1 UV-I 536 W/m² 9,4 °C 14,2 °C 16,1 km/h (3 Bft)
02.10.2019 14:59 14,3 °C 74 % 1004,6 hPa 0,0 mm 11,0 km/h (2 Bft) W 271 ° 0 min 0,000 mm 3,1 UV-I 534 W/m² 9,7 °C 14,3 °C 14,5 km/h (3 Bft)
02.10.2019 15:00 14,3 °C 74 % 1004,6 hPa 0,0 mm 9,3 km/h (2 Bft) W 279 ° 0 min 0,000 mm 3,1 UV-I 534 W/m² 9,7 °C 14,3 °C 14,5 km/h (3 Bft)
02.10.2019 15:01 14,4 °C 75 % 1004,5 hPa 0,0 mm 12,2 km/h (2 Bft) W 269 ° 0 min 0,280 mm 3,1 UV-I 531 W/m² 10,0 °C 14,4 °C 16,1 km/h (3 Bft)
02.10.2019 15:02 14,6 °C 75 % 1004,6 hPa 0,0 mm 10,3 km/h (2 Bft) SW 217 ° 0 min 0,000 mm 3,1 UV-I 529 W/m² 10,2 °C 14,6 °C 14,5 km/h (3 Bft)
02.10.2019 15:03 14,6 °C 74 % 1004,6 hPa 0,0 mm 11,7 km/h (2 Bft) NW 325 ° 0 min 0,000 mm 3,1 UV-I 529 W/m² 10,0 °C 14,6 °C 22,5 km/h (4 Bft)
02.10.2019 15:04 14,6 °C 73 % 1004,6 hPa 0,0 mm 13,1 km/h (3 Bft) W 279 ° 0 min 0,000 mm 3,1 UV-I 531 W/m² 9,8 °C 14,6 °C 17,7 km/h (3 Bft)
02.10.2019 15:05 14,6 °C 74 % 1004,7 hPa 0,0 mm 15,6 km/h (3 Bft) NW 313 ° 0 min 0,000 mm 3,0 UV-I 526 W/m² 10,0 °C 14,6 °C 22,5 km/h (4 Bft)
02.10.2019 15:06 14,6 °C 73 % 1004,8 hPa 0,0 mm 18,2 km/h (3 Bft) W 260 ° 0 min 0,000 mm 3,0 UV-I 524 W/m² 9,8 °C 14,6 °C 40,2 km/h (6 Bft)
02.10.2019 15:07 14,4 °C 71 % 1004,8 hPa 0,0 mm 18,1 km/h (3 Bft) W 270 ° 0 min 0,000 mm 2,7 UV-I 534 W/m² 9,2 °C 14,4 °C 32,2 km/h (5 Bft)
02.10.2019 15:08 14,4 °C 71 % 1004,7 hPa 0,0 mm 14,5 km/h (3 Bft) W 281 ° 0 min 0,000 mm 1,9 UV-I 534 W/m² 9,2 °C 14,4 °C 20,9 km/h (4 Bft)
02.10.2019 15:09 14,3 °C 71 % 1004,7 hPa 0,0 mm 15,0 km/h (3 Bft) W 268 ° 0 min 0,000 mm 2,7 UV-I 313 W/m² 9,1 °C 14,3 °C 24,1 km/h (4 Bft)
02.10.2019 15:10 14,3 °C 71 % 1004,8 hPa 0,0 mm 10,1 km/h (2 Bft) W 259 ° 0 min 0,000 mm 3,0 UV-I 313 W/m² 9,1 °C 14,3 °C 17,7 km/h (3 Bft)
02.10.2019 15:11 14,3 °C 73 % 1004,8 hPa 0,0 mm 7,5 km/h (2 Bft) S 180 ° 0 min 0,000 mm 2,5 UV-I 313 W/m² 9,5 °C 14,3 °C 14,5 km/h (3 Bft)
02.10.2019 15:12 14,3 °C 73 % 1004,8 hPa 0,0 mm 4,7 km/h (1 Bft) W 265 ° 0 min 0,000 mm 1,9 UV-I 313 W/m² 9,5 °C 14,3 °C 11,3 km/h (2 Bft)
02.10.2019 15:13 14,3 °C 73 % 1004,8 hPa 0,0 mm 10,1 km/h (2 Bft) W-SW 254 ° 0 min 0,000 mm 2,9 UV-I 313 W/m² 9,5 °C 14,3 °C 14,5 km/h (3 Bft)
02.10.2019 15:14 14,3 °C 74 % 1004,9 hPa 0,0 mm 9,6 km/h (2 Bft) W-NW 288 ° 0 min 0,000 mm 2,5 UV-I 563 W/m² 9,7 °C 14,3 °C 17,7 km/h (3 Bft)
02.10.2019 15:15 14,4 °C 73 % 1004,8 hPa 0,0 mm 14,2 km/h (3 Bft) W-NW 295 ° 1 min 0,000 mm 2,9 UV-I 635 W/m² 9,6 °C 14,4 °C 19,3 km/h (3 Bft)
02.10.2019 15:16 14,5 °C 74 % 1004,9 hPa 0,0 mm 8,4 km/h (2 Bft) W 275 ° 0 min 0,000 mm 2,0 UV-I 543 W/m² 9,9 °C 14,5 °C 14,5 km/h (3 Bft)
02.10.2019 15:17 14,6 °C 74 % 1004,9 hPa 0,0 mm 13,1 km/h (3 Bft) N-NW 335 ° 1 min 0,000 mm 2,6 UV-I 612 W/m² 10,0 °C 14,6 °C 27,4 km/h (4 Bft)
02.10.2019 15:18 14,6 °C 72 % 1004,9 hPa 0,0 mm 13,5 km/h (3 Bft) W 261 ° 1 min 0,000 mm 1,8 UV-I 612 W/m² 9,6 °C 14,6 °C 25,7 km/h (4 Bft)
02.10.2019 15:19 14,6 °C 72 % 1004,9 hPa 0,0 mm 9,5 km/h (2 Bft) W 262 ° 0 min 0,000 mm 1,7 UV-I 148 W/m² 9,6 °C 14,6 °C 14,5 km/h (3 Bft)
02.10.2019 15:20 14,5 °C 73 % 1004,8 hPa 0,0 mm 6,4 km/h (2 Bft) W 268 ° 0 min 0,000 mm 1,6 UV-I 174 W/m² 9,7 °C 14,5 °C 14,5 km/h (3 Bft)
02.10.2019 15:21 14,4 °C 73 % 1004,8 hPa 0,0 mm 8,4 km/h (2 Bft) W-NW 296 ° 0 min 0,000 mm 3,0 UV-I 174 W/m² 9,6 °C 14,4 °C 14,5 km/h (3 Bft)
02.10.2019 15:22 14,3 °C 73 % 1004,9 hPa 0,0 mm 14,8 km/h (3 Bft) W-NW 283 ° 0 min 0,000 mm 1,9 UV-I 174 W/m² 9,5 °C 14,3 °C 20,9 km/h (4 Bft)
02.10.2019 15:23 14,3 °C 73 % 1004,9 hPa 0,0 mm 8,6 km/h (2 Bft) W 280 ° 0 min 0,000 mm 1,7 UV-I 218 W/m² 9,5 °C 14,3 °C 11,3 km/h (2 Bft)
02.10.2019 15:24 14,2 °C 73 % 1004,8 hPa 0,0 mm 6,8 km/h (2 Bft) W-NW 294 ° 0 min 0,000 mm 1,6 UV-I 176 W/m² 9,4 °C 14,2 °C 9,7 km/h (2 Bft)
02.10.2019 15:25 14,2 °C 73 % 1004,8 hPa 0,0 mm 8,2 km/h (2 Bft) NW 313 ° 0 min 0,000 mm 1,8 UV-I 163 W/m² 9,4 °C 14,2 °C 16,1 km/h (3 Bft)
02.10.2019 15:26 14,2 °C 73 % 1004,8 hPa 0,0 mm 9,6 km/h (2 Bft) W-NW 291 ° 0 min 0,000 mm 1,5 UV-I 192 W/m² 9,4 °C 14,2 °C 20,9 km/h (4 Bft)
02.10.2019 15:27 14,2 °C 73 % 1004,8 hPa 0,0 mm 14,7 km/h (3 Bft) NW 309 ° 0 min 0,000 mm 1,5 UV-I 200 W/m² 9,4 °C 14,2 °C 20,9 km/h (4 Bft)
02.10.2019 15:28 14,1 °C 74 % 1004,8 hPa 0,0 mm 15,7 km/h (3 Bft) W-SW 256 ° 0 min 0,000 mm 1,4 UV-I 183 W/m² 9,5 °C 14,1 °C 29,0 km/h (5 Bft)
02.10.2019 15:29 14,1 °C 73 % 1004,9 hPa 0,0 mm 16,0 km/h (3 Bft) W-SW 244 ° 0 min 0,000 mm 1,3 UV-I 162 W/m² 9,3 °C 14,1 °C 22,5 km/h (4 Bft)
02.10.2019 15:30 14,1 °C 74 % 1005,0 hPa 0,0 mm 12,9 km/h (3 Bft) W-NW 297 ° 0 min 0,000 mm 1,3 UV-I 153 W/m² 9,5 °C 14,1 °C 29,0 km/h (5 Bft)
02.10.2019 15:31 14,1 °C 74 % 1004,9 hPa 0,0 mm 15,3 km/h (3 Bft) W-NW 286 ° 0 min 0,000 mm 1,2 UV-I 153 W/m² 9,5 °C 14,1 °C 20,9 km/h (4 Bft)
02.10.2019 15:32 14,0 °C 73 % 1004,9 hPa 0,0 mm 10,5 km/h (2 Bft) W 259 ° 0 min 0,000 mm 1,2 UV-I 84 W/m² 9,2 °C 14,0 °C 24,1 km/h (4 Bft)
02.10.2019 15:33 13,9 °C 73 % 1004,9 hPa 0,0 mm 13,0 km/h (3 Bft) SW 217 ° 0 min 0,000 mm 1,2 UV-I 111 W/m² 9,1 °C 13,9 °C 19,3 km/h (3 Bft)
02.10.2019 15:34 13,8 °C 73 % 1004,9 hPa 0,0 mm 17,3 km/h (3 Bft) W 266 ° 0 min 0,000 mm 1,5 UV-I 169 W/m² 9,0 °C 13,8 °C 27,4 km/h (4 Bft)
02.10.2019 15:35 13,8 °C 73 % 1004,9 hPa 0,0 mm 14,0 km/h (3 Bft) W 266 ° 0 min 0,000 mm 2,6 UV-I 169 W/m² 9,0 °C 13,8 °C 19,3 km/h (3 Bft)
02.10.2019 15:36 13,8 °C 74 % 1004,9 hPa 0,0 mm 20,9 km/h (4 Bft) NW 318 ° 0 min 0,000 mm 2,5 UV-I 169 W/m² 9,2 °C 13,8 °C 32,2 km/h (5 Bft)
02.10.2019 15:37 13,8 °C 74 % 1004,9 hPa 0,0 mm 9,9 km/h (2 Bft) W-NW 282 ° 0 min 0,000 mm 2,5 UV-I 494 W/m² 9,2 °C 13,8 °C 16,1 km/h (3 Bft)
02.10.2019 15:38 13,9 °C 74 % 1004,8 hPa 0,0 mm 4,6 km/h (1 Bft) W-SW 250 ° 0 min 0,000 mm 2,5 UV-I 475 W/m² 9,3 °C 13,9 °C 9,7 km/h (2 Bft)
02.10.2019 15:39 14,0 °C 75 % 1004,9 hPa 0,0 mm 11,0 km/h (2 Bft) W 263 ° 0 min 0,000 mm 2,5 UV-I 471 W/m² 9,6 °C 14,0 °C 14,5 km/h (3 Bft)
02.10.2019 15:40 14,1 °C 77 % 1004,9 hPa 0,0 mm 15,6 km/h (3 Bft) W 263 ° 0 min 0,000 mm 1,5 UV-I 471 W/m² 10,1 °C 14,1 °C 22,5 km/h (4 Bft)
02.10.2019 15:41 14,1 °C 74 % 1004,7 hPa 0,0 mm 16,9 km/h (3 Bft) W-SW 257 ° 0 min 0,000 mm 2,5 UV-I 471 W/m² 9,5 °C 14,1 °C 24,1 km/h (4 Bft)
02.10.2019 15:42 14,0 °C 73 % 1004,9 hPa 0,0 mm 16,3 km/h (3 Bft) W-NW 300 ° 0 min 0,000 mm 2,4 UV-I 471 W/m² 9,2 °C 14,0 °C 27,4 km/h (4 Bft)
02.10.2019 15:43 14,0 °C 74 % 1004,8 hPa 0,0 mm 20,9 km/h (4 Bft) W-NW 292 ° 0 min 0,000 mm 2,4 UV-I 480 W/m² 9,4 °C 14,0 °C 32,2 km/h (5 Bft)
02.10.2019 15:44 14,0 °C 72 % 1004,8 hPa 0,0 mm 13,7 km/h (3 Bft) W 268 ° 0 min 0,000 mm 2,4 UV-I 478 W/m² 9,0 °C 14,0 °C 24,1 km/h (4 Bft)
02.10.2019 15:45 14,0 °C 73 % 1004,8 hPa 0,0 mm 13,7 km/h (3 Bft) W-NW 300 ° 0 min 0,000 mm 1,6 UV-I 149 W/m² 9,2 °C 14,0 °C 24,1 km/h (4 Bft)
02.10.2019 15:46 13,9 °C 73 % 1004,8 hPa 0,0 mm 11,3 km/h (2 Bft) W 259 ° 0 min 0,000 mm 1,5 UV-I 93 W/m² 9,1 °C 13,9 °C 22,5 km/h (4 Bft)
02.10.2019 15:47 13,9 °C 73 % 1004,8 hPa 0,0 mm 11,9 km/h (2 Bft) NW 304 ° 0 min 0,000 mm 1,5 UV-I 109 W/m² 9,1 °C 13,9 °C 19,3 km/h (3 Bft)
02.10.2019 15:48 13,8 °C 73 % 1004,8 hPa 0,0 mm 7,7 km/h (2 Bft) W 279 ° 0 min 0,000 mm 2,0 UV-I 109 W/m² 9,0 °C 13,8 °C 16,1 km/h (3 Bft)
02.10.2019 15:49 13,8 °C 73 % 1004,8 hPa 0,0 mm 9,3 km/h (2 Bft) W-SW 248 ° 0 min 0,000 mm 1,6 UV-I 109 W/m² 9,0 °C 13,8 °C 12,9 km/h (3 Bft)
02.10.2019 15:50 13,8 °C 73 % 1004,8 hPa 0,0 mm 11,6 km/h (2 Bft) W-SW 252 ° 0 min 0,000 mm 1,4 UV-I 72 W/m² 9,0 °C 13,8 °C 16,1 km/h (3 Bft)
02.10.2019 15:51 13,7 °C 74 % 1004,8 hPa 0,0 mm 13,4 km/h (3 Bft) W 262 ° 0 min 0,000 mm 1,3 UV-I 86 W/m² 9,2 °C 13,7 °C 17,7 km/h (3 Bft)
02.10.2019 15:52 13,6 °C 74 % 1004,8 hPa 0,0 mm 8,7 km/h (2 Bft) W-NW 302 ° 0 min 0,000 mm 1,8 UV-I 132 W/m² 9,1 °C 13,6 °C 20,9 km/h (4 Bft)
02.10.2019 15:53 13,6 °C 74 % 1004,8 hPa 0,0 mm 11,3 km/h (2 Bft) W-SW 254 ° 0 min 0,000 mm 1,5 UV-I 181 W/m² 9,1 °C 13,6 °C 14,5 km/h (3 Bft)
02.10.2019 15:54 13,6 °C 74 % 1004,8 hPa 0,0 mm 11,7 km/h (2 Bft) W-SW 250 ° 0 min 0,000 mm 1,8 UV-I 181 W/m² 9,1 °C 13,6 °C 16,1 km/h (3 Bft)
02.10.2019 15:55 13,6 °C 74 % 1004,9 hPa 0,0 mm 16,4 km/h (3 Bft) W-NW 282 ° 0 min 0,000 mm 1,4 UV-I 183 W/m² 9,1 °C 13,6 °C 27,4 km/h (4 Bft)
02.10.2019 15:56 13,6 °C 74 % 1004,8 hPa 0,0 mm 19,0 km/h (3 Bft) W-SW 248 ° 0 min 0,000 mm 1,5 UV-I 160 W/m² 9,1 °C 13,6 °C 24,1 km/h (4 Bft)
02.10.2019 15:57 13,7 °C 74 % 1004,8 hPa 0,0 mm 11,2 km/h (2 Bft) W 259 ° 0 min 0,000 mm 1,4 UV-I 125 W/m² 9,2 °C 13,7 °C 27,4 km/h (4 Bft)
02.10.2019 15:58 13,7 °C 73 % 1004,8 hPa 0,0 mm 20,9 km/h (4 Bft) NW 305 ° 0 min 0,000 mm 1,4 UV-I 125 W/m² 8,9 °C 13,7 °C 24,1 km/h (4 Bft)
02.10.2019 15:59 13,7 °C 74 % 1004,8 hPa 0,0 mm 9,9 km/h (2 Bft) SW 229 ° 0 min 0,000 mm 2,2 UV-I 415 W/m² 9,2 °C 13,7 °C 20,9 km/h (4 Bft)
02.10.2019 16:00 13,7 °C 73 % 1004,8 hPa 0,0 mm 12,5 km/h (3 Bft) S-SW 201 ° 0 min 0,000 mm 1,4 UV-I 415 W/m² 8,9 °C 13,7 °C 20,9 km/h (4 Bft)
02.10.2019 16:01 13,8 °C 73 % 1004,8 hPa 0,0 mm 12,0 km/h (2 Bft) W 265 ° 0 min 0,203 mm 2,1 UV-I 176 W/m² 9,0 °C 13,8 °C 19,3 km/h (3 Bft)
02.10.2019 16:02 13,8 °C 73 % 1004,8 hPa 0,0 mm 11,1 km/h (2 Bft) W-NW 290 ° 0 min 0,000 mm 2,1 UV-I 176 W/m² 9,0 °C 13,8 °C 12,9 km/h (3 Bft)
02.10.2019 16:03 13,8 °C 73 % 1004,8 hPa 0,0 mm 17,3 km/h (3 Bft) W 271 ° 0 min 0,000 mm 2,1 UV-I 176 W/m² 9,0 °C 13,8 °C 22,5 km/h (4 Bft)
02.10.2019 16:04 13,8 °C 73 % 1004,7 hPa 0,0 mm 14,8 km/h (3 Bft) W 264 ° 0 min 0,000 mm 2,1 UV-I 469 W/m² 9,0 °C 13,8 °C 29,0 km/h (5 Bft)
02.10.2019 16:05 13,9 °C 73 % 1004,7 hPa 0,0 mm 14,6 km/h (3 Bft) W-SW 258 ° 0 min 0,000 mm 2,0 UV-I 439 W/m² 9,1 °C 13,9 °C 24,1 km/h (4 Bft)
02.10.2019 16:06 13,9 °C 73 % 1004,7 hPa 0,0 mm 11,1 km/h (2 Bft) W-SW 257 ° 0 min 0,000 mm 1,9 UV-I 422 W/m² 9,1 °C 13,9 °C 20,9 km/h (4 Bft)
02.10.2019 16:07 14,0 °C 72 % 1004,8 hPa 0,0 mm 16,6 km/h (3 Bft) W 266 ° 0 min 0,000 mm 1,9 UV-I 413 W/m² 9,0 °C 14,0 °C 24,1 km/h (4 Bft)
02.10.2019 16:08 14,0 °C 72 % 1004,7 hPa 0,0 mm 15,7 km/h (3 Bft) SW 228 ° 0 min 0,000 mm 1,8 UV-I 401 W/m² 9,0 °C 14,0 °C 29,0 km/h (5 Bft)
02.10.2019 16:09 14,1 °C 72 % 1004,7 hPa 0,0 mm 12,4 km/h (3 Bft) W-SW 258 ° 0 min 0,000 mm 1,8 UV-I 403 W/m² 9,1 °C 14,1 °C 24,1 km/h (4 Bft)
02.10.2019 16:10 14,1 °C 72 % 1004,7 hPa 0,0 mm 16,1 km/h (3 Bft) W-SW 240 ° 0 min 0,000 mm 1,7 UV-I 373 W/m² 9,1 °C 14,1 °C 20,9 km/h (4 Bft)
02.10.2019 16:11 14,1 °C 72 % 1004,6 hPa 0,0 mm 17,7 km/h (3 Bft) W 265 ° 0 min 0,000 mm 1,6 UV-I 323 W/m² 9,1 °C 14,1 °C 29,0 km/h (5 Bft)
02.10.2019 16:12 14,1 °C 72 % 1004,7 hPa 0,0 mm 6,9 km/h (2 Bft) W 265 ° 0 min 0,000 mm 1,6 UV-I 279 W/m² 9,1 °C 14,1 °C 16,1 km/h (3 Bft)
02.10.2019 16:13 14,1 °C 72 % 1004,6 hPa 0,0 mm 16,5 km/h (3 Bft) W 280 ° 0 min 0,000 mm 1,6 UV-I 278 W/m² 9,1 °C 14,1 °C 19,3 km/h (3 Bft)
02.10.2019 16:14 14,0 °C 71 % 1004,7 hPa 0,0 mm 16,7 km/h (3 Bft) W 271 ° 0 min 0,000 mm 1,4 UV-I 185 W/m² 8,8 °C 14,0 °C 22,5 km/h (4 Bft)
02.10.2019 16:15 14,1 °C 71 % 1004,6 hPa 0,0 mm 14,6 km/h (3 Bft) W-NW 294 ° 0 min 0,000 mm 1,3 UV-I 139 W/m² 8,9 °C 14,1 °C 19,3 km/h (3 Bft)
02.10.2019 16:16 14,1 °C 72 % 1004,7 hPa 0,0 mm 6,8 km/h (2 Bft) W-SW 257 ° 0 min 0,000 mm 1,4 UV-I 130 W/m² 9,1 °C 14,1 °C 11,3 km/h (2 Bft)
02.10.2019 16:17 14,1 °C 72 % 1004,6 hPa 0,0 mm 6,4 km/h (2 Bft) NW 304 ° 0 min 0,000 mm 1,4 UV-I 149 W/m² 9,1 °C 14,1 °C 17,7 km/h (3 Bft)
02.10.2019 16:18 14,1 °C 72 % 1004,7 hPa 0,0 mm 19,6 km/h (3 Bft) W-NW 284 ° 0 min 0,000 mm 1,3 UV-I 91 W/m² 9,1 °C 14,1 °C 30,6 km/h (5 Bft)
02.10.2019 16:19 14,2 °C 71 % 1004,6 hPa 0,0 mm 15,5 km/h (3 Bft) SW 217 ° 0 min 0,000 mm 1,3 UV-I 97 W/m² 9,0 °C 14,2 °C 22,5 km/h (4 Bft)
02.10.2019 16:20 14,2 °C 72 % 1004,6 hPa 0,0 mm 10,9 km/h (2 Bft) W 261 ° 0 min 0,000 mm 1,3 UV-I 105 W/m² 9,2 °C 14,2 °C 16,1 km/h (3 Bft)
02.10.2019 16:21 14,2 °C 72 % 1004,7 hPa 0,0 mm 14,1 km/h (3 Bft) W-NW 286 ° 0 min 0,000 mm 1,3 UV-I 155 W/m² 9,2 °C 14,2 °C 19,3 km/h (3 Bft)
02.10.2019 16:22 14,2 °C 72 % 1004,6 hPa 0,0 mm 9,1 km/h (2 Bft) W-NW 286 ° 0 min 0,000 mm 1,3 UV-I 137 W/m² 9,2 °C 14,2 °C 16,1 km/h (3 Bft)
02.10.2019 16:23 14,1 °C 72 % 1004,7 hPa 0,0 mm 16,1 km/h (3 Bft) W 269 ° 0 min 0,000 mm 1,3 UV-I 144 W/m² 9,1 °C 14,1 °C 32,2 km/h (5 Bft)
02.10.2019 16:24 14,1 °C 72 % 1004,7 hPa 0,0 mm 19,9 km/h (4 Bft) W 265 ° 0 min 0,000 mm 1,3 UV-I 223 W/m² 9,1 °C 14,1 °C 35,4 km/h (5 Bft)
02.10.2019 16:25 14,1 °C 72 % 1004,8 hPa 0,0 mm 15,6 km/h (3 Bft) W 266 ° 0 min 0,000 mm 1,3 UV-I 197 W/m² 9,1 °C 14,1 °C 22,5 km/h (4 Bft)
02.10.2019 16:26 14,1 °C 72 % 1004,7 hPa 0,0 mm 13,0 km/h (3 Bft) N-NW 347 ° 0 min 0,000 mm 1,3 UV-I 179 W/m² 9,1 °C 14,1 °C 20,9 km/h (4 Bft)
02.10.2019 16:27 14,1 °C 72 % 1004,8 hPa 0,0 mm 10,1 km/h (2 Bft) W-NW 292 ° 0 min 0,000 mm 1,3 UV-I 142 W/m² 9,1 °C 14,1 °C 19,3 km/h (3 Bft)
02.10.2019 16:28 14,1 °C 73 % 1004,8 hPa 0,0 mm 6,3 km/h (2 Bft) W 261 ° 0 min 0,000 mm 1,2 UV-I 141 W/m² 9,3 °C 14,1 °C 14,5 km/h (3 Bft)
02.10.2019 16:29 14,1 °C 73 % 1004,8 hPa 0,0 mm 8,0 km/h (2 Bft) W 264 ° 0 min 0,000 mm 1,2 UV-I 90 W/m² 9,3 °C 14,1 °C 19,3 km/h (3 Bft)
02.10.2019 16:30 14,1 °C 73 % 1004,8 hPa 0,0 mm 8,8 km/h (2 Bft) W 262 ° 0 min 0,000 mm 1,1 UV-I 67 W/m² 9,3 °C 14,1 °C 19,3 km/h (3 Bft)
02.10.2019 16:31 14,1 °C 74 % 1004,9 hPa 0,0 mm 7,1 km/h (2 Bft) S-SW 209 ° 0 min 0,000 mm 1,2 UV-I 77 W/m² 9,5 °C 14,1 °C 11,3 km/h (2 Bft)
02.10.2019 16:32 14,1 °C 73 % 1004,9 hPa 0,0 mm 14,1 km/h (3 Bft) W-SW 253 ° 0 min 0,000 mm 1,1 UV-I 91 W/m² 9,3 °C 14,1 °C 20,9 km/h (4 Bft)
02.10.2019 16:33 14,1 °C 74 % 1004,9 hPa 0,0 mm 13,0 km/h (3 Bft) W 267 ° 0 min 0,000 mm 1,1 UV-I 120 W/m² 9,5 °C 14,1 °C 17,7 km/h (3 Bft)
02.10.2019 16:34 14,1 °C 74 % 1004,9 hPa 0,0 mm 10,5 km/h (2 Bft) W 275 ° 0 min 0,000 mm 1,1 UV-I 134 W/m² 9,5 °C 14,1 °C 16,1 km/h (3 Bft)
02.10.2019 16:35 14,1 °C 74 % 1004,9 hPa 0,0 mm 11,3 km/h (2 Bft) W 271 ° 0 min 0,000 mm 1,1 UV-I 97 W/m² 9,5 °C 14,1 °C 17,7 km/h (3 Bft)
02.10.2019 16:36 14,1 °C 74 % 1004,8 hPa 0,0 mm 7,6 km/h (2 Bft) W-SW 242 ° 0 min 0,000 mm 1,1 UV-I 139 W/m² 9,5 °C 14,1 °C 14,5 km/h (3 Bft)
02.10.2019 16:37 14,1 °C 74 % 1004,9 hPa 0,0 mm 9,1 km/h (2 Bft) W-SW 245 ° 0 min 0,000 mm 1,0 UV-I 97 W/m² 9,5 °C 14,1 °C 14,5 km/h (3 Bft)
02.10.2019 16:38 14,1 °C 74 % 1004,9 hPa 0,0 mm 7,1 km/h (2 Bft) S 178 ° 0 min 0,000 mm 1,0 UV-I 193 W/m² 9,5 °C 14,1 °C 11,3 km/h (2 Bft)
02.10.2019 16:39 14,1 °C 73 % 1004,9 hPa 0,0 mm 9,9 km/h (2 Bft) W-NW 288 ° 0 min 0,000 mm 1,2 UV-I 290 W/m² 9,3 °C 14,1 °C 14,5 km/h (3 Bft)
02.10.2019 16:40 14,0 °C 73 % 1004,9 hPa 0,0 mm 8,3 km/h (2 Bft) SW 227 ° 0 min 0,000 mm 1,1 UV-I 290 W/m² 9,2 °C 14,0 °C 16,1 km/h (3 Bft)
02.10.2019 16:41 14,0 °C 72 % 1004,9 hPa 0,0 mm 14,4 km/h (3 Bft) W 281 ° 0 min 0,000 mm 1,0 UV-I 118 W/m² 9,0 °C 14,0 °C 20,9 km/h (4 Bft)
02.10.2019 16:42 13,9 °C 72 % 1004,9 hPa 0,0 mm 12,3 km/h (3 Bft) W-NW 284 ° 0 min 0,000 mm 0,9 UV-I 81 W/m² 8,9 °C 13,9 °C 17,7 km/h (3 Bft)
02.10.2019 16:43 13,9 °C 73 % 1004,8 hPa 0,0 mm 10,7 km/h (2 Bft) W 264 ° 0 min 0,000 mm 0,9 UV-I 91 W/m² 9,1 °C 13,9 °C 16,1 km/h (3 Bft)
02.10.2019 16:44 13,8 °C 73 % 1004,9 hPa 0,0 mm 5,7 km/h (1 Bft) W 270 ° 0 min 0,000 mm 0,8 UV-I 88 W/m² 9,0 °C 13,8 °C 9,7 km/h (2 Bft)
02.10.2019 16:45 13,8 °C 73 % 1004,9 hPa 0,0 mm 3,8 km/h (1 Bft) W-SW 253 ° 0 min 0,000 mm 0,8 UV-I 105 W/m² 9,0 °C 13,8 °C 6,4 km/h (2 Bft)
02.10.2019 16:46 13,7 °C 74 % 1004,9 hPa 0,0 mm 8,3 km/h (2 Bft) W 277 ° 0 min 0,000 mm 0,8 UV-I 146 W/m² 9,2 °C 13,7 °C 17,7 km/h (3 Bft)
02.10.2019 16:47 13,7 °C 74 % 1004,9 hPa 0,0 mm 10,7 km/h (2 Bft) W 271 ° 0 min 0,000 mm 0,9 UV-I 139 W/m² 9,2 °C 13,7 °C 14,5 km/h (3 Bft)
02.10.2019 16:48 13,7 °C 75 % 1005,0 hPa 0,0 mm 9,6 km/h (2 Bft) W 269 ° 0 min 0,000 mm 0,9 UV-I 120 W/m² 9,3 °C 13,7 °C 12,9 km/h (3 Bft)
02.10.2019 16:49 13,7 °C 75 % 1005,0 hPa 0,0 mm 10,5 km/h (2 Bft) W 271 ° 0 min 0,000 mm 0,8 UV-I 116 W/m² 9,3 °C 13,7 °C 14,5 km/h (3 Bft)
02.10.2019 16:50 13,7 °C 75 % 1004,9 hPa 0,0 mm 5,0 km/h (1 Bft) S-SW 198 ° 0 min 0,000 mm 0,8 UV-I 97 W/m² 9,3 °C 13,7 °C 8,0 km/h (2 Bft)
02.10.2019 16:51 13,6 °C 74 % 1004,9 hPa 0,0 mm 11,7 km/h (2 Bft) W-NW 291 ° 0 min 0,000 mm 0,8 UV-I 88 W/m² 9,1 °C 13,6 °C 19,3 km/h (3 Bft)
02.10.2019 16:52 13,6 °C 74 % 1005,0 hPa 0,0 mm 16,0 km/h (3 Bft) W-SW 252 ° 0 min 0,000 mm 0,7 UV-I 76 W/m² 9,1 °C 13,6 °C 25,7 km/h (4 Bft)
02.10.2019 16:53 13,6 °C 74 % 1005,0 hPa 0,0 mm 16,3 km/h (3 Bft) W-SW 257 ° 0 min 0,000 mm 0,7 UV-I 79 W/m² 9,1 °C 13,6 °C 22,5 km/h (4 Bft)
02.10.2019 16:54 13,6 °C 75 % 1005,0 hPa 0,0 mm 13,7 km/h (3 Bft) W-NW 291 ° 0 min 0,000 mm 0,7 UV-I 88 W/m² 9,3 °C 13,6 °C 17,7 km/h (3 Bft)
02.10.2019 16:55 13,5 °C 74 % 1005,0 hPa 0,0 mm 9,8 km/h (2 Bft) W-NW 298 ° 0 min 0,000 mm 0,7 UV-I 88 W/m² 9,0 °C 13,5 °C 12,9 km/h (3 Bft)
02.10.2019 16:56 13,5 °C 74 % 1005,0 hPa 0,0 mm 8,6 km/h (2 Bft) W 277 ° 0 min 0,000 mm 0,7 UV-I 88 W/m² 9,0 °C 13,5 °C 14,5 km/h (3 Bft)
02.10.2019 16:57 13,4 °C 74 % 1004,9 hPa 0,0 mm 8,7 km/h (2 Bft) W-NW 291 ° 0 min 0,000 mm 0,7 UV-I 84 W/m² 8,9 °C 13,4 °C 12,9 km/h (3 Bft)
02.10.2019 16:58 13,4 °C 75 % 1005,0 hPa 0,0 mm 6,2 km/h (2 Bft) W 271 ° 0 min 0,000 mm 0,7 UV-I 90 W/m² 9,1 °C 13,4 °C 11,3 km/h (2 Bft)
02.10.2019 16:59 13,4 °C 75 % 1005,0 hPa 0,0 mm 4,9 km/h (1 Bft) N-NW 327 ° 0 min 0,000 mm 0,8 UV-I 98 W/m² 9,1 °C 13,4 °C 6,4 km/h (2 Bft)
02.10.2019 17:00 13,4 °C 76 % 1004,9 hPa 0,0 mm 6,2 km/h (2 Bft) W 267 ° 0 min 0,000 mm 0,8 UV-I 86 W/m² 9,3 °C 13,4 °C 12,9 km/h (3 Bft)
02.10.2019 17:01 13,4 °C 75 % 1004,9 hPa 0,0 mm 12,6 km/h (3 Bft) W 262 ° 0 min 0,127 mm 0,8 UV-I 83 W/m² 9,1 °C 13,4 °C 17,7 km/h (3 Bft)
02.10.2019 17:02 13,4 °C 75 % 1004,9 hPa 0,0 mm 8,3 km/h (2 Bft) W-SW 254 ° 0 min 0,000 mm 0,8 UV-I 81 W/m² 9,1 °C 13,4 °C 14,5 km/h (3 Bft)
02.10.2019 17:03 13,4 °C 75 % 1004,9 hPa 0,0 mm 5,0 km/h (1 Bft) W-NW 297 ° 0 min 0,000 mm 0,8 UV-I 74 W/m² 9,1 °C 13,4 °C 12,9 km/h (3 Bft)
02.10.2019 17:04 13,3 °C 76 % 1004,9 hPa 0,0 mm 4,9 km/h (1 Bft) W 269 ° 0 min 0,000 mm 0,7 UV-I 70 W/m² 9,2 °C 13,3 °C 9,7 km/h (2 Bft)
02.10.2019 17:05 13,3 °C 76 % 1005,0 hPa 0,0 mm 13,4 km/h (3 Bft) W-NW 299 ° 0 min 0,000 mm 0,6 UV-I 74 W/m² 9,2 °C 13,3 °C 24,1 km/h (4 Bft)
02.10.2019 17:06 13,3 °C 75 % 1005,0 hPa 0,0 mm 12,2 km/h (2 Bft) N 355 ° 0 min 0,000 mm 0,6 UV-I 104 W/m² 9,0 °C 13,3 °C 17,7 km/h (3 Bft)
02.10.2019 17:07 13,3 °C 75 % 1005,0 hPa 0,0 mm 7,0 km/h (2 Bft) W 271 ° 0 min 0,000 mm 0,7 UV-I 102 W/m² 9,0 °C 13,3 °C 12,9 km/h (3 Bft)
02.10.2019 17:08 13,3 °C 75 % 1004,9 hPa 0,0 mm 8,9 km/h (2 Bft) SW 220 ° 0 min 0,000 mm 0,7 UV-I 86 W/m² 9,0 °C 13,3 °C 11,3 km/h (2 Bft)
02.10.2019 17:09 13,3 °C 76 % 1005,0 hPa 0,0 mm 5,8 km/h (2 Bft) W-NW 288 ° 0 min 0,000 mm 0,7 UV-I 76 W/m² 9,2 °C 13,3 °C 9,7 km/h (2 Bft)
02.10.2019 17:10 13,3 °C 76 % 1005,0 hPa 0,0 mm 8,8 km/h (2 Bft) W-NW 284 ° 0 min 0,000 mm 0,7 UV-I 70 W/m² 9,2 °C 13,3 °C 14,5 km/h (3 Bft)
02.10.2019 17:11 13,3 °C 75 % 1004,9 hPa 0,0 mm 7,7 km/h (2 Bft) W-NW 298 ° 0 min 0,000 mm 0,7 UV-I 67 W/m² 9,0 °C 13,3 °C 16,1 km/h (3 Bft)
02.10.2019 17:12 13,2 °C 76 % 1005,0 hPa 0,0 mm 5,8 km/h (2 Bft) W-NW 299 ° 0 min 0,000 mm 0,7 UV-I 58 W/m² 9,1 °C 13,2 °C 11,3 km/h (2 Bft)
02.10.2019 17:13 13,2 °C 75 % 1005,0 hPa 0,0 mm 11,8 km/h (2 Bft) W-SW 251 ° 0 min 0,000 mm 0,0 UV-I 53 W/m² 8,9 °C 13,2 °C 17,7 km/h (3 Bft)
02.10.2019 17:14 13,2 °C 75 % 1004,9 hPa 0,0 mm 6,9 km/h (2 Bft) W-SW 246 ° 0 min 0,000 mm 0,0 UV-I 49 W/m² 8,9 °C 13,2 °C 9,7 km/h (2 Bft)
02.10.2019 17:15 13,2 °C 77 % 1005,0 hPa 0,0 mm 8,7 km/h (2 Bft) W 261 ° 0 min 0,000 mm 0,0 UV-I 47 W/m² 9,3 °C 13,2 °C 14,5 km/h (3 Bft)
02.10.2019 17:16 13,2 °C 77 % 1005,0 hPa 0,0 mm 6,6 km/h (2 Bft) W-SW 240 ° 0 min 0,000 mm 0,0 UV-I 46 W/m² 9,3 °C 13,2 °C 9,7 km/h (2 Bft)
02.10.2019 17:17 13,1 °C 76 % 1004,9 hPa 0,0 mm 8,2 km/h (2 Bft) W 266 ° 0 min 0,000 mm 0,0 UV-I 46 W/m² 9,0 °C 13,1 °C 12,9 km/h (3 Bft)
02.10.2019 17:18 13,1 °C 77 % 1005,0 hPa 0,0 mm 7,5 km/h (2 Bft) W 275 ° 0 min 0,000 mm 0,0 UV-I 56 W/m² 9,2 °C 13,1 °C 11,3 km/h (2 Bft)
02.10.2019 17:19 13,1 °C 76 % 1005,0 hPa 0,0 mm 6,9 km/h (2 Bft) S 173 ° 0 min 0,000 mm 0,0 UV-I 53 W/m² 9,0 °C 13,1 °C 11,3 km/h (2 Bft)
02.10.2019 17:20 13,1 °C 76 % 1005,0 hPa 0,0 mm 12,0 km/h (2 Bft) W-NW 286 ° 0 min 0,000 mm 0,0 UV-I 46 W/m² 9,0 °C 13,1 °C 19,3 km/h (3 Bft)
02.10.2019 17:21 13,1 °C 76 % 1005,1 hPa 0,0 mm 12,5 km/h (3 Bft) W 266 ° 0 min 0,000 mm 0,0 UV-I 39 W/m² 9,0 °C 13,1 °C 14,5 km/h (3 Bft)
02.10.2019 17:22 13,1 °C 76 % 1005,1 hPa 0,0 mm 9,3 km/h (2 Bft) W-NW 296 ° 0 min 0,000 mm 0,0 UV-I 35 W/m² 9,0 °C 13,1 °C 12,9 km/h (3 Bft)
02.10.2019 17:23 13,1 °C 76 % 1005,1 hPa 0,0 mm 6,6 km/h (2 Bft) W-NW 287 ° 0 min 0,000 mm 0,0 UV-I 39 W/m² 9,0 °C 13,1 °C 12,9 km/h (3 Bft)
02.10.2019 17:24 13,1 °C 76 % 1005,0 hPa 0,0 mm 7,2 km/h (2 Bft) W 264 ° 0 min 0,000 mm 0,0 UV-I 28 W/m² 9,0 °C 13,1 °C 9,7 km/h (2 Bft)
02.10.2019 17:25 13,1 °C 76 % 1005,1 hPa 0,0 mm 6,3 km/h (2 Bft) W 269 ° 0 min 0,000 mm 0,0 UV-I 19 W/m² 9,0 °C 13,1 °C 9,7 km/h (2 Bft)
02.10.2019 17:26 13,1 °C 76 % 1005,1 hPa 0,0 mm 7,8 km/h (2 Bft) W-SW 257 ° 0 min 0,000 mm 0,0 UV-I 21 W/m² 9,0 °C 13,1 °C 11,3 km/h (2 Bft)
02.10.2019 17:27 13,1 °C 76 % 1005,1 hPa 0,0 mm 9,6 km/h (2 Bft) W-SW 247 ° 0 min 0,000 mm 0,0 UV-I 26 W/m² 9,0 °C 13,1 °C 16,1 km/h (3 Bft)
02.10.2019 17:28 13,0 °C 77 % 1005,1 hPa 0,0 mm 12,7 km/h (3 Bft) W 275 ° 0 min 0,000 mm 0,0 UV-I 33 W/m² 9,1 °C 13,0 °C 20,9 km/h (4 Bft)
02.10.2019 17:29 12,9 °C 77 % 1005,1 hPa 0,0 mm 5,1 km/h (1 Bft) W 273 ° 0 min 0,000 mm 0,0 UV-I 33 W/m² 9,0 °C 12,9 °C 8,0 km/h (2 Bft)
02.10.2019 17:30 12,9 °C 77 % 1005,1 hPa 0,0 mm 4,6 km/h (1 Bft) W 271 ° 0 min 0,000 mm 0,0 UV-I 32 W/m² 9,0 °C 12,9 °C 11,3 km/h (2 Bft)
02.10.2019 17:31 12,9 °C 77 % 1005,2 hPa 0,0 mm 5,1 km/h (1 Bft) W 264 ° 0 min 0,000 mm 0,0 UV-I 30 W/m² 9,0 °C 12,9 °C 9,7 km/h (2 Bft)
02.10.2019 17:32 12,9 °C 76 % 1005,2 hPa 0,0 mm 7,6 km/h (2 Bft) W 262 ° 0 min 0,000 mm 0,0 UV-I 30 W/m² 8,8 °C 12,9 °C 11,3 km/h (2 Bft)
02.10.2019 17:33 12,9 °C 77 % 1005,1 hPa 0,0 mm 5,0 km/h (1 Bft) W-SW 250 ° 0 min 0,000 mm 0,0 UV-I 32 W/m² 9,0 °C 12,9 °C 11,3 km/h (2 Bft)
02.10.2019 17:34 12,9 °C 78 % 1005,2 hPa 0,0 mm 3,0 km/h (1 Bft) W-SW 257 ° 0 min 0,000 mm 0,0 UV-I 32 W/m² 9,2 °C 12,9 °C 4,8 km/h (1 Bft)
02.10.2019 17:35 12,9 °C 78 % 1005,1 hPa 0,0 mm 1,3 km/h (1 Bft) W-SW 256 ° 0 min 0,000 mm 0,0 UV-I 30 W/m² 9,2 °C 12,9 °C 3,2 km/h (1 Bft)
02.10.2019 17:36 12,9 °C 78 % 1005,2 hPa 0,0 mm 6,2 km/h (2 Bft) W-NW 288 ° 0 min 0,000 mm 0,0 UV-I 28 W/m² 9,2 °C 12,9 °C 11,3 km/h (2 Bft)
02.10.2019 17:37 12,8 °C 78 % 1005,2 hPa 0,0 mm 7,2 km/h (2 Bft) W 269 ° 0 min 0,000 mm 0,0 UV-I 21 W/m² 9,1 °C 12,8 °C 16,1 km/h (3 Bft)
02.10.2019 17:38 12,8 °C 78 % 1005,2 hPa 0,0 mm 10,9 km/h (2 Bft) W-SW 251 ° 0 min 0,000 mm 0,0 UV-I 12 W/m² 9,1 °C 12,8 °C 17,7 km/h (3 Bft)
02.10.2019 17:39 12,9 °C 78 % 1005,3 hPa 0,0 mm 6,6 km/h (2 Bft) NW 306 ° 0 min 0,000 mm 0,0 UV-I 9 W/m² 9,2 °C 12,9 °C 11,3 km/h (2 Bft)
02.10.2019 17:40 12,8 °C 78 % 1005,4 hPa 0,0 mm 8,6 km/h (2 Bft) W-SW 257 ° 0 min 0,000 mm 0,0 UV-I 7 W/m² 9,1 °C 12,8 °C 12,9 km/h (3 Bft)
02.10.2019 17:41 12,8 °C 78 % 1005,4 hPa 0,0 mm 9,5 km/h (2 Bft) W-NW 287 ° 0 min 0,000 mm 0,0 UV-I 11 W/m² 9,1 °C 12,8 °C 12,9 km/h (3 Bft)
02.10.2019 17:42 12,8 °C 78 % 1005,5 hPa 0,0 mm 10,5 km/h (2 Bft) W 276 ° 0 min 0,000 mm 0,0 UV-I 12 W/m² 9,1 °C 12,8 °C 16,1 km/h (3 Bft)
02.10.2019 17:43 12,8 °C 78 % 1005,6 hPa 0,0 mm 11,5 km/h (2 Bft) W 272 ° 0 min 0,000 mm 0,0 UV-I 11 W/m² 9,1 °C 12,8 °C 17,7 km/h (3 Bft)
02.10.2019 17:44 12,8 °C 79 % 1005,6 hPa 0,0 mm 7,4 km/h (2 Bft) NW 305 ° 0 min 0,000 mm 0,0 UV-I 9 W/m² 9,2 °C 12,8 °C 14,5 km/h (3 Bft)
02.10.2019 17:45 12,7 °C 79 % 1005,7 hPa 0,0 mm 7,9 km/h (2 Bft) N-NW 335 ° 0 min 0,000 mm 0,0 UV-I 7 W/m² 9,2 °C 12,7 °C 12,9 km/h (3 Bft)
02.10.2019 17:46 12,6 °C 80 % 1005,7 hPa 0,0 mm 10,4 km/h (2 Bft) W-NW 296 ° 0 min 0,000 mm 0,0 UV-I 9 W/m² 9,2 °C 12,6 °C 17,7 km/h (3 Bft)
02.10.2019 17:47 12,6 °C 80 % 1005,9 hPa 0,0 mm 15,0 km/h (3 Bft) W-NW 284 ° 0 min 0,000 mm 0,0 UV-I 11 W/m² 9,2 °C 12,6 °C 20,9 km/h (4 Bft)
02.10.2019 17:48 12,4 °C 81 % 1005,9 hPa 0,0 mm 13,2 km/h (3 Bft) W 279 ° 0 min 0,000 mm 0,0 UV-I 12 W/m² 9,2 °C 12,4 °C 17,7 km/h (3 Bft)
02.10.2019 17:49 12,3 °C 81 % 1005,9 hPa 0,0 mm 9,3 km/h (2 Bft) N-NW 334 ° 0 min 0,000 mm 0,0 UV-I 12 W/m² 9,1 °C 12,3 °C 16,1 km/h (3 Bft)
02.10.2019 17:50 12,2 °C 82 % 1005,9 hPa 0,0 mm 10,4 km/h (2 Bft) W-NW 282 ° 0 min 0,000 mm 0,0 UV-I 12 W/m² 9,2 °C 12,2 °C 16,1 km/h (3 Bft)
02.10.2019 17:51 12,2 °C 82 % 1005,9 hPa 0,0 mm 15,3 km/h (3 Bft) W 260 ° 0 min 0,000 mm 0,0 UV-I 11 W/m² 9,2 °C 12,2 °C 24,1 km/h (4 Bft)
02.10.2019 17:52 12,0 °C 83 % 1005,9 hPa 0,0 mm 8,4 km/h (2 Bft) W 274 ° 0 min 0,000 mm 0,0 UV-I 11 W/m² 9,2 °C 12,0 °C 16,1 km/h (3 Bft)
02.10.2019 17:53 11,9 °C 84 % 1006,0 hPa 0,0 mm 10,6 km/h (2 Bft) N-NW 334 ° 0 min 0,000 mm 0,0 UV-I 12 W/m² 9,3 °C 11,9 °C 16,1 km/h (3 Bft)
02.10.2019 17:54 11,8 °C 84 % 1006,1 hPa 0,0 mm 9,7 km/h (2 Bft) W-NW 284 ° 0 min 0,000 mm 0,0 UV-I 12 W/m² 9,2 °C 11,8 °C 17,7 km/h (3 Bft)
02.10.2019 17:55 11,7 °C 85 % 1006,1 hPa 0,0 mm 9,9 km/h (2 Bft) W-NW 294 ° 0 min 0,000 mm 0,0 UV-I 11 W/m² 9,3 °C 11,7 °C 17,7 km/h (3 Bft)
02.10.2019 17:56 11,6 °C 86 % 1006,1 hPa 0,0 mm 11,1 km/h (2 Bft) W 279 ° 0 min 0,000 mm 0,0 UV-I 11 W/m² 9,3 °C 11,6 °C 17,7 km/h (3 Bft)
02.10.2019 17:57 11,5 °C 86 % 1006,2 hPa 0,0 mm 18,2 km/h (3 Bft) W-NW 286 ° 0 min 0,000 mm 0,0 UV-I 11 W/m² 9,2 °C 11,5 °C 25,7 km/h (4 Bft)
02.10.2019 17:58 11,4 °C 87 % 1006,3 hPa 0,0 mm 14,7 km/h (3 Bft) NW 313 ° 0 min 0,000 mm 0,0 UV-I 0 W/m² 9,3 °C 11,4 °C 22,5 km/h (4 Bft)
02.10.2019 17:59 11,4 °C 87 % 1006,5 hPa 0,0 mm 14,8 km/h (3 Bft) W-NW 284 ° 0 min 0,000 mm 0,0 UV-I 0 W/m² 9,3 °C 11,4 °C 22,5 km/h (4 Bft)
02.10.2019 18:00 11,3 °C 87 % 1006,7 hPa 0,0 mm 17,0 km/h (3 Bft) NW 309 ° 0 min 0,000 mm 0,0 UV-I 0 W/m² 9,2 °C 11,3 °C 25,7 km/h (4 Bft)
02.10.2019 18:01 11,2 °C 87 % 1006,8 hPa 0,0 mm 19,0 km/h (3 Bft) NW 322 ° 0 min 0,051 mm 0,0 UV-I 5 W/m² 9,1 °C 11,2 °C 32,2 km/h (5 Bft)
02.10.2019 18:02 10,9 °C 86 % 1006,8 hPa 0,0 mm 21,4 km/h (4 Bft) N-NO 24 ° 0 min 0,000 mm 0,0 UV-I 5 W/m² 8,7 °C 10,9 °C 33,8 km/h (5 Bft)
02.10.2019 18:03 10,8 °C 86 % 1006,8 hPa 0,0 mm 18,5 km/h (3 Bft) N-NW 338 ° 0 min 0,000 mm 0,0 UV-I 5 W/m² 8,6 °C 10,8 °C 25,7 km/h (4 Bft)
02.10.2019 18:04 10,5 °C 85 % 1006,7 hPa 0,0 mm 10,9 km/h (2 Bft) W-NW 293 ° 0 min 0,000 mm 0,0 UV-I 5 W/m² 8,1 °C 10,5 °C 16,1 km/h (3 Bft)
02.10.2019 18:05 10,3 °C 86 % 1006,6 hPa 0,0 mm 10,7 km/h (2 Bft) W 275 ° 0 min 0,000 mm 0,0 UV-I 7 W/m² 8,1 °C 10,3 °C 17,7 km/h (3 Bft)
02.10.2019 18:06 10,1 °C 86 % 1006,6 hPa 0,0 mm 14,5 km/h (3 Bft) W 281 ° 0 min 0,000 mm 0,0 UV-I 7 W/m² 7,9 °C 10,1 °C 17,7 km/h (3 Bft)
02.10.2019 18:07 10,0 °C 86 % 1006,6 hPa 0,0 mm 13,1 km/h (3 Bft) NW 325 ° 0 min 0,000 mm 0,0 UV-I 7 W/m² 7,8 °C 8,2 °C 19,3 km/h (3 Bft)
02.10.2019 18:08 9,8 °C 86 % 1006,7 hPa 0,0 mm 10,8 km/h (2 Bft) W-NW 287 ° 0 min 0,000 mm 0,0 UV-I 7 W/m² 7,6 °C 8,3 °C 17,7 km/h (3 Bft)
02.10.2019 18:09 9,7 °C 87 % 1006,6 hPa 0,0 mm 11,2 km/h (2 Bft) W 264 ° 0 min 0,000 mm 0,0 UV-I 7 W/m² 7,6 °C 8,1 °C 16,1 km/h (3 Bft)
02.10.2019 18:10 9,7 °C 87 % 1006,6 hPa 0,0 mm 13,3 km/h (3 Bft) W-NW 291 ° 0 min 0,000 mm 0,0 UV-I 7 W/m² 7,6 °C 7,8 °C 16,1 km/h (3 Bft)
02.10.2019 18:11 9,6 °C 87 % 1006,6 hPa 0,0 mm 5,5 km/h (1 Bft) W-SW 252 ° 0 min 0,000 mm 0,0 UV-I 5 W/m² 7,5 °C 9,2 °C 11,3 km/h (2 Bft)
02.10.2019 18:12 9,4 °C 87 % 1006,6 hPa 0,0 mm 7,4 km/h (2 Bft) W 263 ° 0 min 0,000 mm 0,0 UV-I 5 W/m² 7,3 °C 8,4 °C 11,3 km/h (2 Bft)
02.10.2019 18:13 9,4 °C 88 % 1006,8 hPa 0,0 mm 7,2 km/h (2 Bft) W-NW 297 ° 0 min 0,000 mm 0,0 UV-I 5 W/m² 7,5 °C 8,5 °C 11,3 km/h (2 Bft)
02.10.2019 18:14 9,3 °C 88 % 1006,8 hPa 0,0 mm 5,8 km/h (2 Bft) W-SW 249 ° 0 min 0,000 mm 0,0 UV-I 5 W/m² 7,4 °C 8,7 °C 11,3 km/h (2 Bft)
02.10.2019 18:15 9,3 °C 88 % 1006,8 hPa 0,0 mm 11,3 km/h (2 Bft) W-NW 283 ° 0 min 0,000 mm 0,0 UV-I 5 W/m² 7,4 °C 7,6 °C 16,1 km/h (3 Bft)
02.10.2019 18:16 9,2 °C 88 % 1006,8 hPa 0,0 mm 6,8 km/h (2 Bft) W-SW 248 ° 0 min 0,000 mm 0,0 UV-I 0 W/m² 7,3 °C 8,3 °C 11,3 km/h (2 Bft)
02.10.2019 18:17 9,2 °C 89 % 1006,8 hPa 0,0 mm 8,9 km/h (2 Bft) W-SW 258 ° 0 min 0,000 mm 0,0 UV-I 0 W/m² 7,5 °C 7,9 °C 12,9 km/h (3 Bft)
02.10.2019 18:18 9,1 °C 89 % 1006,9 hPa 0,0 mm 6,1 km/h (2 Bft) W 260 ° 0 min 0,000 mm 0,0 UV-I 0 W/m² 7,4 °C 8,4 °C 14,5 km/h (3 Bft)
02.10.2019 18:19 9,1 °C 89 % 1006,9 hPa 0,0 mm 10,3 km/h (2 Bft) W-SW 247 ° 0 min 0,000 mm 0,0 UV-I 0 W/m² 7,4 °C 7,5 °C 14,5 km/h (3 Bft)
02.10.2019 18:20 9,1 °C 89 % 1006,8 hPa 0,0 mm 5,2 km/h (1 Bft) S-SW 195 ° 0 min 0,000 mm 0,0 UV-I 0 W/m² 7,4 °C 8,7 °C 9,7 km/h (2 Bft)
02.10.2019 18:21 9,1 °C 90 % 1006,8 hPa 0,0 mm 7,5 km/h (2 Bft) W-SW 243 ° 0 min 0,000 mm 0,0 UV-I 0 W/m² 7,5 °C 8,1 °C 12,9 km/h (3 Bft)
02.10.2019 18:22 9,1 °C 90 % 1006,9 hPa 0,0 mm 3,4 km/h (1 Bft) W-SW 247 ° 0 min 0,000 mm 0,0 UV-I 0 W/m² 7,5 °C 9,1 °C 4,8 km/h (1 Bft)
02.10.2019 18:23 9,1 °C 90 % 1006,9 hPa 0,0 mm 4,3 km/h (1 Bft) W-SW 257 ° 0 min 0,000 mm 0,0 UV-I 0 W/m² 7,5 °C 9,1 °C 6,4 km/h (2 Bft)
02.10.2019 18:24 9,1 °C 90 % 1006,9 hPa 0,0 mm 10,5 km/h (2 Bft) W-NW 294 ° 0 min 0,000 mm 0,0 UV-I 0 W/m² 7,5 °C 7,5 °C 12,9 km/h (3 Bft)
02.10.2019 18:25 9,1 °C 91 % 1007,0 hPa 0,0 mm 4,6 km/h (1 Bft) W-SW 253 ° 0 min 0,000 mm 0,0 UV-I 0 W/m² 7,7 °C 8,9 °C 11,3 km/h (2 Bft)
02.10.2019 18:26 9,1 °C 91 % 1007,0 hPa 0,0 mm 5,4 km/h (1 Bft) W-SW 248 ° 0 min 0,000 mm 0,0 UV-I 0 W/m² 7,7 °C 8,6 °C 12,9 km/h (3 Bft)
02.10.2019 18:27 9,1 °C 91 % 1007,1 hPa 0,0 mm 4,2 km/h (1 Bft) W-NW 290 ° 0 min 0,000 mm 0,0 UV-I 0 W/m² 7,7 °C 9,1 °C 4,8 km/h (1 Bft)
02.10.2019 18:28 9,1 °C 91 % 1007,1 hPa 0,0 mm 10,0 km/h (2 Bft) W-NW 288 ° 0 min 0,000 mm 0,0 UV-I 0 W/m² 7,7 °C 7,6 °C 17,7 km/h (3 Bft)
02.10.2019 18:29 9,1 °C 91 % 1007,2 hPa 0,0 mm 8,4 km/h (2 Bft) N-NW 327 ° 0 min 0,000 mm 0,0 UV-I 0 W/m² 7,7 °C 7,9 °C 14,5 km/h (3 Bft)
02.10.2019 18:30 9,1 °C 91 % 1007,2 hPa 0,0 mm 2,5 km/h (1 Bft) NW 326 ° 0 min 0,000 mm 0,0 UV-I 0 W/m² 7,7 °C 9,1 °C 6,4 km/h (2 Bft)
02.10.2019 18:31 9,1 °C 91 % 1007,3 hPa 0,0 mm 2,4 km/h (1 Bft) NW 326 ° 0 min 0,000 mm 0,0 UV-I 0 W/m² 7,7 °C 9,1 °C 4,8 km/h (1 Bft)
02.10.2019 18:32 9,1 °C 91 % 1007,3 hPa 0,0 mm 5,3 km/h (1 Bft) W-NW 290 ° 0 min 0,000 mm 0,0 UV-I 0 W/m² 7,7 °C 8,6 °C 6,4 km/h (2 Bft)
02.10.2019 18:33 9,1 °C 91 % 1007,3 hPa 0,0 mm 4,5 km/h (1 Bft) W-NW 291 ° 0 min 0,000 mm 0,0 UV-I 0 W/m² 7,7 °C 9,1 °C 8,0 km/h (2 Bft)
02.10.2019 18:34 9,1 °C 92 % 1007,4 hPa 0,0 mm 4,3 km/h (1 Bft) W-NW 303 ° 0 min 0,000 mm 0,0 UV-I 0 W/m² 7,9 °C 9,1 °C 6,4 km/h (2 Bft)
02.10.2019 18:35 9,1 °C 92 % 1007,5 hPa 0,0 mm 3,9 km/h (1 Bft) W-NW 289 ° 0 min 0,000 mm 0,0 UV-I 0 W/m² 7,9 °C 9,1 °C 6,4 km/h (2 Bft)
02.10.2019 18:36 9,1 °C 92 % 1007,5 hPa 0,0 mm 8,6 km/h (2 Bft) W-NW 290 ° 0 min 0,000 mm 0,0 UV-I 0 W/m² 7,9 °C 7,8 °C 12,9 km/h (3 Bft)
02.10.2019 18:37 9,1 °C 92 % 1007,5 hPa 0,0 mm 8,2 km/h (2 Bft) W-NW 288 ° 0 min 0,000 mm 0,0 UV-I 0 W/m² 7,9 °C 7,9 °C 12,9 km/h (3 Bft)
02.10.2019 18:38 9,1 °C 92 % 1007,5 hPa 0,0 mm 6,2 km/h (2 Bft) W 281 ° 0 min 0,000 mm 0,0 UV-I 0 W/m² 7,9 °C 8,4 °C 9,7 km/h (2 Bft)
02.10.2019 18:39 9,1 °C 92 % 1007,5 hPa 0,0 mm 5,3 km/h (1 Bft) W-SW 238 ° 0 min 0,000 mm 0,0 UV-I 0 W/m² 7,9 °C 8,6 °C 6,4 km/h (2 Bft)
02.10.2019 18:40 9,1 °C 92 % 1007,7 hPa 0,0 mm 3,2 km/h (1 Bft) W 279 ° 0 min 0,000 mm 0,0 UV-I 0 W/m² 7,9 °C 9,1 °C 6,4 km/h (2 Bft)
02.10.2019 18:41 9,1 °C 92 % 1007,7 hPa 0,0 mm 4,4 km/h (1 Bft) W 279 ° 0 min 0,000 mm 0,0 UV-I 0 W/m² 7,9 °C 9,1 °C 9,7 km/h (2 Bft)
02.10.2019 18:42 9,1 °C 92 % 1007,7 hPa 0,0 mm 6,0 km/h (2 Bft) W 276 ° 0 min 0,000 mm 0,0 UV-I 0 W/m² 7,9 °C 8,4 °C 11,3 km/h (2 Bft)
02.10.2019 18:43 9,1 °C 92 % 1007,8 hPa 0,0 mm 5,4 km/h (1 Bft) W-NW 296 ° 0 min 0,000 mm 0,0 UV-I 0 W/m² 7,9 °C 8,6 °C 8,0 km/h (2 Bft)
02.10.2019 18:44 9,1 °C 92 % 1007,9 hPa 0,0 mm 6,0 km/h (2 Bft) W-NW 292 ° 0 min 0,000 mm 0,0 UV-I 0 W/m² 7,9 °C 8,4 °C 12,9 km/h (3 Bft)
02.10.2019 18:45 9,1 °C 92 % 1007,9 hPa 0,0 mm 5,2 km/h (1 Bft) NW 321 ° 0 min 0,000 mm 0,0 UV-I 0 W/m² 7,9 °C 8,7 °C 11,3 km/h (2 Bft)
02.10.2019 18:46 9,2 °C 93 % 1008,0 hPa 0,0 mm 5,9 km/h (2 Bft) NW 317 ° 0 min 0,000 mm 0,0 UV-I 0 W/m² 8,1 °C 8,6 °C 9,7 km/h (2 Bft)
02.10.2019 18:47 9,2 °C 93 % 1008,0 hPa 0,0 mm 8,8 km/h (2 Bft) NW 309 ° 0 min 0,000 mm 0,0 UV-I 0 W/m² 8,1 °C 7,9 °C 12,9 km/h (3 Bft)
02.10.2019 18:48 9,2 °C 93 % 1008,1 hPa 0,0 mm 8,6 km/h (2 Bft) N-NW 331 ° 0 min 0,000 mm 0,0 UV-I 0 W/m² 8,1 °C 7,9 °C 16,1 km/h (3 Bft)
02.10.2019 18:49 9,2 °C 93 % 1008,2 hPa 0,0 mm 3,6 km/h (1 Bft) NW 323 ° 0 min 0,000 mm 0,0 UV-I 0 W/m² 8,1 °C 9,2 °C 8,0 km/h (2 Bft)
02.10.2019 18:50 9,2 °C 93 % 1008,2 hPa 0,0 mm 6,8 km/h (2 Bft) W-NW 290 ° 0 min 0,000 mm 0,0 UV-I 0 W/m² 8,1 °C 8,3 °C 12,9 km/h (3 Bft)
02.10.2019 18:51 9,2 °C 93 % 1008,3 hPa 0,0 mm 15,4 km/h (3 Bft) N 5 ° 0 min 0,000 mm 0,0 UV-I 0 W/m² 8,1 °C 6,9 °C 20,9 km/h (4 Bft)
02.10.2019 18:52 9,2 °C 93 % 1008,2 hPa 0,0 mm 7,2 km/h (2 Bft) NW 315 ° 0 min 0,000 mm 0,0 UV-I 0 W/m² 8,1 °C 8,2 °C 14,5 km/h (3 Bft)
02.10.2019 18:53 9,2 °C 93 % 1008,2 hPa 0,0 mm 4,0 km/h (1 Bft) N-NW 333 ° 0 min 0,000 mm 0,0 UV-I 0 W/m² 8,1 °C 9,2 °C 8,0 km/h (2 Bft)
02.10.2019 18:54 9,2 °C 93 % 1008,3 hPa 0,0 mm 11,5 km/h (2 Bft) NW 321 ° 0 min 0,000 mm 0,0 UV-I 0 W/m² 8,1 °C 7,4 °C 17,7 km/h (3 Bft)
02.10.2019 18:55 9,1 °C 92 % 1008,3 hPa 0,0 mm 14,5 km/h (3 Bft) NW 315 ° 0 min 0,000 mm 0,0 UV-I 0 W/m² 7,9 °C 6,9 °C 19,3 km/h (3 Bft)
02.10.2019 18:56 9,1 °C 92 % 1008,4 hPa 0,0 mm 6,0 km/h (2 Bft) N-NW 338 ° 0 min 0,000 mm 0,0 UV-I 0 W/m² 7,9 °C 8,4 °C 16,1 km/h (3 Bft)
02.10.2019 18:57 9,0 °C 92 % 1008,4 hPa 0,0 mm 9,9 km/h (2 Bft) NW 313 ° 0 min 0,000 mm 0,0 UV-I 0 W/m² 7,8 °C 7,5 °C 17,7 km/h (3 Bft)
02.10.2019 18:58 9,0 °C 92 % 1008,5 hPa 0,0 mm 11,7 km/h (2 Bft) NW 323 ° 0 min 0,000 mm 0,0 UV-I 0 W/m² 7,8 °C 7,2 °C 16,1 km/h (3 Bft)
02.10.2019 18:59 8,9 °C 92 % 1008,5 hPa 0,0 mm 11,1 km/h (2 Bft) N-NW 346 ° 0 min 0,000 mm 0,0 UV-I 0 W/m² 7,7 °C 7,1 °C 16,1 km/h (3 Bft)
02.10.2019 19:00 8,8 °C 92 % 1008,7 hPa 0,0 mm 12,9 km/h (3 Bft) NO 34 ° 0 min 0,000 mm 0,0 UV-I 0 W/m² 7,6 °C 6,7 °C 20,9 km/h (4 Bft)
02.10.2019 19:01 8,6 °C 92 % 1008,7 hPa 0,0 mm 18,6 km/h (3 Bft) N-NO 15 ° 0 min 0,000 mm 0,0 UV-I 0 W/m² 7,4 °C 5,8 °C 25,7 km/h (4 Bft)
02.10.2019 19:02 8,5 °C 92 % 1008,8 hPa 0,0 mm 12,2 km/h (2 Bft) N 360 ° 0 min 0,000 mm 0,0 UV-I 0 W/m² 7,3 °C 6,5 °C 22,5 km/h (4 Bft)
02.10.2019 19:03 8,4 °C 92 % 1008,9 hPa 0,2 mm 9,6 km/h (2 Bft) N-NO 32 ° 0 min 0,000 mm 0,0 UV-I 0 W/m² 7,2 °C 6,8 °C 14,5 km/h (3 Bft)
02.10.2019 19:04 8,3 °C 92 % 1008,9 hPa 0,0 mm 14,0 km/h (3 Bft) NO 44 ° 0 min 0,000 mm 0,0 UV-I 0 W/m² 7,1 °C 6,0 °C 19,3 km/h (3 Bft)
02.10.2019 19:05 8,1 °C 92 % 1009,0 hPa 0,0 mm 10,5 km/h (2 Bft) N-NW 345 ° 0 min 0,000 mm 0,0 UV-I 0 W/m² 6,9 °C 6,3 °C 17,7 km/h (3 Bft)
02.10.2019 19:06 8,0 °C 92 % 1009,0 hPa 0,0 mm 8,0 km/h (2 Bft) N-NW 334 ° 0 min 0,000 mm 0,0 UV-I 0 W/m² 6,8 °C 6,7 °C 14,5 km/h (3 Bft)
02.10.2019 19:07 7,9 °C 92 % 1009,0 hPa 0,0 mm 6,6 km/h (2 Bft) NW 318 ° 0 min 0,000 mm 0,0 UV-I 0 W/m² 6,7 °C 6,9 °C 9,7 km/h (2 Bft)
02.10.2019 19:08 7,9 °C 92 % 1009,2 hPa 0,0 mm 11,2 km/h (2 Bft) W-NW 303 ° 0 min 0,000 mm 0,0 UV-I 0 W/m² 6,7 °C 5,9 °C 16,1 km/h (3 Bft)
02.10.2019 19:09 7,8 °C 92 % 1009,2 hPa 0,0 mm 11,9 km/h (2 Bft) NW 319 ° 0 min 0,000 mm 0,0 UV-I 0 W/m² 6,6 °C 5,7 °C 17,7 km/h (3 Bft)
02.10.2019 19:10 7,8 °C 92 % 1009,2 hPa 0,0 mm 7,1 km/h (2 Bft) N-NW 333 ° 0 min 0,000 mm 0,0 UV-I 0 W/m² 6,6 °C 6,6 °C 9,7 km/h (2 Bft)
02.10.2019 19:11 7,8 °C 92 % 1009,2 hPa 0,0 mm 6,8 km/h (2 Bft) N-NO 21 ° 0 min 0,000 mm 0,0 UV-I 0 W/m² 6,6 °C 6,7 °C 12,9 km/h (3 Bft)
02.10.2019 19:12 7,8 °C 92 % 1009,2 hPa 0,0 mm 7,3 km/h (2 Bft) N-NW 341 ° 0 min 0,000 mm 0,0 UV-I 0 W/m² 6,6 °C 6,6 °C 9,7 km/h (2 Bft)
02.10.2019 19:13 7,8 °C 92 % 1009,3 hPa 0,0 mm 10,0 km/h (2 Bft) W 274 ° 0 min 0,000 mm 0,0 UV-I 0 W/m² 6,6 °C 6,0 °C 16,1 km/h (3 Bft)
02.10.2019 19:14 7,7 °C 92 % 1009,4 hPa 0,0 mm 5,1 km/h (1 Bft) N-NW 334 ° 0 min 0,000 mm 0,0 UV-I 0 W/m² 6,5 °C 7,1 °C 12,9 km/h (3 Bft)
02.10.2019 19:15 7,7 °C 92 % 1009,4 hPa 0,0 mm 7,2 km/h (2 Bft) NW 314 ° 0 min 0,000 mm 0,0 UV-I 0 W/m² 6,5 °C 6,5 °C 12,9 km/h (3 Bft)
02.10.2019 19:16 7,7 °C 92 % 1009,5 hPa 0,0 mm 9,5 km/h (2 Bft) W 264 ° 0 min 0,000 mm 0,0 UV-I 0 W/m² 6,5 °C 6,0 °C 14,5 km/h (3 Bft)
02.10.2019 19:17 7,6 °C 92 % 1009,5 hPa 0,0 mm 8,8 km/h (2 Bft) W-NW 294 ° 0 min 0,000 mm 0,0 UV-I 0 W/m² 6,4 °C 6,0 °C 14,5 km/h (3 Bft)
02.10.2019 19:18 7,6 °C 92 % 1009,5 hPa 0,0 mm 12,7 km/h (3 Bft) N-NW 328 ° 0 min 0,000 mm 0,0 UV-I 0 W/m² 6,4 °C 5,3 °C 17,7 km/h (3 Bft)
02.10.2019 19:19 7,5 °C 92 % 1009,5 hPa 0,0 mm 7,3 km/h (2 Bft) NW 314 ° 0 min 0,000 mm 0,0 UV-I 0 W/m² 6,3 °C 6,2 °C 12,9 km/h (3 Bft)
02.10.2019 19:20 7,4 °C 92 % 1009,6 hPa 0,0 mm 10,0 km/h (2 Bft) NW 321 ° 0 min 0,000 mm 0,0 UV-I 0 W/m² 6,2 °C 5,5 °C 19,3 km/h (3 Bft)
02.10.2019 19:21 7,4 °C 92 % 1009,6 hPa 0,0 mm 11,4 km/h (2 Bft) W 271 ° 0 min 0,000 mm 0,0 UV-I 0 W/m² 6,2 °C 5,3 °C 17,7 km/h (3 Bft)
02.10.2019 19:22 7,4 °C 92 % 1009,7 hPa 0,0 mm 12,8 km/h (3 Bft) NW 313 ° 0 min 0,000 mm 0,0 UV-I 0 W/m² 6,2 °C 5,0 °C 19,3 km/h (3 Bft)
02.10.2019 19:23 7,4 °C 93 % 1009,7 hPa 0,0 mm 7,9 km/h (2 Bft) NW 306 ° 0 min 0,000 mm 0,0 UV-I 0 W/m² 6,3 °C 6,0 °C 12,9 km/h (3 Bft)
02.10.2019 19:24 7,3 °C 92 % 1009,8 hPa 0,0 mm 6,2 km/h (2 Bft) W 280 ° 0 min 0,000 mm 0,0 UV-I 0 W/m² 6,1 °C 6,3 °C 8,0 km/h (2 Bft)
02.10.2019 19:25 7,3 °C 92 % 1009,8 hPa 0,0 mm 5,3 km/h (1 Bft) W 275 ° 0 min 0,000 mm 0,0 UV-I 0 W/m² 6,1 °C 6,6 °C 11,3 km/h (2 Bft)
02.10.2019 19:26 7,3 °C 92 % 1009,8 hPa 0,0 mm 9,5 km/h (2 Bft) NW 325 ° 0 min 0,000 mm 0,0 UV-I 0 W/m² 6,1 °C 5,5 °C 19,3 km/h (3 Bft)
02.10.2019 19:27 7,3 °C 92 % 1009,9 hPa 0,0 mm 7,6 km/h (2 Bft) NW 308 ° 0 min 0,000 mm 0,0 UV-I 0 W/m² 6,1 °C 5,9 °C 14,5 km/h (3 Bft)
02.10.2019 19:28 7,2 °C 92 % 1009,9 hPa 0,0 mm 5,3 km/h (1 Bft) NW 309 ° 0 min 0,000 mm 0,0 UV-I 0 W/m² 6,0 °C 6,5 °C 8,0 km/h (2 Bft)
02.10.2019 19:29 7,2 °C 93 % 1010,0 hPa 0,0 mm 3,6 km/h (1 Bft) W-NW 288 ° 0 min 0,000 mm 0,0 UV-I 0 W/m² 6,1 °C 7,2 °C 8,0 km/h (2 Bft)
02.10.2019 19:30 7,2 °C 93 % 1009,9 hPa 0,0 mm 6,9 km/h (2 Bft) NW 313 ° 0 min 0,000 mm 0,0 UV-I 0 W/m² 6,1 °C 6,0 °C 12,9 km/h (3 Bft)
02.10.2019 19:31 7,2 °C 93 % 1010,0 hPa 0,0 mm 6,6 km/h (2 Bft) NW 320 ° 0 min 0,000 mm 0,0 UV-I 0 W/m² 6,1 °C 6,1 °C 9,7 km/h (2 Bft)
02.10.2019 19:32 7,2 °C 93 % 1010,1 hPa 0,0 mm 7,8 km/h (2 Bft) W-SW 249 ° 0 min 0,000 mm 0,0 UV-I 0 W/m² 6,1 °C 5,8 °C 12,9 km/h (3 Bft)
02.10.2019 19:33 7,2 °C 93 % 1010,1 hPa 0,0 mm 10,1 km/h (2 Bft) W 271 ° 0 min 0,000 mm 0,0 UV-I 0 W/m² 6,1 °C 5,3 °C 19,3 km/h (3 Bft)
02.10.2019 19:34 7,2 °C 93 % 1010,3 hPa 0,0 mm 13,7 km/h (3 Bft) NW 305 ° 0 min 0,000 mm 0,0 UV-I 0 W/m² 6,1 °C 4,7 °C 19,3 km/h (3 Bft)
02.10.2019 19:35 7,1 °C 93 % 1010,3 hPa 0,0 mm 12,2 km/h (2 Bft) N 11 ° 0 min 0,000 mm 0,0 UV-I 0 W/m² 6,0 °C 4,8 °C 19,3 km/h (3 Bft)
02.10.2019 19:36 6,9 °C 92 % 1010,3 hPa 0,0 mm 10,9 km/h (2 Bft) W-NW 301 ° 0 min 0,000 mm 0,0 UV-I 0 W/m² 5,7 °C 4,8 °C 17,7 km/h (3 Bft)
02.10.2019 19:37 6,8 °C 92 % 1010,3 hPa 0,0 mm 11,2 km/h (2 Bft) N-NW 339 ° 0 min 0,000 mm 0,0 UV-I 0 W/m² 5,6 °C 4,6 °C 20,9 km/h (4 Bft)
02.10.2019 19:38 6,8 °C 92 % 1010,3 hPa 0,0 mm 11,3 km/h (2 Bft) NW 313 ° 0 min 0,000 mm 0,0 UV-I 0 W/m² 5,6 °C 4,6 °C 24,1 km/h (4 Bft)
02.10.2019 19:39 6,7 °C 92 % 1010,3 hPa 0,0 mm 11,5 km/h (2 Bft) NW 311 ° 0 min 0,000 mm 0,0 UV-I 0 W/m² 5,5 °C 4,4 °C 22,5 km/h (4 Bft)
02.10.2019 19:40 6,6 °C 92 % 1010,3 hPa 0,0 mm 12,7 km/h (3 Bft) NW 307 ° 0 min 0,000 mm 0,0 UV-I 0 W/m² 5,4 °C 4,1 °C 25,7 km/h (4 Bft)
02.10.2019 19:41 6,6 °C 92 % 1010,3 hPa 0,0 mm 7,5 km/h (2 Bft) W-NW 302 ° 0 min 0,000 mm 0,0 UV-I 0 W/m² 5,4 °C 5,1 °C 14,5 km/h (3 Bft)
02.10.2019 19:42 6,6 °C 92 % 1010,4 hPa 0,0 mm 13,3 km/h (3 Bft) NW 315 ° 0 min 0,000 mm 0,0 UV-I 0 W/m² 5,4 °C 4,0 °C 24,1 km/h (4 Bft)
02.10.2019 19:43 6,5 °C 92 % 1010,4 hPa 0,0 mm 15,0 km/h (3 Bft) NW 310 ° 0 min 0,000 mm 0,0 UV-I 0 W/m² 5,3 °C 3,6 °C 20,9 km/h (4 Bft)
02.10.2019 19:44 6,4 °C 92 % 1010,5 hPa 0,0 mm 8,8 km/h (2 Bft) W-NW 292 ° 0 min 0,000 mm 0,0 UV-I 0 W/m² 5,2 °C 4,6 °C 14,5 km/h (3 Bft)
02.10.2019 19:45 6,4 °C 92 % 1010,6 hPa 0,0 mm 7,3 km/h (2 Bft) NW 305 ° 0 min 0,000 mm 0,0 UV-I 0 W/m² 5,2 °C 5,0 °C 17,7 km/h (3 Bft)
02.10.2019 19:46 6,4 °C 92 % 1010,6 hPa 0,0 mm 7,2 km/h (2 Bft) N-NW 342 ° 0 min 0,000 mm 0,0 UV-I 0 W/m² 5,2 °C 5,0 °C 16,1 km/h (3 Bft)
02.10.2019 19:47 6,4 °C 92 % 1010,7 hPa 0,0 mm 8,9 km/h (2 Bft) N-NW 332 ° 0 min 0,000 mm 0,0 UV-I 0 W/m² 5,2 °C 4,6 °C 14,5 km/h (3 Bft)
02.10.2019 19:48 6,4 °C 92 % 1010,8 hPa 0,0 mm 5,7 km/h (1 Bft) N-NO 24 ° 0 min 0,000 mm 0,0 UV-I 0 W/m² 5,2 °C 5,4 °C 8,0 km/h (2 Bft)
02.10.2019 19:49 6,4 °C 92 % 1010,8 hPa 0,0 mm 7,2 km/h (2 Bft) N-NW 346 ° 0 min 0,000 mm 0,0 UV-I 0 W/m² 5,2 °C 5,0 °C 12,9 km/h (3 Bft)
02.10.2019 19:50 6,3 °C 92 % 1010,8 hPa 0,0 mm 8,8 km/h (2 Bft) W-NW 292 ° 0 min 0,000 mm 0,0 UV-I 0 W/m² 5,1 °C 4,5 °C 12,9 km/h (3 Bft)
02.10.2019 19:51 6,3 °C 92 % 1010,8 hPa 0,0 mm 7,4 km/h (2 Bft) N-NW 347 ° 0 min 0,000 mm 0,0 UV-I 0 W/m² 5,1 °C 4,8 °C 12,9 km/h (3 Bft)
02.10.2019 19:52 6,3 °C 92 % 1010,9 hPa 0,0 mm 8,3 km/h (2 Bft) NW 321 ° 0 min 0,000 mm 0,0 UV-I 0 W/m² 5,1 °C 4,6 °C 14,5 km/h (3 Bft)
02.10.2019 19:53 6,3 °C 93 % 1011,0 hPa 0,0 mm 4,8 km/h (1 Bft) NW 319 ° 0 min 0,000 mm 0,0 UV-I 0 W/m² 5,3 °C 5,6 °C 8,0 km/h (2 Bft)
02.10.2019 19:54 6,3 °C 92 % 1011,0 hPa 0,0 mm 6,2 km/h (2 Bft) W-NW 299 ° 0 min 0,000 mm 0,0 UV-I 0 W/m² 5,1 °C 5,2 °C 8,0 km/h (2 Bft)
02.10.2019 19:55 6,3 °C 92 % 1011,1 hPa 0,0 mm 4,1 km/h (1 Bft) NW 314 ° 0 min 0,000 mm 0,0 UV-I 0 W/m² 5,1 °C 6,3 °C 8,0 km/h (2 Bft)
02.10.2019 19:56 6,2 °C 92 % 1011,1 hPa 0,0 mm 3,4 km/h (1 Bft) NW 324 ° 0 min 0,000 mm 0,0 UV-I 0 W/m² 5,0 °C 6,2 °C 4,8 km/h (1 Bft)
02.10.2019 19:57 6,2 °C 92 % 1011,1 hPa 0,0 mm 4,1 km/h (1 Bft) W 265 ° 0 min 0,000 mm 0,0 UV-I 0 W/m² 5,0 °C 6,2 °C 6,4 km/h (2 Bft)
02.10.2019 19:58 6,1 °C 92 % 1011,2 hPa 0,0 mm 6,2 km/h (2 Bft) W 278 ° 0 min 0,000 mm 0,0 UV-I 0 W/m² 4,9 °C 4,9 °C 12,9 km/h (3 Bft)
02.10.2019 19:59 6,1 °C 92 % 1011,2 hPa 0,0 mm 7,5 km/h (2 Bft) NW 324 ° 0 min 0,000 mm 0,0 UV-I 0 W/m² 4,9 °C 4,6 °C 12,9 km/h (3 Bft)
02.10.2019 20:00 6,0 °C 92 % 1011,3 hPa 0,0 mm 3,6 km/h (1 Bft) NW 309 ° 0 min 0,000 mm 0,0 UV-I 0 W/m² 4,8 °C 6,0 °C 8,0 km/h (2 Bft)
02.10.2019 20:01 6,1 °C 92 % 1011,3 hPa 0,0 mm 4,0 km/h (1 Bft) NW 304 ° 0 min 0,000 mm 0,0 UV-I 0 W/m² 4,9 °C 6,1 °C 6,4 km/h (2 Bft)
02.10.2019 20:02 5,9 °C 92 % 1011,4 hPa 0,0 mm 3,1 km/h (1 Bft) W-NW 293 ° 0 min 0,000 mm 0,0 UV-I 0 W/m² 4,7 °C 5,9 °C 4,8 km/h (1 Bft)
02.10.2019 20:03 5,9 °C 92 % 1011,4 hPa 0,0 mm 4,3 km/h (1 Bft) W-NW 286 ° 0 min 0,000 mm 0,0 UV-I 0 W/m² 4,7 °C 5,9 °C 6,4 km/h (2 Bft)
02.10.2019 20:04 5,9 °C 92 % 1011,5 hPa 0,0 mm 3,2 km/h (1 Bft) W-NW 288 ° 0 min 0,000 mm 0,0 UV-I 0 W/m² 4,7 °C 5,9 °C 4,8 km/h (1 Bft)
02.10.2019 20:05 5,9 °C 92 % 1011,5 hPa 0,0 mm 4,2 km/h (1 Bft) W 279 ° 0 min 0,000 mm 0,0 UV-I 0 W/m² 4,7 °C 5,9 °C 4,8 km/h (1 Bft)
02.10.2019 20:06 5,9 °C 92 % 1011,6 hPa 0,0 mm 6,0 km/h (2 Bft) W 261 ° 0 min 0,000 mm 0,0 UV-I 0 W/m² 4,7 °C 4,8 °C 9,7 km/h (2 Bft)
02.10.2019 20:07 5,9 °C 92 % 1011,6 hPa 0,0 mm 5,6 km/h (1 Bft) SW 231 ° 0 min 0,000 mm 0,0 UV-I 0 W/m² 4,7 °C 4,9 °C 8,0 km/h (2 Bft)
02.10.2019 20:08 5,8 °C 92 % 1011,6 hPa 0,0 mm 3,1 km/h (1 Bft) SW 225 ° 0 min 0,000 mm 0,0 UV-I 0 W/m² 4,6 °C 5,8 °C 4,8 km/h (1 Bft)
02.10.2019 20:09 5,8 °C 92 % 1011,6 hPa 0,0 mm 4,4 km/h (1 Bft) SW 215 ° 0 min 0,000 mm 0,0 UV-I 0 W/m² 4,6 °C 5,8 °C 6,4 km/h (2 Bft)
02.10.2019 20:10 5,8 °C 92 % 1011,7 hPa 0,0 mm 2,6 km/h (1 Bft) SW 216 ° 0 min 0,000 mm 0,0 UV-I 0 W/m² 4,6 °C 5,8 °C 4,8 km/h (1 Bft)
02.10.2019 20:11 5,8 °C 92 % 1011,7 hPa 0,0 mm 3,9 km/h (1 Bft) SW 217 ° 0 min 0,000 mm 0,0 UV-I 0 W/m² 4,6 °C 5,8 °C 6,4 km/h (2 Bft)
02.10.2019 20:12 5,8 °C 92 % 1011,7 hPa 0,0 mm 3,5 km/h (1 Bft) SW 234 ° 0 min 0,000 mm 0,0 UV-I 0 W/m² 4,6 °C 5,8 °C 4,8 km/h (1 Bft)
02.10.2019 20:13 5,8 °C 92 % 1011,8 hPa 0,0 mm 2,2 km/h (1 Bft) SW 230 ° 0 min 0,000 mm 0,0 UV-I 0 W/m² 4,6 °C 5,8 °C 4,8 km/h (1 Bft)
02.10.2019 20:14 5,7 °C 92 % 1011,8 hPa 0,0 mm 6,3 km/h (2 Bft) W 277 ° 0 min 0,000 mm 0,0 UV-I 0 W/m² 4,5 °C 4,4 °C 11,3 km/h (2 Bft)
02.10.2019 20:15 5,7 °C 92 % 1011,8 hPa 0,0 mm 3,4 km/h (1 Bft) W 267 ° 0 min 0,000 mm 0,0 UV-I 0 W/m² 4,5 °C 5,7 °C 6,4 km/h (2 Bft)
02.10.2019 20:16 5,7 °C 92 % 1011,9 hPa 0,0 mm 3,0 km/h (1 Bft) SW 236 ° 0 min 0,000 mm 0,0 UV-I 0 W/m² 4,5 °C 5,7 °C 4,8 km/h (1 Bft)
02.10.2019 20:17 5,7 °C 92 % 1012,0 hPa 0,0 mm 3,4 km/h (1 Bft) S-SW 200 ° 0 min 0,000 mm 0,0 UV-I 0 W/m² 4,5 °C 5,7 °C 4,8 km/h (1 Bft)
02.10.2019 20:18 5,7 °C 92 % 1011,9 hPa 0,0 mm 5,0 km/h (1 Bft) W-SW 253 ° 0 min 0,000 mm 0,0 UV-I 0 W/m² 4,5 °C 4,9 °C 6,4 km/h (2 Bft)
02.10.2019 20:19 5,7 °C 92 % 1011,9 hPa 0,0 mm 2,5 km/h (1 Bft) W-SW 252 ° 0 min 0,000 mm 0,0 UV-I 0 W/m² 4,5 °C 5,7 °C 4,8 km/h (1 Bft)
02.10.2019 20:20 5,7 °C 92 % 1011,9 hPa 0,0 mm 3,9 km/h (1 Bft) W-SW 244 ° 0 min 0,000 mm 0,0 UV-I 0 W/m² 4,5 °C 5,7 °C 8,0 km/h (2 Bft)
02.10.2019 20:21 5,7 °C 92 % 1012,0 hPa 0,0 mm 2,9 km/h (1 Bft) S 185 ° 0 min 0,000 mm 0,0 UV-I 0 W/m² 4,5 °C 5,7 °C 6,4 km/h (2 Bft)
02.10.2019 20:22 5,7 °C 93 % 1012,1 hPa 0,0 mm 1,3 km/h (1 Bft) S 186 ° 0 min 0,000 mm 0,0 UV-I 0 W/m² 4,7 °C 5,7 °C 3,2 km/h (1 Bft)
02.10.2019 20:23 5,7 °C 93 % 1012,1 hPa 0,0 mm 3,5 km/h (1 Bft) S-SW 197 ° 0 min 0,000 mm 0,0 UV-I 0 W/m² 4,7 °C 5,7 °C 8,0 km/h (2 Bft)
02.10.2019 20:24 5,7 °C 93 % 1012,1 hPa 0,0 mm 6,2 km/h (2 Bft) S-SW 199 ° 0 min 0,000 mm 0,0 UV-I 0 W/m² 4,7 °C 4,5 °C 8,0 km/h (2 Bft)
02.10.2019 20:25 5,7 °C 93 % 1012,1 hPa 0,0 mm 5,3 km/h (1 Bft) S-SW 194 ° 0 min 0,000 mm 0,0 UV-I 0 W/m² 4,7 °C 4,8 °C 8,0 km/h (2 Bft)
02.10.2019 20:26 5,7 °C 93 % 1012,2 hPa 0,0 mm 5,9 km/h (2 Bft) S 189 ° 0 min 0,000 mm 0,0 UV-I 0 W/m² 4,7 °C 4,6 °C 9,7 km/h (2 Bft)
02.10.2019 20:27 5,7 °C 93 % 1012,2 hPa 0,0 mm 7,5 km/h (2 Bft) S 189 ° 0 min 0,000 mm 0,0 UV-I 0 W/m² 4,7 °C 4,1 °C 12,9 km/h (3 Bft)
02.10.2019 20:28 5,7 °C 93 % 1012,2 hPa 0,0 mm 7,4 km/h (2 Bft) S-SW 194 ° 0 min 0,000 mm 0,0 UV-I 0 W/m² 4,7 °C 4,1 °C 11,3 km/h (2 Bft)
02.10.2019 20:29 5,7 °C 93 % 1012,2 hPa 0,0 mm 8,5 km/h (2 Bft) S 184 ° 0 min 0,000 mm 0,0 UV-I 0 W/m² 4,7 °C 3,8 °C 12,9 km/h (3 Bft)
02.10.2019 20:30 5,7 °C 92 % 1012,2 hPa 0,0 mm 6,5 km/h (2 Bft) S-SW 196 ° 0 min 0,000 mm 0,0 UV-I 0 W/m² 4,5 °C 4,4 °C 9,7 km/h (2 Bft)
02.10.2019 20:31 5,6 °C 92 % 1012,3 hPa 0,0 mm 8,0 km/h (2 Bft) S 184 ° 0 min 0,000 mm 0,0 UV-I 0 W/m² 4,4 °C 3,8 °C 9,7 km/h (2 Bft)
02.10.2019 20:32 5,6 °C 92 % 1012,2 hPa 0,0 mm 4,4 km/h (1 Bft) W-SW 254 ° 0 min 0,000 mm 0,0 UV-I 0 W/m² 4,4 °C 5,6 °C 6,4 km/h (2 Bft)
02.10.2019 20:33 5,6 °C 92 % 1012,2 hPa 0,0 mm 3,2 km/h (1 Bft) SW 215 ° 0 min 0,000 mm 0,0 UV-I 0 W/m² 4,4 °C 5,6 °C 4,8 km/h (1 Bft)
02.10.2019 20:34 5,6 °C 92 % 1012,3 hPa 0,0 mm 6,4 km/h (2 Bft) W-SW 244 ° 0 min 0,000 mm 0,0 UV-I 0 W/m² 4,4 °C 4,3 °C 11,3 km/h (2 Bft)
02.10.2019 20:35 5,6 °C 92 % 1012,3 hPa 0,0 mm 3,6 km/h (1 Bft) S-SW 201 ° 0 min 0,000 mm 0,0 UV-I 0 W/m² 4,4 °C 5,6 °C 6,4 km/h (2 Bft)
02.10.2019 20:36 5,6 °C 92 % 1012,3 hPa 0,0 mm 2,9 km/h (1 Bft) SW 225 ° 0 min 0,000 mm 0,0 UV-I 0 W/m² 4,4 °C 5,6 °C 4,8 km/h (1 Bft)
02.10.2019 20:37 5,6 °C 92 % 1012,3 hPa 0,0 mm 5,8 km/h (2 Bft) SW 230 ° 0 min 0,000 mm 0,0 UV-I 0 W/m² 4,4 °C 4,5 °C 11,3 km/h (2 Bft)
02.10.2019 20:38 5,6 °C 92 % 1012,4 hPa 0,0 mm 8,3 km/h (2 Bft) S 184 ° 0 min 0,000 mm 0,0 UV-I 0 W/m² 4,4 °C 3,8 °C 12,9 km/h (3 Bft)
02.10.2019 20:39 5,4 °C 92 % 1012,4 hPa 0,0 mm 5,1 km/h (1 Bft) SW 225 ° 0 min 0,000 mm 0,0 UV-I 0 W/m² 4,2 °C 4,5 °C 8,0 km/h (2 Bft)
02.10.2019 20:40 5,4 °C 92 % 1012,5 hPa 0,0 mm 5,8 km/h (2 Bft) S 188 ° 0 min 0,000 mm 0,0 UV-I 0 W/m² 4,2 °C 4,2 °C 9,7 km/h (2 Bft)
02.10.2019 20:41 5,4 °C 92 % 1012,5 hPa 0,0 mm 5,5 km/h (1 Bft) S-SW 205 ° 0 min 0,000 mm 0,0 UV-I 0 W/m² 4,2 °C 4,4 °C 9,7 km/h (2 Bft)
02.10.2019 20:42 5,4 °C 92 % 1012,6 hPa 0,0 mm 6,6 km/h (2 Bft) SW 216 ° 0 min 0,000 mm 0,0 UV-I 0 W/m² 4,2 °C 4,0 °C 11,3 km/h (2 Bft)
02.10.2019 20:43 5,4 °C 92 % 1012,6 hPa 0,0 mm 4,4 km/h (1 Bft) SW 230 ° 0 min 0,000 mm 0,0 UV-I 0 W/m² 4,2 °C 5,4 °C 9,7 km/h (2 Bft)
02.10.2019 20:44 5,4 °C 92 % 1012,6 hPa 0,0 mm 5,7 km/h (1 Bft) S-SW 198 ° 0 min 0,000 mm 0,0 UV-I 0 W/m² 4,2 °C 4,3 °C 11,3 km/h (2 Bft)
02.10.2019 20:45 5,4 °C 92 % 1012,7 hPa 0,0 mm 4,2 km/h (1 Bft) S 188 ° 0 min 0,000 mm 0,0 UV-I 0 W/m² 4,2 °C 5,4 °C 8,0 km/h (2 Bft)
02.10.2019 20:46 5,4 °C 92 % 1012,7 hPa 0,0 mm 5,6 km/h (1 Bft) S-SW 193 ° 0 min 0,000 mm 0,0 UV-I 0 W/m² 4,2 °C 4,3 °C 9,7 km/h (2 Bft)
02.10.2019 20:47 5,4 °C 92 % 1012,8 hPa 0,0 mm 5,2 km/h (1 Bft) SW 235 ° 0 min 0,000 mm 0,0 UV-I 0 W/m² 4,2 °C 4,5 °C 9,7 km/h (2 Bft)
02.10.2019 20:48 5,4 °C 92 % 1012,8 hPa 0,0 mm 3,0 km/h (1 Bft) SW 233 ° 0 min 0,000 mm 0,0 UV-I 0 W/m² 4,2 °C 5,4 °C 6,4 km/h (2 Bft)
02.10.2019 20:49 5,4 °C 92 % 1012,9 hPa 0,0 mm 5,2 km/h (1 Bft) W-SW 252 ° 0 min 0,000 mm 0,0 UV-I 0 W/m² 4,2 °C 4,5 °C 8,0 km/h (2 Bft)
02.10.2019 20:50 5,4 °C 92 % 1012,9 hPa 0,0 mm 5,8 km/h (2 Bft) W-SW 258 ° 0 min 0,000 mm 0,0 UV-I 0 W/m² 4,2 °C 4,2 °C 9,7 km/h (2 Bft)
02.10.2019 20:51 5,4 °C 92 % 1012,9 hPa 0,0 mm 4,4 km/h (1 Bft) S-SW 192 ° 0 min 0,000 mm 0,0 UV-I 0 W/m² 4,2 °C 5,4 °C 8,0 km/h (2 Bft)
02.10.2019 20:52 5,3 °C 92 % 1012,9 hPa 0,0 mm 6,2 km/h (2 Bft) SW 233 ° 0 min 0,000 mm 0,0 UV-I 0 W/m² 4,1 °C 4,0 °C 9,7 km/h (2 Bft)
02.10.2019 20:53 5,3 °C 92 % 1013,0 hPa 0,0 mm 5,2 km/h (1 Bft) S-SW 193 ° 0 min 0,000 mm 0,0 UV-I 0 W/m² 4,1 °C 4,3 °C 6,4 km/h (2 Bft)
02.10.2019 20:54 5,3 °C 92 % 1012,9 hPa 0,0 mm 3,7 km/h (1 Bft) S-SW 202 ° 0 min 0,000 mm 0,0 UV-I 0 W/m² 4,1 °C 5,3 °C 6,4 km/h (2 Bft)
02.10.2019 20:55 5,3 °C 92 % 1013,0 hPa 0,0 mm 4,4 km/h (1 Bft) SW 234 ° 0 min 0,000 mm 0,0 UV-I 0 W/m² 4,1 °C 5,3 °C 6,4 km/h (2 Bft)
02.10.2019 20:56 5,3 °C 92 % 1013,0 hPa 0,0 mm 2,4 km/h (1 Bft) SW 234 ° 0 min 0,000 mm 0,0 UV-I 0 W/m² 4,1 °C 5,3 °C 3,2 km/h (1 Bft)
02.10.2019 20:57 5,3 °C 92 % 1013,1 hPa 0,0 mm 3,4 km/h (1 Bft) S-SW 208 ° 0 min 0,000 mm 0,0 UV-I 0 W/m² 4,1 °C 5,3 °C 6,4 km/h (2 Bft)
02.10.2019 20:58 5,3 °C 92 % 1013,1 hPa 0,0 mm 4,8 km/h (1 Bft) S-SW 208 ° 0 min 0,000 mm 0,0 UV-I 0 W/m² 4,1 °C 4,5 °C 9,7 km/h (2 Bft)
02.10.2019 20:59 5,3 °C 92 % 1013,2 hPa 0,0 mm 3,7 km/h (1 Bft) S-SW 205 ° 0 min 0,000 mm 0,0 UV-I 0 W/m² 4,1 °C 5,3 °C 6,4 km/h (2 Bft)
02.10.2019 21:00 5,2 °C 92 % 1013,2 hPa 0,0 mm 5,9 km/h (2 Bft) S-SW 207 ° 0 min 0,000 mm 0,0 UV-I 0 W/m² 4,0 °C 4,0 °C 12,9 km/h (3 Bft)
02.10.2019 21:01 5,2 °C 92 % 1013,2 hPa 0,0 mm 6,5 km/h (2 Bft) W-SW 246 ° 0 min 0,000 mm 0,0 UV-I 0 W/m² 4,0 °C 3,8 °C 11,3 km/h (2 Bft)
02.10.2019 21:02 5,2 °C 92 % 1013,2 hPa 0,0 mm 6,2 km/h (2 Bft) W-SW 239 ° 0 min 0,000 mm 0,0 UV-I 0 W/m² 4,0 °C 3,9 °C 11,3 km/h (2 Bft)
02.10.2019 21:03 5,2 °C 92 % 1013,3 hPa 0,0 mm 7,0 km/h (2 Bft) S-SW 202 ° 0 min 0,000 mm 0,0 UV-I 0 W/m² 4,0 °C 3,6 °C 11,3 km/h (2 Bft)
02.10.2019 21:04 5,2 °C 92 % 1013,4 hPa 0,0 mm 7,0 km/h (2 Bft) SW 236 ° 0 min 0,000 mm 0,0 UV-I 0 W/m² 4,0 °C 3,6 °C 12,9 km/h (3 Bft)
02.10.2019 21:05 5,2 °C 92 % 1013,4 hPa 0,0 mm 3,0 km/h (1 Bft) W-SW 245 ° 0 min 0,000 mm 0,0 UV-I 0 W/m² 4,0 °C 5,2 °C 6,4 km/h (2 Bft)
02.10.2019 21:06 5,2 °C 92 % 1013,4 hPa 0,0 mm 3,6 km/h (1 Bft) S-SW 194 ° 0 min 0,000 mm 0,0 UV-I 0 W/m² 4,0 °C 5,2 °C 11,3 km/h (2 Bft)
02.10.2019 21:07 5,2 °C 92 % 1013,5 hPa 0,0 mm 6,7 km/h (2 Bft) S 181 ° 0 min 0,000 mm 0,0 UV-I 0 W/m² 4,0 °C 3,7 °C 11,3 km/h (2 Bft)
02.10.2019 21:08 5,2 °C 92 % 1013,5 hPa 0,0 mm 4,4 km/h (1 Bft) S 187 ° 0 min 0,000 mm 0,0 UV-I 0 W/m² 4,0 °C 5,2 °C 9,7 km/h (2 Bft)
02.10.2019 21:09 5,2 °C 92 % 1013,5 hPa 0,0 mm 6,1 km/h (2 Bft) S-SW 200 ° 0 min 0,000 mm 0,0 UV-I 0 W/m² 4,0 °C 3,9 °C 9,7 km/h (2 Bft)
02.10.2019 21:10 5,1 °C 92 % 1013,5 hPa 0,0 mm 7,3 km/h (2 Bft) W-SW 238 ° 0 min 0,000 mm 0,0 UV-I 0 W/m² 3,9 °C 3,4 °C 12,9 km/h (3 Bft)
02.10.2019 21:11 5,1 °C 92 % 1013,5 hPa 0,0 mm 5,4 km/h (1 Bft) S-SO 167 ° 0 min 0,000 mm 0,0 UV-I 0 W/m² 3,9 °C 4,0 °C 11,3 km/h (2 Bft)
02.10.2019 21:12 5,1 °C 92 % 1013,5 hPa 0,0 mm 6,2 km/h (2 Bft) S-SW 205 ° 0 min 0,000 mm 0,0 UV-I 0 W/m² 3,9 °C 3,8 °C 8,0 km/h (2 Bft)
02.10.2019 21:13 5,1 °C 92 % 1013,5 hPa 0,0 mm 3,8 km/h (1 Bft) SW 219 ° 0 min 0,000 mm 0,0 UV-I 0 W/m² 3,9 °C 5,1 °C 6,4 km/h (2 Bft)
02.10.2019 21:14 5,1 °C 92 % 1013,6 hPa 0,0 mm 5,6 km/h (1 Bft) S-SW 194 ° 0 min 0,000 mm 0,0 UV-I 0 W/m² 3,9 °C 4,0 °C 9,7 km/h (2 Bft)
02.10.2019 21:15 5,1 °C 92 % 1013,6 hPa 0,0 mm 4,2 km/h (1 Bft) SO 137 ° 0 min 0,000 mm 0,0 UV-I 0 W/m² 3,9 °C 5,1 °C 8,0 km/h (2 Bft)
02.10.2019 21:16 5,1 °C 92 % 1013,6 hPa 0,0 mm 8,5 km/h (2 Bft) S 190 ° 0 min 0,000 mm 0,0 UV-I 0 W/m² 3,9 °C 3,1 °C 12,9 km/h (3 Bft)
02.10.2019 21:17 5,1 °C 92 % 1013,6 hPa 0,0 mm 7,4 km/h (2 Bft) S 190 ° 0 min 0,000 mm 0,0 UV-I 0 W/m² 3,9 °C 3,4 °C 9,7 km/h (2 Bft)
02.10.2019 21:18 5,0 °C 92 % 1013,6 hPa 0,0 mm 3,8 km/h (1 Bft) S 189 ° 0 min 0,000 mm 0,0 UV-I 0 W/m² 3,8 °C 5,0 °C 11,3 km/h (2 Bft)
02.10.2019 21:19 4,9 °C 92 % 1013,6 hPa 0,0 mm 4,4 km/h (1 Bft) S 181 ° 0 min 0,000 mm 0,0 UV-I 0 W/m² 3,7 °C 4,9 °C 11,3 km/h (2 Bft)
02.10.2019 21:20 5,0 °C 92 % 1013,6 hPa 0,0 mm 2,5 km/h (1 Bft) SW 235 ° 0 min 0,000 mm 0,0 UV-I 0 W/m² 3,8 °C 5,0 °C 4,8 km/h (1 Bft)
02.10.2019 21:21 4,9 °C 92 % 1013,6 hPa 0,0 mm 4,1 km/h (1 Bft) SW 232 ° 0 min 0,000 mm 0,0 UV-I 0 W/m² 3,7 °C 4,9 °C 6,4 km/h (2 Bft)
02.10.2019 21:22 4,9 °C 92 % 1013,7 hPa 0,0 mm 3,2 km/h (1 Bft) SW 224 ° 0 min 0,000 mm 0,0 UV-I 0 W/m² 3,7 °C 4,9 °C 4,8 km/h (1 Bft)
02.10.2019 21:23 4,9 °C 92 % 1013,7 hPa 0,0 mm 6,6 km/h (2 Bft) S-SW 196 ° 0 min 0,000 mm 0,0 UV-I 0 W/m² 3,7 °C 3,4 °C 9,7 km/h (2 Bft)
02.10.2019 21:24 4,9 °C 92 % 1013,6 hPa 0,0 mm 4,4 km/h (1 Bft) S-SW 202 ° 0 min 0,000 mm 0,0 UV-I 0 W/m² 3,7 °C 4,9 °C 8,0 km/h (2 Bft)
02.10.2019 21:25 4,9 °C 92 % 1013,6 hPa 0,0 mm 3,2 km/h (1 Bft) SW 223 ° 0 min 0,000 mm 0,0 UV-I 0 W/m² 3,7 °C 4,9 °C 4,8 km/h (1 Bft)
02.10.2019 21:26 4,9 °C 92 % 1013,6 hPa 0,0 mm 4,0 km/h (1 Bft) S-SW 207 ° 0 min 0,000 mm 0,0 UV-I 0 W/m² 3,7 °C 4,9 °C 6,4 km/h (2 Bft)
02.10.2019 21:27 4,9 °C 92 % 1013,7 hPa 0,0 mm 4,6 km/h (1 Bft) W-SW 253 ° 0 min 0,000 mm 0,0 UV-I 0 W/m² 3,7 °C 4,1 °C 6,4 km/h (2 Bft)
02.10.2019 21:28 4,9 °C 92 % 1013,7 hPa 0,0 mm 3,9 km/h (1 Bft) W-SW 256 ° 0 min 0,000 mm 0,0 UV-I 0 W/m² 3,7 °C 4,9 °C 6,4 km/h (2 Bft)
02.10.2019 21:29 4,9 °C 92 % 1013,8 hPa 0,0 mm 1,2 km/h (1 Bft) W-SW 248 ° 0 min 0,000 mm 0,0 UV-I 0 W/m² 3,7 °C 4,9 °C 3,2 km/h (1 Bft)
02.10.2019 21:30 4,8 °C 92 % 1013,8 hPa 0,0 mm 5,5 km/h (1 Bft) S-SO 168 ° 0 min 0,000 mm 0,0 UV-I 0 W/m² 3,6 °C 3,7 °C 9,7 km/h (2 Bft)
02.10.2019 21:31 4,8 °C 92 % 1013,7 hPa 0,0 mm 2,8 km/h (1 Bft) W-SW 248 ° 0 min 0,000 mm 0,0 UV-I 0 W/m² 3,6 °C 4,8 °C 4,8 km/h (1 Bft)
02.10.2019 21:32 4,8 °C 92 % 1013,8 hPa 0,0 mm 3,0 km/h (1 Bft) SW 224 ° 0 min 0,000 mm 0,0 UV-I 0 W/m² 3,6 °C 4,8 °C 4,8 km/h (1 Bft)
02.10.2019 21:33 4,8 °C 92 % 1013,8 hPa 0,0 mm 2,8 km/h (1 Bft) W-SW 238 ° 0 min 0,000 mm 0,0 UV-I 0 W/m² 3,6 °C 4,8 °C 4,8 km/h (1 Bft)
02.10.2019 21:34 4,8 °C 92 % 1013,9 hPa 0,0 mm 3,6 km/h (1 Bft) W-SW 253 ° 0 min 0,000 mm 0,0 UV-I 0 W/m² 3,6 °C 4,8 °C 6,4 km/h (2 Bft)
02.10.2019 21:35 4,8 °C 92 % 1013,9 hPa 0,0 mm 3,8 km/h (1 Bft) SW 223 ° 0 min 0,000 mm 0,0 UV-I 0 W/m² 3,6 °C 4,8 °C 6,4 km/h (2 Bft)
02.10.2019 21:36 4,8 °C 92 % 1013,9 hPa 0,0 mm 3,7 km/h (1 Bft) S 185 ° 0 min 0,000 mm 0,0 UV-I 0 W/m² 3,6 °C 4,8 °C 8,0 km/h (2 Bft)
02.10.2019 21:37 4,8 °C 92 % 1013,9 hPa 0,0 mm 6,4 km/h (2 Bft) S 191 ° 0 min 0,000 mm 0,0 UV-I 0 W/m² 3,6 °C 3,4 °C 12,9 km/h (3 Bft)
02.10.2019 21:38 4,8 °C 92 % 1013,9 hPa 0,0 mm 6,0 km/h (2 Bft) W-SW 247 ° 0 min 0,000 mm 0,0 UV-I 0 W/m² 3,6 °C 3,5 °C 11,3 km/h (2 Bft)
02.10.2019 21:39 4,7 °C 92 % 1014,0 hPa 0,0 mm 6,4 km/h (2 Bft) S 182 ° 0 min 0,000 mm 0,0 UV-I 0 W/m² 3,5 °C 3,2 °C 9,7 km/h (2 Bft)
02.10.2019 21:40 4,8 °C 92 % 1013,9 hPa 0,0 mm 4,4 km/h (1 Bft) S-SW 198 ° 0 min 0,000 mm 0,0 UV-I 0 W/m² 3,6 °C 4,8 °C 11,3 km/h (2 Bft)
02.10.2019 21:41 4,7 °C 92 % 1013,9 hPa 0,0 mm 4,8 km/h (1 Bft) W-SW 244 ° 0 min 0,000 mm 0,0 UV-I 0 W/m² 3,5 °C 3,8 °C 8,0 km/h (2 Bft)
02.10.2019 21:42 4,7 °C 92 % 1013,9 hPa 0,0 mm 3,2 km/h (1 Bft) W-SW 245 ° 0 min 0,000 mm 0,0 UV-I 0 W/m² 3,5 °C 4,7 °C 4,8 km/h (1 Bft)
02.10.2019 21:43 4,7 °C 92 % 1013,9 hPa 0,0 mm 3,5 km/h (1 Bft) SW 232 ° 0 min 0,000 mm 0,0 UV-I 0 W/m² 3,5 °C 4,7 °C 4,8 km/h (1 Bft)
02.10.2019 21:44 4,7 °C 92 % 1013,9 hPa 0,0 mm 3,4 km/h (1 Bft) SW 227 ° 0 min 0,000 mm 0,0 UV-I 0 W/m² 3,5 °C 4,7 °C 8,0 km/h (2 Bft)
02.10.2019 21:45 4,8 °C 92 % 1014,0 hPa 0,0 mm 3,4 km/h (1 Bft) W-SW 244 ° 0 min 0,000 mm 0,0 UV-I 0 W/m² 3,6 °C 4,8 °C 6,4 km/h (2 Bft)
02.10.2019 21:46 4,7 °C 92 % 1014,0 hPa 0,0 mm 1,8 km/h (1 Bft) W-SW 244 ° 0 min 0,000 mm 0,0 UV-I 0 W/m² 3,5 °C 4,7 °C 4,8 km/h (1 Bft)
02.10.2019 21:47 4,8 °C 92 % 1014,1 hPa 0,0 mm 2,8 km/h (1 Bft) W-SW 238 ° 0 min 0,000 mm 0,0 UV-I 0 W/m² 3,6 °C 4,8 °C 4,8 km/h (1 Bft)
02.10.2019 21:48 4,8 °C 92 % 1014,1 hPa 0,0 mm 3,6 km/h (1 Bft) W-SW 257 ° 0 min 0,000 mm 0,0 UV-I 0 W/m² 3,6 °C 4,8 °C 6,4 km/h (2 Bft)
02.10.2019 21:49 4,8 °C 92 % 1014,1 hPa 0,0 mm 1,4 km/h (1 Bft) W-SW 255 ° 0 min 0,000 mm 0,0 UV-I 0 W/m² 3,6 °C 4,8 °C 3,2 km/h (1 Bft)
02.10.2019 21:50 4,8 °C 92 % 1014,2 hPa 0,0 mm 2,7 km/h (1 Bft) S-SW 198 ° 0 min 0,000 mm 0,0 UV-I 0 W/m² 3,6 °C 4,8 °C 8,0 km/h (2 Bft)
02.10.2019 21:51 4,8 °C 92 % 1014,2 hPa 0,0 mm 6,6 km/h (2 Bft) W-SW 241 ° 0 min 0,000 mm 0,0 UV-I 0 W/m² 3,6 °C 3,3 °C 9,7 km/h (2 Bft)
02.10.2019 21:52 4,7 °C 92 % 1014,2 hPa 0,0 mm 4,7 km/h (1 Bft) S 180 ° 0 min 0,000 mm 0,0 UV-I 0 W/m² 3,5 °C 3,9 °C 8,0 km/h (2 Bft)
02.10.2019 21:53 4,8 °C 92 % 1014,2 hPa 0,0 mm 2,6 km/h (1 Bft) S 184 ° 0 min 0,000 mm 0,0 UV-I 0 W/m² 3,6 °C 4,8 °C 4,8 km/h (1 Bft)
02.10.2019 21:54 4,7 °C 92 % 1014,2 hPa 0,0 mm 2,3 km/h (1 Bft) SW 226 ° 0 min 0,000 mm 0,0 UV-I 0 W/m² 3,5 °C 4,7 °C 4,8 km/h (1 Bft)
02.10.2019 21:55 4,7 °C 93 % 1014,3 hPa 0,0 mm 2,4 km/h (1 Bft) SW 226 ° 0 min 0,000 mm 0,0 UV-I 0 W/m² 3,7 °C 4,7 °C 4,8 km/h (1 Bft)
02.10.2019 21:56 4,8 °C 93 % 1014,3 hPa 0,0 mm 2,1 km/h (1 Bft) S-SW 201 ° 0 min 0,000 mm 0,0 UV-I 0 W/m² 3,8 °C 4,8 °C 4,8 km/h (1 Bft)
02.10.2019 21:57 4,8 °C 93 % 1014,3 hPa 0,0 mm 0,2 km/h (0 Bft) S-SW 201 ° 0 min 0,000 mm 0,0 UV-I 0 W/m² 3,8 °C 4,8 °C 1,6 km/h (1 Bft)
02.10.2019 21:58 4,8 °C 93 % 1014,3 hPa 0,0 mm 0,6 km/h (0 Bft) W-SW 240 ° 0 min 0,000 mm 0,0 UV-I 0 W/m² 3,8 °C 4,8 °C 6,4 km/h (2 Bft)
02.10.2019 21:59 4,8 °C 93 % 1014,5 hPa 0,0 mm 3,4 km/h (1 Bft) W-SW 246 ° 0 min 0,000 mm 0,0 UV-I 0 W/m² 3,8 °C 4,8 °C 6,4 km/h (2 Bft)
02.10.2019 22:00 4,8 °C 93 % 1014,5 hPa 0,0 mm 5,6 km/h (1 Bft) W-SW 244 ° 0 min 0,000 mm 0,0 UV-I 0 W/m² 3,8 °C 3,6 °C 9,7 km/h (2 Bft)
02.10.2019 22:01 4,8 °C 93 % 1014,5 hPa 0,0 mm 4,2 km/h (1 Bft) W-SW 246 ° 0 min 0,000 mm 0,0 UV-I 0 W/m² 3,8 °C 4,8 °C 6,4 km/h (2 Bft)
02.10.2019 22:02 4,8 °C 93 % 1014,6 hPa 0,0 mm 4,5 km/h (1 Bft) S 180 ° 0 min 0,000 mm 0,0 UV-I 0 W/m² 3,8 °C 4,8 °C 6,4 km/h (2 Bft)
02.10.2019 22:03 4,8 °C 93 % 1014,6 hPa 0,0 mm 1,8 km/h (1 Bft) S 180 ° 0 min 0,000 mm 0,0 UV-I 0 W/m² 3,8 °C 4,8 °C 3,2 km/h (1 Bft)
02.10.2019 22:04 4,8 °C 93 % 1014,6 hPa 0,0 mm 3,9 km/h (1 Bft) W 264 ° 0 min 0,000 mm 0,0 UV-I 0 W/m² 3,8 °C 4,8 °C 9,7 km/h (2 Bft)
02.10.2019 22:05 4,8 °C 93 % 1014,6 hPa 0,0 mm 3,4 km/h (1 Bft) SW 234 ° 0 min 0,000 mm 0,0 UV-I 0 W/m² 3,8 °C 4,8 °C 6,4 km/h (2 Bft)
02.10.2019 22:06 4,8 °C 93 % 1014,7 hPa 0,0 mm 0,8 km/h (0 Bft) W-SW 242 ° 0 min 0,000 mm 0,0 UV-I 0 W/m² 3,8 °C 4,8 °C 3,2 km/h (1 Bft)
02.10.2019 22:07 4,8 °C 93 % 1014,7 hPa 0,0 mm 3,5 km/h (1 Bft) W-SW 243 ° 0 min 0,000 mm 0,0 UV-I 0 W/m² 3,8 °C 4,8 °C 6,4 km/h (2 Bft)
02.10.2019 22:08 4,8 °C 93 % 1014,7 hPa 0,0 mm 0,1 km/h (0 Bft) W-SW 244 ° 0 min 0,000 mm 0,0 UV-I 0 W/m² 3,8 °C 4,8 °C 1,6 km/h (1 Bft)
02.10.2019 22:09 4,8 °C 93 % 1014,7 hPa 0,0 mm 2,5 km/h (1 Bft) S-SW 213 ° 0 min 0,000 mm 0,0 UV-I 0 W/m² 3,8 °C 4,8 °C 6,4 km/h (2 Bft)
02.10.2019 22:10 4,8 °C 93 % 1014,8 hPa 0,0 mm 0,9 km/h (0 Bft) SW 222 ° 0 min 0,000 mm 0,0 UV-I 0 W/m² 3,8 °C 4,8 °C 3,2 km/h (1 Bft)
02.10.2019 22:11 4,8 °C 93 % 1014,7 hPa 0,0 mm 2,5 km/h (1 Bft) SW 220 ° 0 min 0,000 mm 0,0 UV-I 0 W/m² 3,8 °C 4,8 °C 4,8 km/h (1 Bft)
02.10.2019 22:12 4,9 °C 93 % 1014,7 hPa 0,0 mm 2,0 km/h (1 Bft) W 281 ° 0 min 0,000 mm 0,0 UV-I 0 W/m² 3,9 °C 4,9 °C 4,8 km/h (1 Bft)
02.10.2019 22:13 4,8 °C 93 % 1014,7 hPa 0,0 mm 2,1 km/h (1 Bft) W 280 ° 0 min 0,000 mm 0,0 UV-I 0 W/m² 3,8 °C 4,8 °C 4,8 km/h (1 Bft)
02.10.2019 22:14 4,8 °C 93 % 1014,7 hPa 0,0 mm 0,2 km/h (0 Bft) W 281 ° 0 min 0,000 mm 0,0 UV-I 0 W/m² 3,8 °C 4,8 °C 1,6 km/h (1 Bft)
02.10.2019 22:15 4,8 °C 93 % 1014,7 hPa 0,0 mm 0,3 km/h (0 Bft) W 281 ° 0 min 0,000 mm 0,0 UV-I 0 W/m² 3,8 °C 4,8 °C 1,6 km/h (1 Bft)
02.10.2019 22:16 4,8 °C 93 % 1014,7 hPa 0,0 mm 1,6 km/h (1 Bft) W 279 ° 0 min 0,000 mm 0,0 UV-I 0 W/m² 3,8 °C 4,8 °C 3,2 km/h (1 Bft)
02.10.2019 22:17 4,8 °C 93 % 1014,7 hPa 0,0 mm 1,5 km/h (1 Bft) W-NW 286 ° 0 min 0,000 mm 0,0 UV-I 0 W/m² 3,8 °C 4,8 °C 4,8 km/h (1 Bft)
02.10.2019 22:18 4,8 °C 93 % 1014,7 hPa 0,0 mm 3,9 km/h (1 Bft) W-NW 287 ° 0 min 0,000 mm 0,0 UV-I 0 W/m² 3,8 °C 4,8 °C 4,8 km/h (1 Bft)
02.10.2019 22:19 4,9 °C 93 % 1014,8 hPa 0,0 mm 3,2 km/h (1 Bft) W-NW 287 ° 0 min 0,000 mm 0,0 UV-I 0 W/m² 3,9 °C 4,9 °C 4,8 km/h (1 Bft)
02.10.2019 22:20 4,9 °C 93 % 1014,8 hPa 0,0 mm 2,8 km/h (1 Bft) W-NW 287 ° 0 min 0,000 mm 0,0 UV-I 0 W/m² 3,9 °C 4,9 °C 4,8 km/h (1 Bft)
02.10.2019 22:21 4,9 °C 93 % 1014,8 hPa 0,0 mm 1,7 km/h (1 Bft) W-NW 286 ° 0 min 0,000 mm 0,0 UV-I 0 W/m² 3,9 °C 4,9 °C 3,2 km/h (1 Bft)
02.10.2019 22:22 4,9 °C 93 % 1014,8 hPa 0,0 mm 2,4 km/h (1 Bft) W-NW 286 ° 0 min 0,000 mm 0,0 UV-I 0 W/m² 3,9 °C 4,9 °C 4,8 km/h (1 Bft)
02.10.2019 22:23 4,9 °C 93 % 1014,9 hPa 0,0 mm 1,9 km/h (1 Bft) W-NW 286 ° 0 min 0,000 mm 0,0 UV-I 0 W/m² 3,9 °C 4,9 °C 3,2 km/h (1 Bft)
02.10.2019 22:24 4,9 °C 93 % 1014,9 hPa 0,0 mm 1,8 km/h (1 Bft) W-NW 286 ° 0 min 0,000 mm 0,0 UV-I 0 W/m² 3,9 °C 4,9 °C 3,2 km/h (1 Bft)
02.10.2019 22:25 4,9 °C 93 % 1014,9 hPa 0,0 mm 2,1 km/h (1 Bft) W-NW 286 ° 0 min 0,000 mm 0,0 UV-I 0 W/m² 3,9 °C 4,9 °C 3,2 km/h (1 Bft)
02.10.2019 22:26 4,9 °C 93 % 1015,0 hPa 0,0 mm 1,4 km/h (1 Bft) W-NW 286 ° 0 min 0,000 mm 0,0 UV-I 0 W/m² 3,9 °C 4,9 °C 3,2 km/h (1 Bft)
02.10.2019 22:27 4,9 °C 93 % 1014,9 hPa 0,0 mm 0,1 km/h (0 Bft) W-NW 286 ° 0 min 0,000 mm 0,0 UV-I 0 W/m² 3,9 °C 4,9 °C 1,6 km/h (1 Bft)
02.10.2019 22:28 4,9 °C 93 % 1015,0 hPa 0,0 mm 1,5 km/h (1 Bft) W-NW 286 ° 0 min 0,000 mm 0,0 UV-I 0 W/m² 3,9 °C 4,9 °C 3,2 km/h (1 Bft)
02.10.2019 22:29 4,9 °C 93 % 1015,0 hPa 0,0 mm 0,8 km/h (0 Bft) W-NW 286 ° 0 min 0,000 mm 0,0 UV-I 0 W/m² 3,9 °C 4,9 °C 3,2 km/h (1 Bft)
02.10.2019 22:30 4,9 °C 93 % 1015,1 hPa 0,0 mm 3,3 km/h (1 Bft) SW 217 ° 0 min 0,000 mm 0,0 UV-I 0 W/m² 3,9 °C 4,9 °C 4,8 km/h (1 Bft)
02.10.2019 22:31 4,9 °C 93 % 1015,2 hPa 0,0 mm 5,6 km/h (1 Bft) S 185 ° 0 min 0,000 mm 0,0 UV-I 0 W/m² 3,9 °C 3,7 °C 8,0 km/h (2 Bft)
02.10.2019 22:32 4,8 °C 93 % 1015,1 hPa 0,0 mm 3,0 km/h (1 Bft) S-SW 195 ° 0 min 0,000 mm 0,0 UV-I 0 W/m² 3,8 °C 4,8 °C 4,8 km/h (1 Bft)
02.10.2019 22:33 4,8 °C 93 % 1015,1 hPa 0,0 mm 4,2 km/h (1 Bft) S 187 ° 0 min 0,000 mm 0,0 UV-I 0 W/m² 3,8 °C 4,8 °C 8,0 km/h (2 Bft)
02.10.2019 22:34 4,8 °C 93 % 1015,2 hPa 0,0 mm 4,1 km/h (1 Bft) S-SW 198 ° 0 min 0,000 mm 0,0 UV-I 0 W/m² 3,8 °C 4,8 °C 6,4 km/h (2 Bft)
02.10.2019 22:35 4,8 °C 93 % 1015,2 hPa 0,0 mm 0,5 km/h (0 Bft) S-SW 197 ° 0 min 0,000 mm 0,0 UV-I 0 W/m² 3,8 °C 4,8 °C 3,2 km/h (1 Bft)
02.10.2019 22:36 4,9 °C 93 % 1015,2 hPa 0,0 mm 0,0 km/h (0 Bft) S-SW 197 ° 0 min 0,000 mm 0,0 UV-I 0 W/m² 3,9 °C 4,9 °C 0,0 km/h (0 Bft)
02.10.2019 22:37 4,8 °C 93 % 1015,2 hPa 0,0 mm 0,0 km/h (0 Bft) S-SW 197 ° 0 min 0,000 mm 0,0 UV-I 0 W/m² 3,8 °C 4,8 °C 0,0 km/h (0 Bft)
02.10.2019 22:38 4,9 °C 93 % 1015,2 hPa 0,0 mm 0,0 km/h (0 Bft) S-SW 197 ° 0 min 0,000 mm 0,0 UV-I 0 W/m² 3,9 °C 4,9 °C 0,0 km/h (0 Bft)
02.10.2019 22:39 4,9 °C 93 % 1015,2 hPa 0,0 mm 0,0 km/h (0 Bft) S-SW 197 ° 0 min 0,000 mm 0,0 UV-I 0 W/m² 3,9 °C 4,9 °C 0,0 km/h (0 Bft)
02.10.2019 22:40 4,9 °C 93 % 1015,2 hPa 0,0 mm 0,0 km/h (0 Bft) S-SW 197 ° 0 min 0,000 mm 0,0 UV-I 0 W/m² 3,9 °C 4,9 °C 0,0 km/h (0 Bft)
02.10.2019 22:41 4,9 °C 93 % 1015,1 hPa 0,0 mm 0,0 km/h (0 Bft) S-SW 197 ° 0 min 0,000 mm 0,0 UV-I 0 W/m² 3,9 °C 4,9 °C 0,0 km/h (0 Bft)
02.10.2019 22:42 4,9 °C 93 % 1015,2 hPa 0,0 mm 0,1 km/h (0 Bft) S-SW 201 ° 0 min 0,000 mm 0,0 UV-I 0 W/m² 3,9 °C 4,9 °C 1,6 km/h (1 Bft)
02.10.2019 22:43 4,9 °C 93 % 1015,1 hPa 0,0 mm 0,8 km/h (0 Bft) S-SW 201 ° 0 min 0,000 mm 0,0 UV-I 0 W/m² 3,9 °C 4,9 °C 1,6 km/h (1 Bft)
02.10.2019 22:44 4,9 °C 93 % 1015,0 hPa 0,0 mm 0,0 km/h (0 Bft) S-SW 201 ° 0 min 0,000 mm 0,0 UV-I 0 W/m² 3,9 °C 4,9 °C 0,0 km/h (0 Bft)
02.10.2019 22:45 4,9 °C 93 % 1015,0 hPa 0,0 mm 1,3 km/h (1 Bft) S-SW 201 ° 0 min 0,000 mm 0,0 UV-I 0 W/m² 3,9 °C 4,9 °C 3,2 km/h (1 Bft)
02.10.2019 22:46 4,9 °C 93 % 1015,1 hPa 0,0 mm 0,0 km/h (0 Bft) S-SW 201 ° 0 min 0,000 mm 0,0 UV-I 0 W/m² 3,9 °C 4,9 °C 0,0 km/h (0 Bft)
02.10.2019 22:47 4,9 °C 93 % 1015,1 hPa 0,0 mm 0,3 km/h (0 Bft) S-SW 201 ° 0 min 0,000 mm 0,0 UV-I 0 W/m² 3,9 °C 4,9 °C 1,6 km/h (1 Bft)
02.10.2019 22:48 4,8 °C 93 % 1015,1 hPa 0,0 mm 0,9 km/h (0 Bft) S-SW 201 ° 0 min 0,000 mm 0,0 UV-I 0 W/m² 3,8 °C 4,8 °C 3,2 km/h (1 Bft)
02.10.2019 22:49 4,8 °C 93 % 1015,1 hPa 0,0 mm 0,0 km/h (0 Bft) S-SW 204 ° 0 min 0,000 mm 0,0 UV-I 0 W/m² 3,8 °C 4,8 °C 0,0 km/h (0 Bft)
02.10.2019 22:50 4,8 °C 93 % 1015,1 hPa 0,0 mm 1,4 km/h (1 Bft) N-NO 13 ° 0 min 0,000 mm 0,0 UV-I 0 W/m² 3,8 °C 4,8 °C 4,8 km/h (1 Bft)
02.10.2019 22:51 4,8 °C 93 % 1015,1 hPa 0,0 mm 0,3 km/h (0 Bft) N-NO 13 ° 0 min 0,000 mm 0,0 UV-I 0 W/m² 3,8 °C 4,8 °C 1,6 km/h (1 Bft)
02.10.2019 22:52 4,7 °C 93 % 1015,1 hPa 0,0 mm 1,3 km/h (1 Bft) O-NO 61 ° 0 min 0,000 mm 0,0 UV-I 0 W/m² 3,7 °C 4,7 °C 3,2 km/h (1 Bft)
02.10.2019 22:53 4,7 °C 93 % 1015,2 hPa 0,0 mm 0,1 km/h (0 Bft) O-NO 61 ° 0 min 0,000 mm 0,0 UV-I 0 W/m² 3,7 °C 4,7 °C 1,6 km/h (1 Bft)
02.10.2019 22:54 4,7 °C 93 % 1015,1 hPa 0,0 mm 0,0 km/h (0 Bft) O-NO 61 ° 0 min 0,000 mm 0,0 UV-I 0 W/m² 3,7 °C 4,7 °C 0,0 km/h (0 Bft)
02.10.2019 22:55 4,7 °C 93 % 1015,2 hPa 0,0 mm 0,1 km/h (0 Bft) O-NO 61 ° 0 min 0,000 mm 0,0 UV-I 0 W/m² 3,7 °C 4,7 °C 1,6 km/h (1 Bft)
02.10.2019 22:56 4,7 °C 93 % 1015,2 hPa 0,0 mm 1,2 km/h (1 Bft) SW 225 ° 0 min 0,000 mm 0,0 UV-I 0 W/m² 3,7 °C 4,7 °C 3,2 km/h (1 Bft)
02.10.2019 22:57 4,7 °C 94 % 1015,2 hPa 0,0 mm 0,1 km/h (0 Bft) NW 304 ° 0 min 0,000 mm 0,0 UV-I 0 W/m² 3,8 °C 4,7 °C 1,6 km/h (1 Bft)
02.10.2019 22:58 4,7 °C 94 % 1015,2 hPa 0,0 mm 0,4 km/h (0 Bft) S-SW 204 ° 0 min 0,000 mm 0,0 UV-I 0 W/m² 3,8 °C 4,7 °C 1,6 km/h (1 Bft)
02.10.2019 22:59 4,7 °C 94 % 1015,3 hPa 0,0 mm 1,6 km/h (1 Bft) S 189 ° 0 min 0,000 mm 0,0 UV-I 0 W/m² 3,8 °C 4,7 °C 4,8 km/h (1 Bft)
02.10.2019 23:00 4,7 °C 94 % 1015,3 hPa 0,0 mm 0,0 km/h (0 Bft) S 189 ° 0 min 0,000 mm 0,0 UV-I 0 W/m² 3,8 °C 4,7 °C 0,0 km/h (0 Bft)
02.10.2019 23:01 4,7 °C 94 % 1015,3 hPa 0,0 mm 0,0 km/h (0 Bft) S 189 ° 0 min 0,000 mm 0,0 UV-I 0 W/m² 3,8 °C 4,7 °C 0,0 km/h (0 Bft)
02.10.2019 23:02 4,7 °C 94 % 1015,3 hPa 0,0 mm 0,0 km/h (0 Bft) S 189 ° 0 min 0,000 mm 0,0 UV-I 0 W/m² 3,8 °C 4,7 °C 0,0 km/h (0 Bft)
02.10.2019 23:03 4,7 °C 94 % 1015,3 hPa 0,0 mm 0,1 km/h (0 Bft) S 190 ° 0 min 0,000 mm 0,0 UV-I 0 W/m² 3,8 °C 4,7 °C 1,6 km/h (1 Bft)
02.10.2019 23:04 4,7 °C 94 % 1015,4 hPa 0,0 mm 1,2 km/h (1 Bft) S 190 ° 0 min 0,000 mm 0,0 UV-I 0 W/m² 3,8 °C 4,7 °C 1,6 km/h (1 Bft)
02.10.2019 23:05 4,7 °C 94 % 1015,4 hPa 0,0 mm 0,1 km/h (0 Bft) S 191 ° 0 min 0,000 mm 0,0 UV-I 0 W/m² 3,8 °C 4,7 °C 1,6 km/h (1 Bft)
02.10.2019 23:06 4,7 °C 94 % 1015,4 hPa 0,0 mm 0,0 km/h (0 Bft) S 191 ° 0 min 0,000 mm 0,0 UV-I 0 W/m² 3,8 °C 4,7 °C 0,0 km/h (0 Bft)
02.10.2019 23:07 4,7 °C 94 % 1015,4 hPa 0,0 mm 0,0 km/h (0 Bft) S 191 ° 0 min 0,000 mm 0,0 UV-I 0 W/m² 3,8 °C 4,7 °C 0,0 km/h (0 Bft)
02.10.2019 23:08 4,7 °C 94 % 1015,3 hPa 0,0 mm 0,0 km/h (0 Bft) S 191 ° 0 min 0,000 mm 0,0 UV-I 0 W/m² 3,8 °C 4,7 °C 0,0 km/h (0 Bft)
02.10.2019 23:09 4,7 °C 94 % 1015,4 hPa 0,0 mm 0,0 km/h (0 Bft) S 191 ° 0 min 0,000 mm 0,0 UV-I 0 W/m² 3,8 °C 4,7 °C 0,0 km/h (0 Bft)
02.10.2019 23:10 4,7 °C 94 % 1015,4 hPa 0,0 mm 0,0 km/h (0 Bft) S 191 ° 0 min 0,000 mm 0,0 UV-I 0 W/m² 3,8 °C 4,7 °C 0,0 km/h (0 Bft)
02.10.2019 23:11 4,7 °C 94 % 1015,3 hPa 0,0 mm 0,0 km/h (0 Bft) S 191 ° 0 min 0,000 mm 0,0 UV-I 0 W/m² 3,8 °C 4,7 °C 0,0 km/h (0 Bft)
02.10.2019 23:12 4,7 °C 94 % 1015,4 hPa 0,0 mm 0,0 km/h (0 Bft) S 191 ° 0 min 0,000 mm 0,0 UV-I 0 W/m² 3,8 °C 4,7 °C 0,0 km/h (0 Bft)
02.10.2019 23:13 4,7 °C 94 % 1015,3 hPa 0,0 mm 0,0 km/h (0 Bft) S 191 ° 0 min 0,000 mm 0,0 UV-I 0 W/m² 3,8 °C 4,7 °C 0,0 km/h (0 Bft)
02.10.2019 23:14 4,6 °C 94 % 1015,4 hPa 0,0 mm 1,1 km/h (1 Bft) S 191 ° 0 min 0,000 mm 0,0 UV-I 0 W/m² 3,7 °C 4,6 °C 3,2 km/h (1 Bft)
02.10.2019 23:15 4,7 °C 94 % 1015,5 hPa 0,0 mm 0,4 km/h (0 Bft) S 191 ° 0 min 0,000 mm 0,0 UV-I 0 W/m² 3,8 °C 4,7 °C 1,6 km/h (1 Bft)
02.10.2019 23:16 4,6 °C 94 % 1015,4 hPa 0,0 mm 0,0 km/h (0 Bft) S 191 ° 0 min 0,000 mm 0,0 UV-I 0 W/m² 3,7 °C 4,6 °C 0,0 km/h (0 Bft)
02.10.2019 23:17 4,6 °C 94 % 1015,5 hPa 0,0 mm 0,0 km/h (0 Bft) S 191 ° 0 min 0,000 mm 0,0 UV-I 0 W/m² 3,7 °C 4,6 °C 0,0 km/h (0 Bft)
02.10.2019 23:18 4,6 °C 94 % 1015,5 hPa 0,0 mm 0,0 km/h (0 Bft) S 191 ° 0 min 0,000 mm 0,0 UV-I 0 W/m² 3,7 °C 4,6 °C 0,0 km/h (0 Bft)
02.10.2019 23:19 4,6 °C 94 % 1015,5 hPa 0,0 mm 0,0 km/h (0 Bft) S 191 ° 0 min 0,000 mm 0,0 UV-I 0 W/m² 3,7 °C 4,6 °C 0,0 km/h (0 Bft)
02.10.2019 23:20 4,6 °C 94 % 1015,4 hPa 0,0 mm 0,1 km/h (0 Bft) S 190 ° 0 min 0,000 mm 0,0 UV-I 0 W/m² 3,7 °C 4,6 °C 1,6 km/h (1 Bft)
02.10.2019 23:21 4,6 °C 94 % 1015,4 hPa 0,0 mm 0,0 km/h (0 Bft) S 190 ° 0 min 0,000 mm 0,0 UV-I 0 W/m² 3,7 °C 4,6 °C 0,0 km/h (0 Bft)
02.10.2019 23:22 4,6 °C 94 % 1015,4 hPa 0,0 mm 0,0 km/h (0 Bft) S 190 ° 0 min 0,000 mm 0,0 UV-I 0 W/m² 3,7 °C 4,6 °C 0,0 km/h (0 Bft)
02.10.2019 23:23 4,6 °C 94 % 1015,4 hPa 0,0 mm 0,0 km/h (0 Bft) S 190 ° 0 min 0,000 mm 0,0 UV-I 0 W/m² 3,7 °C 4,6 °C 0,0 km/h (0 Bft)
02.10.2019 23:24 4,7 °C 94 % 1015,4 hPa 0,0 mm 0,0 km/h (0 Bft) S 190 ° 0 min 0,000 mm 0,0 UV-I 0 W/m² 3,8 °C 4,7 °C 0,0 km/h (0 Bft)
02.10.2019 23:25 4,6 °C 94 % 1015,4 hPa 0,0 mm 1,6 km/h (1 Bft) S 191 ° 0 min 0,000 mm 0,0 UV-I 0 W/m² 3,7 °C 4,6 °C 3,2 km/h (1 Bft)
02.10.2019 23:26 4,7 °C 94 % 1015,4 hPa 0,0 mm 0,7 km/h (0 Bft) S 190 ° 0 min 0,000 mm 0,0 UV-I 0 W/m² 3,8 °C 4,7 °C 4,8 km/h (1 Bft)
02.10.2019 23:27 4,6 °C 94 % 1015,3 hPa 0,0 mm 0,0 km/h (0 Bft) S 190 ° 0 min 0,000 mm 0,0 UV-I 0 W/m² 3,7 °C 4,6 °C 0,0 km/h (0 Bft)
02.10.2019 23:28 4,6 °C 94 % 1015,4 hPa 0,0 mm 0,0 km/h (0 Bft) S 190 ° 0 min 0,000 mm 0,0 UV-I 0 W/m² 3,7 °C 4,6 °C 0,0 km/h (0 Bft)
02.10.2019 23:29 4,6 °C 94 % 1015,4 hPa 0,0 mm 0,3 km/h (0 Bft) S-SW 202 ° 0 min 0,000 mm 0,0 UV-I 0 W/m² 3,7 °C 4,6 °C 1,6 km/h (1 Bft)
02.10.2019 23:30 4,6 °C 94 % 1015,4 hPa 0,0 mm 1,5 km/h (1 Bft) S-SW 204 ° 0 min 0,000 mm 0,0 UV-I 0 W/m² 3,7 °C 4,6 °C 3,2 km/h (1 Bft)
02.10.2019 23:31 4,6 °C 94 % 1015,4 hPa 0,0 mm 0,0 km/h (0 Bft) S-SW 204 ° 0 min 0,000 mm 0,0 UV-I 0 W/m² 3,7 °C 4,6 °C 0,0 km/h (0 Bft)
02.10.2019 23:32 4,6 °C 94 % 1015,4 hPa 0,0 mm 0,0 km/h (0 Bft) S-SW 204 ° 0 min 0,000 mm 0,0 UV-I 0 W/m² 3,7 °C 4,6 °C 0,0 km/h (0 Bft)
02.10.2019 23:33 4,6 °C 94 % 1015,4 hPa 0,0 mm 0,0 km/h (0 Bft) S-SW 204 ° 0 min 0,000 mm 0,0 UV-I 0 W/m² 3,7 °C 4,6 °C 0,0 km/h (0 Bft)
02.10.2019 23:34 4,5 °C 94 % 1015,4 hPa 0,0 mm 0,2 km/h (0 Bft) S-SW 204 ° 0 min 0,000 mm 0,0 UV-I 0 W/m² 3,6 °C 4,5 °C 1,6 km/h (1 Bft)
02.10.2019 23:35 4,4 °C 94 % 1015,4 hPa 0,0 mm 0,0 km/h (0 Bft) S-SW 204 ° 0 min 0,000 mm 0,0 UV-I 0 W/m² 3,5 °C 4,4 °C 0,0 km/h (0 Bft)
02.10.2019 23:36 4,4 °C 94 % 1015,3 hPa 0,0 mm 0,0 km/h (0 Bft) S-SW 204 ° 0 min 0,000 mm 0,0 UV-I 0 W/m² 3,5 °C 4,4 °C 0,0 km/h (0 Bft)
02.10.2019 23:37 4,4 °C 94 % 1015,3 hPa 0,0 mm 0,0 km/h (0 Bft) S-SW 204 ° 0 min 0,000 mm 0,0 UV-I 0 W/m² 3,5 °C 4,4 °C 0,0 km/h (0 Bft)
02.10.2019 23:38 4,4 °C 94 % 1015,2 hPa 0,0 mm 0,0 km/h (0 Bft) S-SW 204 ° 0 min 0,000 mm 0,0 UV-I 0 W/m² 3,5 °C 4,4 °C 0,0 km/h (0 Bft)
02.10.2019 23:39 4,4 °C 94 % 1015,2 hPa 0,0 mm 0,0 km/h (0 Bft) S-SW 204 ° 0 min 0,000 mm 0,0 UV-I 0 W/m² 3,5 °C 4,4 °C 0,0 km/h (0 Bft)
02.10.2019 23:40 4,3 °C 94 % 1015,2 hPa 0,0 mm 0,0 km/h (0 Bft) S-SW 204 ° 0 min 0,000 mm 0,0 UV-I 0 W/m² 3,4 °C 4,3 °C 0,0 km/h (0 Bft)
02.10.2019 23:41 4,2 °C 94 % 1015,2 hPa 0,0 mm 0,2 km/h (0 Bft) S-SW 204 ° 0 min 0,000 mm 0,0 UV-I 0 W/m² 3,3 °C 4,2 °C 1,6 km/h (1 Bft)
02.10.2019 23:42 4,2 °C 94 % 1015,2 hPa 0,0 mm 0,1 km/h (0 Bft) S-SW 204 ° 0 min 0,000 mm 0,0 UV-I 0 W/m² 3,3 °C 4,2 °C 1,6 km/h (1 Bft)
02.10.2019 23:43 4,2 °C 94 % 1015,2 hPa 0,0 mm 0,3 km/h (0 Bft) S-SW 204 ° 0 min 0,000 mm 0,0 UV-I 0 W/m² 3,3 °C 4,2 °C 1,6 km/h (1 Bft)
02.10.2019 23:44 4,1 °C 94 % 1015,2 hPa 0,0 mm 0,7 km/h (0 Bft) S-SW 204 ° 0 min 0,000 mm 0,0 UV-I 0 W/m² 3,2 °C 4,1 °C 3,2 km/h (1 Bft)
02.10.2019 23:45 4,1 °C 94 % 1015,1 hPa 0,0 mm 0,0 km/h (0 Bft) S-SW 204 ° 0 min 0,000 mm 0,0 UV-I 0 W/m² 3,2 °C 4,1 °C 0,0 km/h (0 Bft)
02.10.2019 23:46 4,0 °C 94 % 1015,1 hPa 0,0 mm 0,0 km/h (0 Bft) S-SW 204 ° 0 min 0,000 mm 0,0 UV-I 0 W/m² 3,1 °C 4,0 °C 0,0 km/h (0 Bft)
02.10.2019 23:47 3,9 °C 94 % 1015,1 hPa 0,0 mm 0,0 km/h (0 Bft) S-SW 204 ° 0 min 0,000 mm 0,0 UV-I 0 W/m² 3,0 °C 3,9 °C 0,0 km/h (0 Bft)
02.10.2019 23:48 3,9 °C 93 % 1015,1 hPa 0,0 mm 0,0 km/h (0 Bft) S-SW 204 ° 0 min 0,000 mm 0,0 UV-I 0 W/m² 2,9 °C 3,9 °C 0,0 km/h (0 Bft)
02.10.2019 23:49 3,8 °C 94 % 1015,2 hPa 0,0 mm 0,0 km/h (0 Bft) S-SW 204 ° 0 min 0,000 mm 0,0 UV-I 0 W/m² 2,9 °C 3,8 °C 0,0 km/h (0 Bft)
02.10.2019 23:50 3,8 °C 94 % 1015,1 hPa 0,0 mm 0,0 km/h (0 Bft) S-SW 204 ° 0 min 0,000 mm 0,0 UV-I 0 W/m² 2,9 °C 3,8 °C 0,0 km/h (0 Bft)
02.10.2019 23:51 3,7 °C 94 % 1015,1 hPa 0,0 mm 0,0 km/h (0 Bft) S-SW 204 ° 0 min 0,000 mm 0,0 UV-I 0 W/m² 2,8 °C 3,7 °C 0,0 km/h (0 Bft)
02.10.2019 23:52 3,7 °C 94 % 1015,1 hPa 0,0 mm 0,0 km/h (0 Bft) S-SW 204 ° 0 min 0,000 mm 0,0 UV-I 0 W/m² 2,8 °C 3,7 °C 0,0 km/h (0 Bft)
02.10.2019 23:53 3,7 °C 94 % 1015,1 hPa 0,0 mm 0,0 km/h (0 Bft) S-SW 204 ° 0 min 0,000 mm 0,0 UV-I 0 W/m² 2,8 °C 3,7 °C 0,0 km/h (0 Bft)
02.10.2019 23:54 3,7 °C 94 % 1015,1 hPa 0,0 mm 0,0 km/h (0 Bft) S-SW 204 ° 0 min 0,000 mm 0,0 UV-I 0 W/m² 2,8 °C 3,7 °C 0,0 km/h (0 Bft)
02.10.2019 23:55 3,6 °C 94 % 1015,2 hPa 0,0 mm 0,0 km/h (0 Bft) S-SW 204 ° 0 min 0,000 mm 0,0 UV-I 0 W/m² 2,7 °C 3,6 °C 0,0 km/h (0 Bft)
02.10.2019 23:56 3,6 °C 94 % 1015,2 hPa 0,0 mm 0,0 km/h (0 Bft) S-SW 204 ° 0 min 0,000 mm 0,0 UV-I 0 W/m² 2,7 °C 3,6 °C 0,0 km/h (0 Bft)
02.10.2019 23:57 3,6 °C 94 % 1015,3 hPa 0,0 mm 2,1 km/h (1 Bft) S-SW 204 ° 0 min 0,000 mm 0,0 UV-I 0 W/m² 2,7 °C 3,6 °C 3,2 km/h (1 Bft)
02.10.2019 23:58 3,6 °C 94 % 1015,3 hPa 0,0 mm 0,3 km/h (0 Bft) S-SW 204 ° 0 min 0,000 mm 0,0 UV-I 0 W/m² 2,7 °C 3,6 °C 1,6 km/h (1 Bft)
02.10.2019 23:59 3,6 °C 94 % 1015,4 hPa 0,0 mm 0,0 km/h (0 Bft) S-SW 204 ° 0 min 0,000 mm 0,0 UV-I 0 W/m² 2,7 °C 3,6 °C 0,0 km/h (0 Bft)
_ Min-Zeit 23:59 16:19 06:22 - 23:59 - - - - - - 23:59 21:16 23:59
Minimum _ 3,6 °C 71 % 1002,3 hPa - 0,0 km/h (0 Bft) - - - - - - 2,7 °C 3,1 °C 0,0 km/h (0 Bft)
_ Max-Zeit 14:42 07:14 23:19 19:03 13:18 - - 15:18 15:01 12:54 12:58 00:12 14:42 15:06
Maximum _ 14,8 °C 95 % 1015,5 hPa 0,2 mm 23,3 km/h
W-SW (4 Bft)
- - 1 min 0,280 mm 4,3 UV-I 972 W/m² 10,9 °C 14,8 °C 40,2 km/h
W-SW (6 Bft)
Durchschnitt _ 10,5 °C 89 % 1006,2 hPa #0,8 mm 5,7 km/h (1 Bft) W - #32 min. #1,245 mm 1,7 UV-I 81 W/m² 8,7 °C 10,4 °C 9,6 km/h (2 Bft)